[[{"header":{"parameterUnit":"m.s-1","parameterCategory":1,"la1":31.0,"la2":29.5877,"lo1":-88.7671,"lo2":-86.6584,"dy":0.0162,"dx":0.0185,"nx":115,"ny":88,"refTime":"2023-05-08T06:00:00:Z","depth":0,"parameterNumber":2,"parameterNumberName":"U-component_of_WINDS"},"data":[0.0,0.0,0.0,0.0,0.0,0.0,0.0,0.0,0.0,0.0,0.0,0.0,0.0,0.0,0.0,0.0,0.0,0.0,0.0,0.0,0.0,0.0,0.0,0.0,0.0,0.0,0.0,0.0,0.0,0.0,0.0,0.0,0.0,0.0,0.0,0.0,0.0,0.0,0.0,0.0,0.0,0.0,0.0,0.0,0.0,0.0,0.0,0.0,0.0,0.0,0.0,0.0,0.0,0.0,0.0,0.0,0.0,0.0,0.0,0.0,0.0,0.0,0.0,0.0,0.0,0.0,0.0,0.0,0.0,0.0,0.0,0.0,0.0,0.0,0.0,0.0,0.0,0.0,0.0,0.0,0.0,0.0,0.0,0.0,0.0,0.0,0.0,0.0,0.0,0.0,0.0,0.0,0.0,0.0,0.0,0.0,0.0,0.0,0.0,0.0,0.0,0.0,0.0,0.0,0.0,0.0,0.0,0.0,0.0,0.0,0.0,0.0,0.0,0.0,0.0,0.0,0.0,0.0,0.0,0.0,0.0,0.0,0.0,0.0,0.0,0.0,0.0,0.0,0.0,0.0,0.0,0.0,0.0,0.0,0.0,0.0,0.0,0.0,0.0,0.0,0.0,0.0,0.0,0.0,0.0,0.0,0.0,0.0,0.0,0.0,0.0,0.0,0.0,0.0,0.0,0.0,0.0,0.0,0.0,0.0,0.0,0.0,0.0,0.0,0.0,0.0,0.0,0.0,0.0,0.0,0.0,0.0,0.0,0.0,0.0,0.0,0.0,0.0,0.0,0.0,0.0,0.0,0.0,0.0,0.0,0.0,0.0,0.0,0.0,0.0,0.0,0.0,0.0,0.0,0.0,0.0,0.0,0.0,0.0,0.0,0.0,0.0,0.0,0.0,0.0,0.0,0.0,0.0,0.0,0.0,0.0,0.0,0.0,0.0,0.0,0.0,0.0,0.0,0.0,0.0,0.0,0.0,0.0,0.0,0.0,0.0,0.0,0.0,0.0,0.0,0.0,0.0,0.0,0.0,0.0,0.0,0.0,0.0,0.0,0.0,0.0,0.0,0.0,0.0,0.0,0.0,0.0,0.0,0.0,0.0,0.0,0.0,0.0,0.0,0.0,0.0,0.0,0.0,0.0,0.0,0.0,0.0,0.0,0.0,0.0,0.0,0.0,0.0,0.0,0.0,0.0,0.0,0.0,0.0,0.0,0.0,0.0,0.0,0.0,0.0,0.0,0.0,0.0,0.0,0.0,0.0,0.0,0.0,0.0,0.0,0.0,0.0,0.0,0.0,0.0,0.0,0.0,0.0,0.0,0.0,0.0,0.0,0.0,0.0,0.0,0.0,0.0,0.0,0.0,0.0,0.0,0.0,0.0,0.0,0.0,0.0,0.0,0.0,0.0,0.0,0.0,0.0,0.0,0.0,0.0,0.0,0.0,0.0,0.0,0.0,0.0,0.0,0.0,0.0,0.0,0.0,0.0,0.0,0.0,0.0,0.0,0.0,0.0,0.0,0.0,0.0,0.0,0.0,0.0,0.0,0.0,0.0,0.0,0.0,0.0,0.0,0.0,0.0,0.0,0.0,0.0,0.0,0.0,0.0,0.0,0.0,0.0,0.0,0.0,0.0,0.0,0.0,0.0,0.0,0.0,0.0,0.0,0.0,0.0,0.0,0.0,0.0,0.0,0.0,0.0,0.0,0.0,0.0,0.0,0.0,0.0,0.0,0.0,0.0,0.0,0.0,0.0,0.0,0.0,0.0,0.0,0.0,0.0,0.0,0.0,0.0,0.0,0.0,0.0,0.0,0.0,0.0,0.0,0.0,0.0,0.0,0.0,0.0,0.0,0.0,0.0,0.0,0.0,0.0,0.0,0.0,0.0,0.0,0.0,0.0,0.0,0.0,0.0,0.0,0.0,0.0,0.0,0.0,0.0,0.0,0.0,0.0,0.0,0.0,0.0,0.0,0.0,0.0,0.0,0.0,0.0,0.0,0.0,0.0,0.0,0.0,0.0,0.0,0.0,0.0,0.0,0.0,0.0,0.0,0.0,0.0,0.0,0.0,0.0,0.0,0.0,0.0,0.0,0.0,0.0,0.0,0.0,0.0,0.0,0.0,0.0,0.0,0.0,0.0,0.0,0.0,0.0,0.0,0.0,0.0,0.0,0.0,0.0,0.0,0.0,0.0,0.0,0.0,0.0,0.0,0.0,0.0,0.0,0.0,0.0,0.0,0.0,0.0,0.0,0.0,0.0,0.0,0.0,0.0,0.0,0.0,0.0,0.0,0.0,0.0,0.0,0.0,0.0,0.0,0.0,0.0,0.0,0.0,0.0,0.0,0.0,0.0,0.0,0.0,0.0,0.0,0.0,0.0,0.0,0.0,0.0,0.0,0.0,0.0,0.0,0.0,0.0,0.0,0.0,0.0,0.0,0.0,0.0,0.0,0.0,0.0,0.0,0.0,0.0,0.0,0.0,0.0,0.0,0.0,0.0,0.0,0.0,0.0,0.0,0.0,0.0,0.0,0.0,0.0,0.0,0.0,0.0,0.0,0.0,0.0,0.0,0.0,0.0,0.0,0.0,0.0,0.0,0.0,0.0,0.0,0.0,0.0,0.0,0.0,0.0,0.0,0.0,0.0,0.0,0.0,0.0,0.0,0.0,0.0,0.0,0.0,0.0,0.0,0.0,0.0,0.0,0.0,0.0,0.0,0.0,0.0,0.0,0.0,0.0,0.0,0.0,0.0,0.0,0.0,0.0,0.0,0.0,0.0,0.0,0.0,0.0,0.0,0.0,0.0,0.0,0.0,0.0,0.0,0.0,0.0,0.0,0.0,0.0,0.0,0.0,0.0,0.0,0.0,0.0,0.0,0.0,0.0,0.0,0.0,0.0,0.0,0.0,0.0,0.0,0.0,0.0,0.0,0.0,0.0,0.0,0.0,0.0,0.0,0.0,0.0,0.0,0.0,0.0,0.0,0.0,0.0,0.0,0.0,0.0,0.0,0.0,0.0,0.0,0.0,0.0,0.0,0.0,0.0,0.0,0.0,0.0,0.0,0.0,0.0,0.0,0.0,0.0,0.0,0.0,0.0,0.0,0.0,0.0,0.0,0.0,0.0,0.0,0.0,0.0,0.0,0.0,0.0,0.0,0.0,0.0,0.0,0.0,0.0,0.0,0.0,0.0,0.0,0.0,0.0,0.0,0.0,0.0,0.0,0.0,0.0,0.0,0.0,0.0,0.0,0.0,0.0,0.0,0.0,0.0,0.0,0.0,0.0,0.0,0.0,0.0,0.0,0.0,0.0,0.0,0.0,0.0,0.0,0.0,0.0,0.0,0.0,0.0,0.0,0.0,0.0,0.0,0.0,0.0,0.0,0.0,0.0,0.0,0.0,0.0,0.0,0.0,0.0,0.0,0.0,0.0,0.0,0.0,0.0,0.0,0.0,0.0,0.0,0.0,0.0,0.0,0.0,0.0,0.0,0.0,0.0,0.0,0.0,0.0,0.0,0.0,0.0,0.0,0.0,0.0,0.0,0.0,0.0,0.0,0.0,0.0,0.0,0.0,0.0,0.0,0.0,0.0,0.0,0.0,0.0,0.0,0.0,0.0,0.0,0.0,0.0,0.0,0.0,0.0,0.0,0.0,0.0,0.0,0.0,0.0,0.0,0.0,0.0,0.0,0.0,0.0,0.0,0.0,0.0,0.0,0.0,0.0,0.0,0.0,0.0,0.0,0.0,0.0,0.0,0.0,0.0,0.0,0.0,0.0,0.0,0.0,0.0,0.0,0.0,0.0,0.0,0.0,0.0,0.0,0.0,0.0,0.0,0.0,0.0,0.0,0.0,0.0,0.0,0.0,0.0,0.0,0.0,0.0,0.0,0.0,0.0,0.0,0.0,0.0,0.0,0.0,0.0,0.0,0.0,0.0,0.0,0.0,0.0,0.0,0.0,0.0,0.0,0.0,0.0,0.0,0.0,0.0,0.0,0.0,0.0,0.0,0.0,0.0,0.0,0.0,0.0,0.0,0.0,0.0,0.0,0.0,0.0,0.0,0.0,0.0,0.0,0.0,0.0,0.0,0.0,0.0,0.0,0.0,0.0,0.0,0.0,0.0,0.0,0.0,0.0,0.0,0.0,0.0,0.0,0.0,0.0,0.0,0.0,0.0,0.0,0.0,0.0,0.0,0.0,0.0,0.0,0.0,0.0,0.0,0.0,0.0,0.0,0.0,0.0,0.0,0.0,0.0,0.0,0.0,0.0,0.0,0.0,-1.5594,0.0,0.0,0.0,0.0,0.0,0.0,0.0,0.0,0.0,0.0,0.0,0.0,0.0,0.0,0.0,0.0,0.0,0.0,0.0,0.0,0.0,0.0,0.0,0.0,0.0,0.0,0.0,0.0,0.0,0.0,0.0,0.0,0.0,0.0,0.0,0.0,0.0,0.0,0.0,0.0,0.0,0.0,0.0,0.0,0.0,0.0,0.0,0.0,0.0,0.0,0.0,0.0,0.0,0.0,0.0,0.0,0.0,0.0,0.0,0.0,0.0,0.0,0.0,0.0,0.0,0.0,0.0,0.0,0.0,0.0,0.0,0.0,0.0,0.0,0.0,0.0,0.0,0.0,0.0,0.0,0.0,0.0,0.0,0.0,0.0,0.0,0.0,0.0,0.0,0.0,0.0,0.0,0.0,0.0,0.0,0.0,0.0,0.0,0.0,0.0,0.0,0.0,0.0,0.0,0.0,0.0,0.0,0.0,0.0,0.0,-1.6722,-1.6802,-1.6866,-1.6751,-1.6385,0.0,0.0,0.0,0.0,0.0,0.0,0.0,0.0,0.0,0.0,0.0,0.0,0.0,0.0,0.0,0.0,0.0,0.0,0.0,0.0,0.0,0.0,0.0,0.0,0.0,0.0,0.0,0.0,0.0,0.0,0.0,0.0,0.0,0.0,0.0,0.0,0.0,0.0,0.0,0.0,0.0,0.0,0.0,0.0,0.0,0.0,0.0,0.0,0.0,0.0,0.0,0.0,0.0,0.0,0.0,0.0,0.0,0.0,0.0,0.0,0.0,0.0,0.0,0.0,0.0,0.0,0.0,0.0,0.0,0.0,0.0,0.0,0.0,0.0,0.0,0.0,0.0,0.0,0.0,0.0,0.0,0.0,0.0,0.0,0.0,0.0,0.0,0.0,0.0,0.0,0.0,0.0,0.0,0.0,0.0,0.0,0.0,0.0,0.0,0.0,0.0,0.0,0.0,0.0,0.0,0.0,0.0,0.0,0.0,0.0,0.0,0.0,-1.7983,-1.762,-1.6671,0.0,0.0,0.0,0.0,0.0,0.0,0.0,0.0,0.0,0.0,0.0,0.0,0.0,0.0,0.0,0.0,0.0,0.0,0.0,0.0,0.0,0.0,0.0,0.0,0.0,0.0,0.0,0.0,0.0,0.0,0.0,0.0,0.0,0.0,0.0,0.0,0.0,0.0,0.0,0.0,0.0,0.0,0.0,0.0,0.0,0.0,0.0,0.0,0.0,0.0,0.0,0.0,0.0,0.0,0.0,0.0,0.0,0.0,0.0,0.0,0.0,0.0,0.0,0.0,0.0,0.0,0.0,0.0,0.0,0.0,0.0,0.0,0.0,0.0,0.0,0.0,0.0,0.0,0.0,0.0,0.0,0.0,0.0,0.0,0.0,0.0,0.0,0.0,0.0,0.0,0.0,0.0,0.0,0.0,0.0,0.0,0.0,0.0,0.0,0.0,0.0,0.0,0.0,0.0,0.0,0.0,0.0,0.0,0.0,0.0,-1.7889,-1.807,-1.814,0.0,-1.609,0.0,0.0,0.0,0.0,0.0,0.0,0.0,0.0,0.0,0.0,0.0,0.0,0.0,0.0,0.0,0.0,0.0,0.0,0.0,0.0,0.0,0.0,0.0,0.0,0.0,0.0,0.0,0.0,0.0,0.0,0.0,0.0,0.0,0.0,0.0,0.0,0.0,0.0,0.0,0.0,0.0,0.0,0.0,0.0,0.0,0.0,0.0,0.0,0.0,0.0,0.0,0.0,0.0,0.0,0.0,0.0,0.0,0.0,0.0,0.0,0.0,0.0,0.0,0.0,0.0,0.0,0.0,0.0,0.0,0.0,0.0,0.0,0.0,0.0,0.0,0.0,0.0,0.0,0.0,0.0,0.0,0.0,0.0,0.0,0.0,0.0,0.0,0.0,0.0,0.0,0.0,0.0,0.0,0.0,0.0,0.0,0.0,0.0,0.0,0.0,0.0,0.0,0.0,0.0,0.0,0.0,0.0,0.0,0.0,0.0,-1.7961,-1.8027,-1.814,-1.7486,0.0,0.0,0.0,0.0,0.0,0.0,0.0,0.0,0.0,0.0,0.0,0.0,0.0,0.0,0.0,0.0,0.0,0.0,0.0,0.0,0.0,0.0,0.0,0.0,0.0,0.0,0.0,0.0,0.0,0.0,0.0,0.0,0.0,0.0,0.0,0.0,0.0,0.0,0.0,0.0,0.0,0.0,0.0,0.0,0.0,0.0,0.0,0.0,0.0,0.0,0.0,0.0,0.0,0.0,0.0,0.0,0.0,0.0,0.0,0.0,0.0,0.0,0.0,0.0,0.0,0.0,0.0,0.0,0.0,0.0,0.0,0.0,0.0,0.0,0.0,0.0,0.0,0.0,0.0,0.0,0.0,0.0,0.0,0.0,0.0,0.0,0.0,0.0,0.0,0.0,0.0,0.0,0.0,0.0,0.0,0.0,0.0,0.0,0.0,0.0,0.0,0.0,0.0,0.0,0.0,0.0,0.0,0.0,0.0,0.0,-1.7861,-1.7983,-1.8048,-1.814,-1.7486,-1.598,0.0,0.0,0.0,0.0,0.0,0.0,0.0,0.0,0.0,0.0,0.0,0.0,0.0,0.0,0.0,0.0,0.0,0.0,0.0,0.0,0.0,0.0,0.0,0.0,0.0,0.0,0.0,0.0,0.0,0.0,0.0,0.0,0.0,0.0,0.0,0.0,0.0,0.0,0.0,0.0,0.0,0.0,0.0,0.0,0.0,0.0,0.0,0.0,0.0,0.0,0.0,0.0,0.0,0.0,0.0,0.0,0.0,0.0,0.0,0.0,0.0,0.0,0.0,0.0,0.0,0.0,0.0,0.0,0.0,0.0,0.0,0.0,0.0,0.0,0.0,0.0,0.0,0.0,0.0,0.0,0.0,0.0,0.0,0.0,0.0,0.0,0.0,0.0,0.0,0.0,0.0,0.0,0.0,0.0,0.0,0.0,0.0,0.0,0.0,0.0,0.0,0.0,0.0,0.0,0.0,0.0,0.0,0.0,-1.7777,-1.78,-1.7939,-1.8179,-1.82,-1.7507,0.0,0.0,0.0,0.0,0.0,0.0,0.0,0.0,0.0,0.0,0.0,0.0,0.0,0.0,0.0,0.0,0.0,0.0,0.0,0.0,0.0,0.0,0.0,0.0,0.0,0.0,0.0,0.0,0.0,0.0,0.0,0.0,0.0,0.0,0.0,0.0,0.0,0.0,0.0,0.0,0.0,0.0,0.0,0.0,0.0,0.0,0.0,0.0,0.0,0.0,0.0,0.0,0.0,0.0,0.0,0.0,0.0,0.0,0.0,0.0,0.0,0.0,0.0,0.0,0.0,0.0,0.0,0.0,0.0,0.0,0.0,0.0,0.0,0.0,0.0,0.0,0.0,0.0,0.0,0.0,0.0,0.0,0.0,0.0,0.0,0.0,0.0,0.0,0.0,0.0,0.0,0.0,0.0,0.0,0.0,0.0,0.0,0.0,0.0,0.0,0.0,0.0,0.0,0.0,0.0,0.0,0.0,0.0,0.0,-1.7542,-1.7704,-1.7895,-1.8065,-1.8076,-1.7377,0.0,0.0,0.0,0.0,0.0,0.0,0.0,0.0,0.0,0.0,0.0,0.0,0.0,0.0,0.0,0.0,0.0,0.0,0.0,0.0,0.0,0.0,0.0,0.0,0.0,0.0,0.0,0.0,0.0,0.0,0.0,0.0,0.0,0.0,0.0,0.0,0.0,0.0,0.0,0.0,0.0,0.0,0.0,0.0,0.0,0.0,0.0,0.0,0.0,0.0,0.0,0.0,0.0,0.0,0.0,0.0,0.0,0.0,0.0,0.0,0.0,0.0,0.0,0.0,0.0,0.0,0.0,0.0,0.0,0.0,0.0,0.0,0.0,0.0,0.0,0.0,0.0,0.0,0.0,0.0,0.0,0.0,0.0,0.0,0.0,0.0,0.0,0.0,0.0,0.0,0.0,0.0,0.0,0.0,0.0,0.0,0.0,0.0,0.0,0.0,0.0,0.0,0.0,0.0,0.0,0.0,0.0,0.0,0.0,-1.7337,0.0,-1.7777,0.0,-1.79,-1.7354,0.0,0.0,0.0,0.0,0.0,0.0,0.0,0.0,0.0,0.0,0.0,0.0,0.0,0.0,0.0,0.0,0.0,0.0,0.0,0.0,0.0,0.0,0.0,0.0,0.0,0.0,0.0,0.0,0.0,0.0,0.0,0.0,0.0,0.0,0.0,0.0,0.0,0.0,0.0,0.0,0.0,0.0,0.0,0.0,0.0,0.0,0.0,0.0,0.0,0.0,0.0,0.0,0.0,0.0,0.0,0.0,0.0,0.0,0.0,0.0,0.0,0.0,0.0,0.0,0.0,0.0,0.0,0.0,0.0,0.0,0.0,0.0,0.0,0.0,0.0,0.0,0.0,0.0,0.0,0.0,0.0,0.0,0.0,0.0,0.0,0.0,0.0,0.0,0.0,0.0,0.0,0.0,0.0,0.0,0.0,0.0,0.0,0.0,0.0,0.0,0.0,0.0,0.0,0.0,0.0,0.0,0.0,0.0,-1.693,-1.7191,-1.7455,-1.7589,-1.7601,-1.7732,-1.7434,0.0,0.0,0.0,0.0,0.0,0.0,0.0,0.0,0.0,0.0,0.0,0.0,0.0,0.0,0.0,0.0,0.0,0.0,0.0,0.0,0.0,0.0,0.0,0.0,0.0,0.0,0.0,0.0,0.0,0.0,0.0,0.0,0.0,0.0,0.0,0.0,0.0,0.0,0.0,0.0,0.0,0.0,0.0,0.0,0.0,0.0,0.0,0.0,0.0,0.0,0.0,0.0,0.0,0.0,0.0,0.0,0.0,0.0,0.0,0.0,0.0,0.0,0.0,0.0,0.0,0.0,0.0,0.0,0.0,0.0,0.0,0.0,0.0,0.0,0.0,0.0,0.0,0.0,0.0,0.0,0.0,0.0,0.0,0.0,0.0,0.0,0.0,0.0,0.0,0.0,0.0,0.0,0.0,0.0,0.0,0.0,0.0,0.0,0.0,0.0,0.0,0.0,0.0,0.0,0.0,0.0,0.0,0.0,0.0,-1.6989,-1.7216,-1.7337,-1.7389,-1.7484,-1.7186,0.0,0.0,0.0,0.0,0.0,0.0,0.0,0.0,0.0,0.0,0.0,0.0,0.0,0.0,0.0,0.0,0.0,0.0,0.0,0.0,0.0,0.0,0.0,0.0,0.0,0.0,0.0,0.0,0.0,0.0,0.0,0.0,0.0,0.0,0.0,0.0,0.0,0.0,0.0,0.0,0.0,0.0,0.0,0.0,0.0,0.0,0.0,0.0,0.0,0.0,0.0,0.0,0.0,0.0,0.0,0.0,0.0,0.0,0.0,0.0,0.0,0.0,0.0,0.0,0.0,0.0,0.0,0.0,0.0,0.0,0.0,0.0,0.0,0.0,0.0,0.0,0.0,0.0,0.0,0.0,0.0,0.0,0.0,0.0,0.0,0.0,0.0,0.0,0.0,0.0,0.0,0.0,0.0,0.0,0.0,0.0,0.0,0.0,0.0,0.0,0.0,0.0,0.0,0.0,0.0,0.0,0.0,0.0,0.0,-1.6696,-1.6942,-1.7097,-1.7175,-1.7232,-1.7027,-1.6537,0.0,0.0,0.0,0.0,0.0,0.0,0.0,0.0,0.0,0.0,0.0,0.0,0.0,0.0,0.0,0.0,0.0,0.0,0.0,0.0,0.0,0.0,0.0,0.0,0.0,0.0,0.0,0.0,0.0,0.0,0.0,0.0,0.0,0.0,0.0,0.0,0.0,0.0,0.0,0.0,0.0,0.0,0.0,0.0,0.0,0.0,0.0,0.0,0.0,0.0,0.0,0.0,0.0,0.0,0.0,0.0,0.0,0.0,0.0,0.0,0.0,0.0,0.0,0.0,0.0,0.0,0.0,0.0,0.0,0.0,0.0,0.0,0.0,0.0,0.0,0.0,0.0,0.0,0.0,0.0,0.0,0.0,0.0,0.0,0.0,0.0,0.0,0.0,0.0,0.0,0.0,0.0,0.0,0.0,0.0,0.0,0.0,0.0,0.0,0.0,0.0,0.0,0.0,0.0,0.0,0.0,0.0,0.0,-1.6384,-1.6649,-1.6847,-1.7001,-1.7,-1.6968,0.0,0.0,0.0,0.0,0.0,0.0,0.0,0.0,0.0,0.0,0.0,0.0,0.0,0.0,0.0,0.0,0.0,0.0,0.0,0.0,0.0,0.0,0.0,0.0,0.0,0.0,0.0,0.0,0.0,0.0,0.0,0.0,0.0,0.0,0.0,0.0,0.0,0.0,0.0,0.0,0.0,0.0,0.0,0.0,0.0,0.0,0.0,0.0,0.0,0.0,0.0,0.0,0.0,0.0,0.0,0.0,0.0,0.0,0.0,0.0,0.0,0.0,0.0,0.0,0.0,0.0,0.0,0.0,0.0,0.0,0.0,0.0,0.0,0.0,0.0,0.0,0.0,0.0,0.0,0.0,0.0,0.0,0.0,0.0,0.0,0.0,0.0,0.0,0.0,0.0,0.0,0.0,0.0,0.0,0.0,0.0,0.0,0.0,0.0,0.0,0.0,0.0,0.0,0.0,0.0,0.0,0.0,0.0,0.0,-1.6179,-1.6382,-1.6639,-1.6905,-1.6831,-1.676,0.0,0.0,0.0,0.0,0.0,0.0,0.0,0.0,0.0,0.0,0.0,0.0,0.0,0.0,0.0,0.0,0.0,0.0,0.0,0.0,0.0,0.0,0.0,0.0,0.0,0.0,0.0,0.0,0.0,0.0,0.0,0.0,0.0,0.0,0.0,0.0,0.0,0.0,0.0,0.0,0.0,0.0,0.0,0.0,0.0,0.0,0.0,0.0,0.0,0.0,0.0,0.0,0.0,0.0,0.0,0.0,0.0,0.0,0.0,0.0,0.0,0.0,0.0,0.0,0.0,0.0,0.0,0.0,0.0,0.0,0.0,0.0,0.0,0.0,0.0,0.0,0.0,0.0,0.0,0.0,0.0,0.0,0.0,0.0,0.0,0.0,0.0,0.0,0.0,0.0,0.0,0.0,0.0,0.0,0.0,0.0,0.0,0.0,0.0,0.0,0.0,0.0,0.0,0.0,0.0,0.0,0.0,0.0,-1.597,-1.6109,-1.626,-1.6477,-1.6717,-1.6646,-1.6607,0.0,0.0,0.0,0.0,0.0,0.0,0.0,0.0,0.0,0.0,0.0,0.0,0.0,0.0,0.0,0.0,0.0,0.0,0.0,0.0,0.0,0.0,0.0,0.0,0.0,0.0,0.0,0.0,0.0,0.0,0.0,0.0,0.0,0.0,0.0,0.0,0.0,0.0,0.0,0.0,0.0,0.0,0.0,0.0,0.0,0.0,0.0,0.0,0.0,0.0,0.0,0.0,0.0,0.0,0.0,0.0,0.0,0.0,0.0,0.0,0.0,0.0,0.0,0.0,0.0,0.0,0.0,0.0,0.0,0.0,0.0,0.0,0.0,0.0,0.0,0.0,0.0,0.0,0.0,0.0,0.0,0.0,0.0,0.0,0.0,0.0,0.0,0.0,0.0,0.0,0.0,0.0,0.0,0.0,0.0,0.0,0.0,0.0,0.0,0.0,0.0,0.0,0.0,0.0,0.0,0.0,0.0,0.0,-1.5956,-1.6095,-1.6232,-1.6353,-1.6474,-1.6488,-1.6463,0.0,0.0,0.0,0.0,0.0,0.0,0.0,0.0,0.0,0.0,0.0,0.0,0.0,0.0,0.0,0.0,0.0,0.0,0.0,0.0,0.0,0.0,0.0,0.0,0.0,0.0,0.0,0.0,0.0,0.0,0.0,0.0,0.0,0.0,0.0,0.0,0.0,0.0,0.0,0.0,0.0,0.0,0.0,0.0,0.0,0.0,0.0,0.0,0.0,0.0,0.0,0.0,0.0,0.0,0.0,0.0,0.0,0.0,0.0,0.0,0.0,0.0,0.0,0.0,0.0,0.0,0.0,0.0,0.0,0.0,0.0,0.0,0.0,0.0,0.0,0.0,0.0,0.0,0.0,0.0,0.0,0.0,0.0,0.0,0.0,0.0,0.0,0.0,0.0,0.0,0.0,0.0,0.0,0.0,0.0,0.0,0.0,0.0,0.0,0.0,0.0,0.0,0.0,0.0,0.0,0.0,0.0,0.0,-1.5927,-1.601,-1.6246,-1.6382,-1.6423,-1.6369,-1.6369,0.0,0.0,0.0,0.0,0.0,0.0,0.0,0.0,0.0,0.0,0.0,0.0,0.0,0.0,0.0,0.0,0.0,0.0,0.0,0.0,0.0,0.0,0.0,0.0,0.0,0.0,0.0,0.0,0.0,0.0,0.0,0.0,0.0,0.0,0.0,0.0,0.0,0.0,0.0,0.0,0.0,0.0,0.0,0.0,0.0,0.0,0.0,0.0,-0.9735,0.0,0.0,0.0,0.0,0.0,0.0,0.0,0.0,0.0,0.0,0.0,0.0,0.0,0.0,0.0,0.0,0.0,0.0,0.0,0.0,0.0,0.0,0.0,0.0,0.0,0.0,0.0,0.0,0.0,0.0,0.0,0.0,0.0,0.0,0.0,0.0,0.0,0.0,0.0,0.0,0.0,0.0,0.0,0.0,0.0,0.0,0.0,0.0,0.0,0.0,0.0,0.0,0.0,0.0,0.0,0.0,0.0,0.0,0.0,-1.5955,-1.601,-1.6232,-1.6355,-1.6396,-1.6355,-1.6355,0.0,0.0,0.0,0.0,0.0,0.0,0.0,0.0,0.0,0.0,0.0,0.0,0.0,0.0,0.0,0.0,0.0,0.0,0.0,0.0,0.0,0.0,0.0,0.0,0.0,0.0,0.0,0.0,0.0,0.0,0.0,0.0,0.0,0.0,0.0,0.0,0.0,0.0,0.0,0.0,0.0,0.0,0.0,0.0,0.0,0.0,0.0,0.0,0.0,0.0,0.0,0.0,0.0,0.0,0.0,0.0,0.0,0.0,0.0,0.0,0.0,0.0,0.0,0.0,0.0,0.0,0.0,0.0,0.0,0.0,0.0,0.0,0.0,0.0,0.0,0.0,0.0,0.0,0.0,0.0,0.0,0.0,0.0,0.0,0.0,0.0,0.0,0.0,0.0,0.0,0.0,0.0,0.0,0.0,0.0,0.0,0.0,0.0,0.0,0.0,0.0,0.0,0.0,0.0,0.0,0.0,0.0,-1.584,-1.5982,-1.5996,-1.6205,-1.6342,-1.6382,-1.6425,-1.6458,-1.6538,0.0,0.0,0.0,0.0,0.0,0.0,0.0,0.0,0.0,0.0,0.0,0.0,0.0,0.0,0.0,0.0,0.0,0.0,0.0,0.0,0.0,0.0,0.0,0.0,0.0,0.0,0.0,0.0,0.0,0.0,0.0,0.0,0.0,0.0,0.0,0.0,0.0,0.0,-0.8453,-0.9529,0.0,0.0,0.0,0.0,0.0,0.0,0.0,0.0,-1.1456,0.0,0.0,0.0,0.0,0.0,0.0,0.0,0.0,0.0,0.0,0.0,0.0,0.0,0.0,0.0,0.0,0.0,0.0,0.0,0.0,0.0,0.0,0.0,0.0,0.0,0.0,0.0,0.0,0.0,0.0,0.0,0.0,0.0,0.0,0.0,0.0,0.0,0.0,0.0,0.0,0.0,0.0,0.0,0.0,0.0,0.0,0.0,0.0,0.0,0.0,0.0,0.0,0.0,0.0,0.0,0.0,-1.5492,-1.5826,-1.5982,-1.5996,-1.6246,-1.6398,-1.6396,-1.6463,-1.6714,-1.7178,0.0,0.0,0.0,0.0,0.0,0.0,0.0,0.0,0.0,0.0,0.0,0.0,0.0,0.0,0.0,0.0,0.0,0.0,0.0,0.0,0.0,0.0,0.0,0.0,0.0,0.0,0.0,0.0,0.0,0.0,0.0,0.0,0.0,0.0,0.0,0.0,0.0,0.0,0.0,-0.9992,-1.087,0.0,0.0,0.0,0.0,0.0,0.0,0.0,0.0,-1.156,0.0,0.0,0.0,0.0,0.0,0.0,0.0,0.0,0.0,0.0,0.0,0.0,0.0,0.0,0.0,0.0,0.0,0.0,0.0,0.0,0.0,0.0,0.0,0.0,0.0,0.0,0.0,0.0,0.0,0.0,0.0,0.0,0.0,0.0,0.0,0.0,0.0,0.0,0.0,0.0,0.0,0.0,0.0,0.0,0.0,0.0,0.0,0.0,0.0,0.0,0.0,0.0,0.0,0.0,0.0,-1.5492,-1.5826,-1.5982,-1.5996,-1.6275,-1.6396,-1.6396,-1.6503,-1.6844,0.0,0.0,0.0,0.0,0.0,0.0,0.0,0.0,0.0,0.0,0.0,0.0,0.0,0.0,0.0,0.0,0.0,0.0,0.0,0.0,0.0,0.0,0.0,0.0,0.0,0.0,0.0,0.0,0.0,0.0,0.0,0.0,0.0,0.0,0.0,0.0,0.0,0.0,0.0,0.0,-1.099,-1.1665,-1.2459,0.0,0.0,0.0,0.0,0.0,0.0,-1.2428,-1.2127,0.0,0.0,0.0,0.0,0.0,0.0,0.0,0.0,0.0,0.0,0.0,0.0,0.0,0.0,0.0,0.0,0.0,0.0,0.0,0.0,0.0,0.0,0.0,0.0,0.0,0.0,0.0,0.0,0.0,0.0,0.0,0.0,0.0,0.0,0.0,0.0,0.0,0.0,0.0,0.0,0.0,0.0,0.0,0.0,0.0,0.0,0.0,0.0,0.0,0.0,0.0,0.0,0.0,0.0,0.0,-1.5536,-1.5812,-1.5983,-1.5996,-1.6262,-1.6382,-1.6423,-1.657,-1.702,0.0,0.0,0.0,0.0,0.0,0.0,0.0,0.0,0.0,0.0,0.0,0.0,0.0,0.0,0.0,0.0,0.0,0.0,0.0,0.0,0.0,0.0,0.0,0.0,0.0,0.0,0.0,0.0,0.0,0.0,0.0,0.0,0.0,0.0,0.0,0.0,0.0,0.0,0.0,0.0,0.0,-1.2565,-1.3376,-1.3583,0.0,0.0,0.0,0.0,-1.3211,-1.2964,0.0,0.0,0.0,0.0,0.0,0.0,0.0,0.0,0.0,0.0,0.0,0.0,0.0,0.0,0.0,0.0,0.0,0.0,0.0,0.0,0.0,0.0,0.0,0.0,0.0,0.0,0.0,0.0,0.0,0.0,0.0,0.0,0.0,0.0,0.0,0.0,0.0,0.0,0.0,0.0,0.0,0.0,0.0,0.0,0.0,0.0,0.0,0.0,0.0,0.0,0.0,0.0,0.0,0.0,0.0,0.0,-1.558,-1.5799,-1.5927,-1.601,-1.6205,-1.6369,-1.6488,-1.6662,-1.7336,0.0,0.0,0.0,0.0,0.0,0.0,0.0,0.0,0.0,0.0,0.0,0.0,0.0,0.0,0.0,0.0,0.0,0.0,0.0,0.0,0.0,0.0,0.0,0.0,0.0,0.0,0.0,0.0,0.0,0.0,0.0,0.0,0.0,0.0,0.0,0.0,0.0,0.0,0.0,0.0,0.0,-1.3457,-1.4315,-1.4541,-1.4872,0.0,0.0,0.0,-1.3977,-1.3372,0.0,0.0,0.0,0.0,0.0,0.0,0.0,0.0,0.0,0.0,0.0,0.0,0.0,0.0,0.0,0.0,0.0,0.0,0.0,0.0,0.0,0.0,0.0,0.0,0.0,0.0,0.0,0.0,0.0,0.0,0.0,0.0,0.0,0.0,0.0,0.0,0.0,0.0,0.0,0.0,0.0,0.0,0.0,0.0,0.0,0.0,0.0,0.0,0.0,0.0,0.0,0.0,0.0,0.0,0.0,-1.5463,-1.561,-1.5827,-1.5969,-1.5996,-1.6232,-1.6409,-1.6501,-1.6704,-1.7438,0.0,0.0,0.0,0.0,0.0,0.0,0.0,0.0,0.0,0.0,0.0,0.0,0.0,0.0,0.0,0.0,0.0,0.0,0.0,0.0,0.0,0.0,0.0,0.0,0.0,0.0,0.0,0.0,0.0,0.0,0.0,0.0,0.0,0.0,0.0,0.0,0.0,0.0,0.0,0.0,0.0,0.0,-1.5176,-1.5365,0.0,0.0,0.0,-1.5314,-1.4323,0.0,0.0,0.0,0.0,0.0,0.0,0.0,0.0,0.0,0.0,0.0,0.0,0.0,0.0,0.0,0.0,0.0,0.0,0.0,0.0,0.0,0.0,0.0,0.0,0.0,0.0,0.0,0.0,0.0,0.0,0.0,0.0,0.0,0.0,0.0,0.0,0.0,0.0,0.0,0.0,0.0,0.0,0.0,0.0,0.0,0.0,0.0,0.0,0.0,0.0,0.0,0.0,0.0,0.0,0.0,0.0,0.0,-1.5682,-1.587,-1.5997,-1.6024,-1.6262,-1.6407,-1.6528,-1.6717,0.0,0.0,0.0,0.0,0.0,0.0,0.0,0.0,0.0,0.0,0.0,0.0,0.0,0.0,0.0,0.0,0.0,0.0,0.0,0.0,0.0,0.0,0.0,0.0,0.0,0.0,0.0,-1.0623,0.0,0.0,0.0,0.0,0.0,0.0,0.0,0.0,0.0,0.0,0.0,0.0,0.0,0.0,-1.5159,-1.5781,-1.5942,-1.6012,0.0,0.0,-1.586,-1.4748,-1.4395,-1.3891,0.0,0.0,0.0,0.0,0.0,0.0,0.0,0.0,0.0,0.0,0.0,0.0,0.0,0.0,0.0,0.0,0.0,0.0,0.0,0.0,0.0,0.0,0.0,0.0,0.0,0.0,0.0,0.0,0.0,0.0,0.0,0.0,0.0,0.0,0.0,0.0,0.0,0.0,0.0,0.0,0.0,0.0,0.0,0.0,0.0,0.0,0.0,0.0,0.0,0.0,0.0,0.0,0.0,0.0,0.0,-1.587,-1.5914,-1.597,-1.6095,-1.6232,-1.6409,-1.6581,-1.6785,-1.727,0.0,0.0,0.0,0.0,0.0,0.0,0.0,0.0,0.0,0.0,0.0,0.0,0.0,0.0,0.0,0.0,0.0,0.0,0.0,0.0,0.0,0.0,0.0,0.0,0.0,0.0,0.0,0.0,0.0,0.0,0.0,0.0,0.0,0.0,0.0,0.0,0.0,0.0,0.0,0.0,0.0,-1.5882,-1.6053,-1.6139,-1.6208,0.0,0.0,-1.6133,-1.543,-1.4787,-1.4335,-1.4183,0.0,0.0,0.0,0.0,0.0,0.0,0.0,0.0,0.0,0.0,0.0,0.0,0.0,0.0,0.0,0.0,0.0,0.0,0.0,0.0,0.0,0.0,0.0,0.0,0.0,0.0,0.0,0.0,0.0,0.0,0.0,0.0,0.0,0.0,0.0,0.0,0.0,0.0,0.0,0.0,0.0,0.0,0.0,0.0,0.0,0.0,0.0,0.0,0.0,0.0,0.0,0.0,0.0,-1.5799,-1.597,-1.5983,-1.6053,-1.6166,-1.6289,-1.6463,-1.6644,-1.6824,-1.7264,0.0,0.0,0.0,0.0,0.0,0.0,0.0,0.0,0.0,0.0,0.0,0.0,0.0,0.0,0.0,0.0,0.0,0.0,0.0,0.0,0.0,0.0,0.0,0.0,0.0,0.0,0.0,0.0,-1.2416,-1.2359,-1.2678,0.0,0.0,0.0,0.0,0.0,0.0,0.0,0.0,0.0,0.0,-1.6109,-1.6205,-1.6289,0.0,0.0,-1.6407,-1.6228,-1.5556,-1.5252,-1.4935,-1.4491,-1.4627,0.0,0.0,0.0,0.0,0.0,0.0,0.0,0.0,0.0,0.0,0.0,0.0,0.0,0.0,0.0,0.0,0.0,0.0,0.0,0.0,0.0,0.0,0.0,0.0,0.0,0.0,0.0,0.0,0.0,0.0,0.0,0.0,0.0,0.0,0.0,0.0,0.0,0.0,0.0,0.0,0.0,0.0,0.0,0.0,0.0,0.0,0.0,0.0,0.0,0.0,0.0,0.0,-1.5942,-1.6053,-1.6109,-1.6179,-1.6289,-1.6398,-1.6543,-1.6725,-1.6889,-1.7233,0.0,0.0,0.0,0.0,0.0,0.0,0.0,0.0,0.0,0.0,0.0,0.0,0.0,0.0,0.0,0.0,0.0,0.0,0.0,0.0,0.0,0.0,0.0,0.0,0.0,0.0,0.0,0.0,-1.3684,-1.3698,-1.3752,0.0,0.0,0.0,0.0,0.0,0.0,0.0,0.0,0.0,0.0,-1.6291,-1.6328,-1.6382,-1.6421,-1.6407,-1.6514,-1.6423,-1.5953,-1.5697,-1.5448,-1.5172,0.0,0.0,0.0,0.0,0.0,0.0,0.0,0.0,0.0,0.0,0.0,0.0,0.0,0.0,0.0,0.0,0.0,0.0,0.0,0.0,0.0,0.0,0.0,0.0,0.0,0.0,0.0,0.0,0.0,0.0,-1.6285,0.0,0.0,0.0,0.0,0.0,0.0,0.0,0.0,0.0,0.0,0.0,0.0,0.0,0.0,0.0,0.0,0.0,0.0,0.0,0.0,0.0,0.0,0.0,-1.6223,-1.6225,-1.6318,-1.6488,-1.657,-1.6659,-1.6818,-1.7003,-1.7153,-1.7268,0.0,0.0,0.0,0.0,0.0,0.0,0.0,0.0,0.0,0.0,0.0,0.0,0.0,0.0,0.0,0.0,0.0,0.0,0.0,0.0,0.0,0.0,0.0,0.0,0.0,0.0,-1.4858,-1.4806,-1.4767,0.0,0.0,0.0,0.0,0.0,0.0,0.0,0.0,0.0,0.0,-1.6316,-1.6398,-1.6398,-1.6448,-1.6514,-1.6485,-1.6662,-1.6798,-1.6753,-1.6168,-1.5895,0.0,0.0,0.0,0.0,0.0,0.0,0.0,0.0,0.0,0.0,0.0,0.0,0.0,0.0,0.0,0.0,0.0,0.0,0.0,0.0,0.0,0.0,0.0,0.0,0.0,0.0,0.0,-1.8625,-1.8433,0.0,0.0,0.0,0.0,0.0,0.0,0.0,0.0,0.0,0.0,0.0,-1.8944,-1.8928,0.0,0.0,0.0,0.0,0.0,0.0,0.0,0.0,0.0,0.0,0.0,0.0,-1.7433,-1.7086,-1.7113,-1.6948,-1.6599,-1.6633,-1.6763,-1.7003,-1.7491,-1.8055,-1.865,0.0,0.0,0.0,0.0,0.0,0.0,0.0,0.0,0.0,0.0,0.0,0.0,0.0,0.0,0.0,0.0,0.0,0.0,0.0,0.0,0.0,0.0,0.0,0.0,0.0,-1.5786,0.0,0.0,0.0,0.0,0.0,0.0,0.0,0.0,0.0,0.0,0.0,-1.6287,-1.6465,-1.6503,-1.6586,-1.6707,-1.6759,-1.6756,0.0,0.0,0.0,0.0,0.0,0.0,0.0,0.0,0.0,0.0,0.0,0.0,0.0,0.0,-1.6237,-1.5764,-1.5635,-1.5463,-1.4999,0.0,0.0,0.0,0.0,0.0,0.0,0.0,0.0,0.0,0.0,0.0,0.0,0.0,0.0,0.0,0.0,-1.9427,0.0,0.0,0.0,0.0,0.0,0.0,0.0,0.0,-1.9874,-1.9887,-1.9903,-1.9903,-1.9859,0.0,-1.9756,-1.9574,0.0,0.0,0.0,0.0,0.0,0.0,0.0,0.0,-1.8279,-1.7931,-1.8031,-1.7894,-1.7529,-1.7578,-1.7697,-1.7906,-1.8395,-1.8906,-1.9405,-1.8976,-1.8519,0.0,0.0,0.0,0.0,0.0,0.0,0.0,0.0,0.0,0.0,0.0,0.0,0.0,0.0,0.0,0.0,0.0,0.0,0.0,0.0,0.0,0.0,0.0,-1.6369,0.0,0.0,0.0,0.0,0.0,0.0,0.0,0.0,0.0,-1.638,-1.6407,-1.6472,-1.662,-1.6662,-1.6743,-1.6879,0.0,0.0,0.0,0.0,0.0,0.0,0.0,-1.6946,-1.6946,-1.6834,-1.6766,-1.6766,-1.6743,-1.6675,-1.6662,0.0,0.0,-1.6275,-1.6163,-1.6095,-1.5882,-1.5769,-1.5653,-1.5477,-1.527,-1.509,0.0,0.0,0.0,0.0,0.0,0.0,0.0,0.0,-2.1385,-2.1055,0.0,-2.0464,0.0,0.0,0.0,0.0,0.0,0.0,0.0,0.0,-2.1463,-2.1604,-2.1573,-2.1556,-2.1527,-2.1402,-2.1308,-2.1246,-2.1135,-2.021,0.0,0.0,0.0,0.0,0.0,0.0,-1.8696,-1.8739,-1.8931,-1.909,-1.9153,-1.9235,-1.9337,-1.9441,-1.9634,-1.9707,-1.961,-1.9694,-1.9277,-1.8297,-1.8153,0.0,0.0,0.0,0.0,0.0,0.0,0.0,0.0,0.0,0.0,0.0,0.0,0.0,0.0,0.0,0.0,0.0,0.0,0.0,0.0,-1.6779,0.0,0.0,0.0,0.0,0.0,0.0,0.0,0.0,0.0,0.0,-1.6567,-1.663,-1.6709,-1.6709,0.0,0.0,0.0,0.0,-1.6905,-1.6905,-1.6972,-1.7026,-1.7014,-1.701,-1.7026,-1.7026,0.0,0.0,-1.6921,-1.6905,-1.6934,-1.6985,-1.6998,-1.6895,-1.6506,-1.6423,-1.6342,-1.6165,-1.6109,-1.601,-1.5782,-1.5681,-1.558,-2.2712,0.0,0.0,0.0,0.0,-2.1511,-2.1527,-2.1574,-2.1648,-2.1592,-2.1424,-2.1409,0.0,0.0,0.0,0.0,0.0,0.0,-2.1332,-2.1511,-2.1574,-2.1604,-2.1604,-2.1604,-2.1589,-2.1526,-2.1511,-2.1512,-2.1465,-2.1037,-2.0751,-2.0575,0.0,0.0,0.0,0.0,-2.0161,-1.9741,-1.9845,-1.9706,-1.9284,-1.9424,-1.9825,-2.0462,-2.0577,-2.0838,-2.1275,-2.0769,-2.0116,-1.9323,-1.8654,0.0,0.0,0.0,0.0,0.0,0.0,0.0,0.0,0.0,0.0,0.0,0.0,0.0,0.0,0.0,0.0,0.0,0.0,0.0,-1.6908,-1.6905,-1.6902,0.0,0.0,0.0,0.0,0.0,0.0,0.0,0.0,0.0,-1.7003,-1.6946,-1.6942,0.0,0.0,-1.7137,-1.7183,-1.7183,-1.7183,-1.7183,0.0,0.0,0.0,-1.7195,-1.7224,-1.7224,-1.7195,-1.717,-1.7124,-1.7145,-1.717,-1.7149,-1.7183,-1.7162,-1.6993,-1.6815,-1.6633,-1.6503,-1.6423,-1.6367,-1.6299,-1.619,-1.6107,-2.3768,-2.2643,-2.2645,-2.2599,-2.2567,-2.2566,-2.2582,-2.2614,-2.2737,-2.2781,-2.2781,-2.2797,-2.2601,-2.224,-2.181,0.0,0.0,0.0,-2.1649,-2.1663,-2.1708,-2.1754,-2.1736,-2.1723,-2.1708,-2.1724,-2.1664,-2.1634,-2.1634,-2.1496,-2.1341,-2.1166,0.0,0.0,-2.1039,-2.1151,-2.102,-2.0631,-2.0798,-2.069,-2.0303,-2.0461,-2.0819,-2.1303,-2.141,-2.1642,-2.1979,-2.1582,-2.0991,-2.016,-1.9346,-1.8557,0.0,0.0,0.0,0.0,0.0,0.0,0.0,0.0,0.0,0.0,0.0,-1.6934,0.0,0.0,0.0,0.0,-1.6998,-1.7023,-1.7023,-1.7074,0.0,0.0,0.0,0.0,0.0,0.0,0.0,-1.7633,-1.7453,-1.7326,-1.7314,-1.7281,-1.7232,-1.7232,-1.7248,-1.7261,-1.731,0.0,-1.7293,-1.7293,-1.7293,-1.7293,-1.7293,-1.7306,-1.7314,-1.7321,-1.7338,-1.7338,-1.7289,-1.7314,-1.7338,-1.7321,-1.7341,-1.7361,-1.7325,-1.7175,-1.7014,-1.6853,-1.676,-1.6722,-1.6683,-1.6591,-1.6541,-2.4913,-2.4297,-2.4215,-2.4133,-2.4033,-2.4081,-2.4097,-2.4114,-2.4242,-2.4323,-2.4289,-2.4306,-2.3858,-2.3065,-2.2263,0.0,-2.1831,-2.1875,-2.195,-2.1993,-2.2065,-2.2124,-2.218,-2.2124,-2.2111,-2.208,-2.1913,-2.1822,-2.1807,-2.1682,-2.1635,-2.1603,-2.1388,-2.1246,-2.1247,-2.1371,-2.1433,-2.1416,-2.166,-2.1827,-2.1825,-2.1957,-2.2044,-2.201,-2.2166,-2.2152,-2.2027,-2.2137,-2.1773,-2.085,-2.0173,-1.9432,-1.8568,0.0,0.0,0.0,0.0,0.0,0.0,0.0,0.0,0.0,0.0,0.0,0.0,0.0,0.0,0.0,-1.7128,0.0,-1.7203,-1.7273,0.0,0.0,0.0,-1.8674,-1.9524,-1.8963,-1.8542,-1.8614,0.0,0.0,-1.7521,0.0,-1.7559,-1.7366,-1.7346,-1.733,-1.7314,-1.733,-1.7314,-1.7342,-1.733,-1.733,-1.7354,-1.7362,-1.7365,-1.7413,-1.7408,-1.7408,-1.7425,-1.742,-1.7444,-1.7486,-1.7521,-1.7532,-1.7532,-1.7521,-1.7462,-1.7207,-1.715,-1.7089,-1.696,-1.6952,-1.6914,-2.6083,-2.5915,-2.5932,-2.5263,-2.4227,-2.4242,-2.4258,-2.4274,-2.4337,-2.4384,-2.4385,-2.4368,-2.4237,-2.3974,-2.3775,-2.3677,-2.3645,-2.3676,-2.3708,-2.3707,-2.3723,-2.3738,-2.3754,-2.3738,-2.3738,-2.3689,-2.3125,-2.2844,-2.281,-2.2152,-2.1842,-2.1825,-2.1766,-2.1663,-2.1512,-2.1588,-2.1646,-2.1723,-2.1825,-2.1974,-2.2166,-2.2206,-2.2248,-2.229,-2.2335,-2.2307,-2.222,-2.2228,-2.1832,-2.1079,-2.081,-2.0097,-1.8793,-1.8513,0.0,0.0,0.0,0.0,0.0,0.0,0.0,0.0,0.0,-1.7153,-1.7124,0.0,-1.7099,0.0,-1.7149,-1.7203,-1.7203,-1.7298,0.0,0.0,-1.8576,-1.8926,-1.9736,-1.9705,-1.9391,-1.8804,-1.8646,-1.8345,-1.7794,-1.7738,-1.7732,-1.7686,-1.7594,-1.7536,-1.7536,-1.7519,-1.7536,-1.7524,-1.7507,-1.7536,-1.7536,-1.7519,-1.7526,-1.7554,-1.7554,-1.7554,-1.7554,-1.7595,-1.763,-1.7653,-1.7732,-1.7788,-1.7805,-1.7856,-1.7845,-1.7726,-1.7514,-1.7325,-1.7301,-1.7288,-1.7276,-2.6555,-2.6606,-2.6657,-2.6218,-2.5507,-2.541,-2.5344,-2.5329,-2.5442,-2.5474,-2.5408,-2.5039,-2.4873,-2.4791,-2.4457,-2.4289,-2.4289,-2.4289,-2.4322,-2.4353,-2.4353,-2.4352,-2.44,-2.4352,-2.4353,-2.4337,-2.3887,-2.3519,-2.3185,-2.2705,-2.2291,-2.1955,-2.194,-2.1899,-2.1781,-2.1811,-2.1855,-2.1882,-2.2017,-2.2178,-2.2377,-2.2377,-2.2405,-2.2446,-2.2463,-2.2405,-2.2352,-2.231,-2.2068,-2.1622,-2.123,-2.0663,-1.9819,-1.9156,-1.8764,0.0,0.0,0.0,0.0,0.0,0.0,0.0,0.0,0.0,0.0,0.0,-1.712,0.0,-1.7211,-1.7261,-1.7289,-1.7687,-1.8265,-1.9013,-1.9499,-2.0079,-2.0884,-2.0745,-2.0437,-2.0059,-1.9437,-1.8881,-1.8506,-1.8171,-1.7972,-1.7972,-1.7928,-1.7811,-1.7704,-1.7653,-1.763,-1.763,-1.7624,-1.7612,-1.7618,-1.767,-1.7709,-1.7726,-1.7766,-1.7777,-1.7789,-1.7811,-1.7816,-1.7845,-1.79,-1.7944,-1.7944,-1.7983,-1.8,-1.795,-1.7794,-1.7658,-1.7589,-1.7577,-1.7577,-2.6674,-2.6758,-2.6876,-2.6975,-2.7007,-2.6842,-2.6725,-2.6674,-2.6843,-2.6859,-2.6691,-2.5982,-2.568,-2.5629,-2.4908,-2.4607,-2.4623,-2.459,-2.4638,-2.4685,-2.4685,-2.4733,-2.4778,-2.4733,-2.4701,-2.4669,-2.4538,-2.412,-2.3518,-2.33,-2.288,-2.2192,-2.2092,-2.2056,-2.2041,-2.2056,-2.2056,-2.207,-2.2251,-2.2408,-2.2528,-2.2525,-2.2542,-2.2525,-2.2525,-2.2515,-2.2432,-2.2419,-2.238,-2.2223,-2.1616,-2.1161,-2.0894,-1.9727,-1.9297,0.0,-1.926,0.0,0.0,0.0,0.0,0.0,0.0,0.0,0.0,-1.7174,-1.7145,-1.7211,-1.7351,-1.7478,-1.7555,-1.8336,-1.911,-1.984,-2.0612,-2.1427,-2.2203,-2.181,-2.1473,-2.1511,-2.0279,-1.9389,-1.9301,-1.8702,-1.8253,-1.8236,-1.8215,-1.8123,-1.7933,-1.7828,-1.7783,-1.7738,-1.7692,-1.7704,-1.7749,-1.7783,-1.7845,-1.7911,-1.7933,-1.8011,-1.8,-1.7994,-1.8005,-1.8005,-1.8016,-1.8016,-1.8033,-1.8044,-1.8037,-1.8037,-1.8037,-1.7977,-1.7856,-1.7828,-1.7839,-2.6893,-2.6941,-2.7039,-2.707,-2.7103,-2.7214,-2.7136,-2.6925,-2.6958,-2.6925,-2.6859,-2.6707,-2.6572,-2.6455,-2.632,-2.6235,-2.6235,-2.6252,-2.6252,-2.6285,-2.6269,-2.6268,-2.6285,-2.6252,-2.6285,-2.6218,-2.5644,-2.529,-2.5121,-2.3955,-2.3281,-2.3127,-2.2595,-2.2335,-2.2318,0.0,0.0,0.0,-2.2501,-2.2579,-2.2659,-2.2729,-2.2751,-2.2751,-2.2738,0.0,-2.2569,-2.2552,-2.2528,-2.2446,-2.231,0.0,0.0,0.0,0.0,0.0,0.0,0.0,0.0,0.0,0.0,0.0,-1.7507,-1.737,-1.7359,-1.731,-1.7285,-1.7285,-1.7835,-1.8244,-1.8381,-1.9063,-1.9883,-2.079,-2.1079,-2.1549,-2.2409,-2.2468,-2.2255,-2.1705,-2.0929,-2.0197,-1.9614,-1.8905,-1.8461,-1.8433,-1.8385,-1.8335,-1.8294,-1.8127,-1.8016,-1.7944,-1.7917,-1.7911,-1.795,-1.7961,-1.7961,-1.7983,-1.8,-1.7994,-1.8022,-1.8059,-1.8081,-1.8091,-1.813,-1.8168,-1.8168,-1.8204,-1.8236,-1.8253,-1.8232,-1.8194,-1.8005,-1.7961,-1.7961,-2.7039,0.0,-2.723,-2.7308,0.0,-2.7494,-2.7478,-2.734,-2.7231,-2.712,-2.699,-2.6958,-2.6909,-2.6842,-2.6859,-2.6842,-2.6842,-2.6859,-2.6842,-2.6842,-2.6859,-2.6859,-2.6842,-2.6842,-2.6842,-2.6825,-2.6485,-2.6111,-2.5701,-2.4581,-2.385,-2.351,-2.279,-2.2446,-2.2446,-2.2555,-2.2592,-2.2592,-2.2632,-2.2694,-2.2855,-2.2881,-2.2919,-2.294,0.0,0.0,0.0,0.0,0.0,0.0,0.0,0.0,0.0,0.0,0.0,-1.9213,-1.8819,-1.8574,-1.8546,-1.8433,-1.8177,-1.7783,-1.7947,-1.7979,-1.7852,-1.7868,-1.8054,-1.8409,-1.8836,-1.9129,-1.9256,-1.9969,-2.0649,-2.1143,-2.1632,-2.2141,-2.2577,-2.2764,-2.2742,-2.2399,-2.1814,-2.1105,-2.0364,-1.9621,-1.8986,-1.8616,-1.8516,-1.8477,-1.8435,-1.827,-1.8102,-1.8016,-1.8011,-1.8011,-1.8011,-1.8027,-1.8048,-1.8048,-1.8087,-1.8108,-1.814,-1.8183,-1.8197,-1.8201,-1.8222,-1.826,-1.826,-1.8291,-1.8311,-1.8311,-1.8315,-1.827,-1.8163,-1.8138,-1.814,-2.7437,-2.7499,-2.7687,-2.7897,-2.8077,-2.8137,-2.8164,-2.8132,0.0,0.0,0.0,-2.7055,-2.7007,-2.7008,-2.7008,-2.7008,-2.7008,-2.7008,-2.7008,-2.7008,-2.7008,-2.7008,-2.7008,-2.7008,-2.7008,-2.7008,-2.7008,-2.67,-2.6066,-2.5145,-2.4394,-2.3779,-2.2955,-2.2538,-2.2582,-2.2699,-2.2764,-2.2777,-2.2777,-2.2855,-2.302,-2.3057,-2.3089,-2.3156,-2.3151,-2.3144,-2.3082,-2.3003,-2.2561,-2.1739,-2.1609,-2.1162,-2.0286,-1.9665,-1.9527,-1.9947,-1.9407,-1.9041,-1.9023,-1.8876,-1.8568,-1.8042,-1.8468,-1.8714,-1.8584,-1.8698,-1.8995,-1.9598,-1.989,-2.0056,-2.0139,-2.0901,-2.1434,-2.1491,-2.2219,-2.2712,-2.2777,-2.2902,-2.3028,-2.3061,-2.2494,-2.1845,-2.1075,-2.0274,-1.9538,-1.8855,-1.8658,-1.8611,-1.8495,-1.8332,-1.8176,-1.8081,-1.8087,-1.8048,-1.8037,-1.8091,-1.8123,-1.8145,-1.8194,-1.8218,-1.8288,-1.8308,-1.8311,-1.8297,-1.8318,-1.829,-1.8318,-1.83,-1.8328,-1.831,-1.832,-1.833,-1.833,-1.8342,-1.8308,-2.8453,-2.858,-2.8734,-2.9226,-2.9918,-2.9935,-2.9935,-2.9799,-2.8253,-2.7417,-2.7198,-2.7165,-2.7103,-2.7008,-2.7008,-2.7008,-2.7008,-2.7008,-2.7008,0.0,-2.7008,-2.7008,-2.7008,-2.7008,-2.7008,-2.7008,-2.7008,-2.694,-2.6684,-2.5386,-2.465,-2.4408,-2.3292,-2.2725,-2.2842,-2.2914,-2.2995,-2.3045,-2.3057,-2.307,-2.3095,-2.3253,-2.3336,-2.336,-2.3407,-2.3424,-2.3348,-2.3277,-2.2847,-2.1996,-2.1885,-2.1167,-1.9739,-1.9512,-1.9223,-1.8652,-1.8485,-1.8409,-1.8355,-1.8312,-1.8453,-1.8779,-1.8908,-1.9152,-1.9625,-1.9696,-1.9742,-1.9889,-2.0525,-2.0931,-2.1062,-2.1739,-2.2255,-2.2447,-2.2603,-2.2773,-2.3008,-2.307,-2.3126,-2.3235,-2.2627,-2.1938,-2.1188,-2.0456,-1.9736,-1.9039,-1.8779,-1.8714,-1.8551,-1.8368,-1.8284,-1.8239,-1.8246,-1.8225,-1.8183,-1.8232,-1.8256,-1.8267,-1.8274,-1.8277,-1.8297,-1.8325,-1.8318,-1.831,-1.8328,-1.8338,-1.8328,-1.8348,-1.8378,-1.8396,-1.8418,-1.8458,-1.8465,-1.8443,-1.8393,-2.9493,-2.9634,-2.9804,-3.0104,-3.0529,-3.0576,-3.0532,-3.0406,-2.9609,-2.9062,-2.8763,-2.8619,-2.8522,-2.8473,-2.8389,-2.8356,-2.8338,-2.8338,-2.8132,-2.7772,-2.7771,-2.7565,-2.7171,-2.717,-2.717,-2.7154,-2.717,-2.717,-2.7016,-2.5655,-2.4895,-2.4824,-2.3534,-2.2902,-2.299,-2.3082,-2.3168,-2.3247,-2.3229,-2.3259,-2.3313,-2.3448,-2.351,-2.3555,-2.3607,-2.3589,-2.3555,-2.3505,-2.3079,-2.2256,-2.1742,-2.0933,-1.979,-1.9288,-1.8851,-1.849,-1.8396,-1.8345,-1.8301,-1.8665,-1.9103,-1.9668,-2.0113,-2.064,-2.1251,-2.0889,-2.0826,-2.1218,-2.1627,-2.1881,-2.1908,-2.231,-2.2592,-2.2703,-2.2812,-2.297,-2.3095,-2.3205,-2.3307,-2.333,-2.3121,-2.2482,-2.1314,-2.0885,-2.0198,-1.9192,-1.8834,-1.8751,-1.8676,-1.8545,-1.8428,-1.8335,-1.8311,-1.8284,-1.8281,-1.8274,-1.8294,-1.8322,-1.8307,-1.8328,-1.8338,-1.8365,-1.8396,-1.8445,-1.8445,-1.8465,-1.8467,-1.8497,-1.8506,-1.8506,-1.8526,-1.8563,-1.8563,-1.8526,-1.8467,-3.0521,-3.0643,-3.0832,-3.1043,-3.1246,-3.1333,-3.1275,-3.116,-3.1133,-3.0978,-3.0674,-3.0083,-2.9743,-2.9694,-2.9574,-2.9523,-2.9506,-2.9506,-2.911,-2.8454,-2.8435,-2.8055,-2.7397,-2.7345,-2.7345,-2.7345,-2.7345,-2.7345,-2.7172,-2.5833,-2.4941,-2.4583,-2.3558,-2.3077,-2.3168,-2.3229,-2.3324,-2.3448,-2.343,-2.3441,-2.3517,-2.3607,-2.3685,-2.3732,-2.3747,-2.3775,-2.3747,-2.3689,-2.3268,-2.2506,-2.1803,-2.1044,-2.024,-1.9556,-1.9098,-1.8927,-1.8788,-1.8711,-1.8733,-1.9321,-1.9975,-2.063,-2.1204,-2.1833,-2.2438,-2.2025,-2.1856,-2.2344,-2.2436,-2.2494,-2.2508,-2.2632,-2.2725,-2.2751,-2.294,-2.3107,-2.3156,-2.3289,-2.3424,-2.3459,-2.3522,-2.2987,-2.1711,-2.1295,-2.0668,-1.93,-1.8852,-1.8807,-1.8797,-1.8688,-1.8566,-1.843,-1.8361,-1.8338,-1.8328,-1.83,-1.8328,-1.832,-1.8358,-1.8406,-1.8443,-1.8445,-1.8475,-1.8561,-1.8581,-1.8573,-1.8576,-1.8585,-1.8585,-1.8576,-1.8576,-1.8585,-1.8585,-1.8585,-1.8556,-3.1569,-3.1615,-3.1799,-3.2257,-3.2814,-3.2976,-3.2943,-3.2801,-3.2731,-3.2688,-3.2392,-3.0831,-2.9977,-2.9727,-2.9746,-2.9712,-2.9592,-2.9523,-2.9178,-2.8605,-2.8501,-2.8133,-2.7552,-2.7498,-2.7498,-2.7481,-2.7481,-2.7481,-2.7394,-2.5947,-2.4557,-2.345,-2.3209,-2.3253,-2.336,-2.3448,-2.3505,-2.3573,-2.3696,-2.3689,-2.3607,-2.3696,-2.3785,-2.3813,-2.3925,-2.3966,-2.3955,-2.3855,-2.3441,-2.2735,-2.2471,-2.1975,-2.1189,-2.1,-2.0593,-1.9854,-1.9781,-1.9714,-1.9646,-2.0208,-2.0929,-2.1639,-2.1753,-2.2099,-2.2768,-2.2717,-2.2582,-2.2552,-2.2552,-2.2579,-2.2592,-2.2712,-2.2799,-2.2893,-2.3003,-2.3144,-2.3265,-2.3348,-2.3448,-2.3573,-2.3614,-2.3038,-2.1792,-2.1372,-2.0706,-1.9218,-1.8931,-1.8869,-1.8833,-1.8788,-1.8724,-1.8603,-1.8526,-1.8428,-1.8351,-1.8358,-1.8406,-1.8423,-1.8483,-1.8532,-1.8551,-1.8563,-1.8585,-1.8593,-1.8603,-1.8603,-1.8595,-1.8595,-1.8604,-1.8614,-1.8614,-1.8612,-1.8595,-1.8604,-1.8603,-3.2527,-3.267,-3.2745,-3.2952,-3.3271,-3.3352,-3.3307,-3.3214,-3.3152,-3.306,-3.2846,-3.2078,-3.1588,-3.1288,-3.1168,-3.1098,-3.1028,-3.1046,-3.0647,-2.9917,-2.9532,-2.8953,-2.8285,-2.7807,-2.763,-2.763,-2.7612,-2.763,-2.7382,-2.6125,-2.4694,-2.3418,-2.3372,-2.3471,-2.3528,-2.3629,-2.3689,-2.3707,-2.381,-2.3852,-2.385,-2.3845,-2.3886,-2.3917,-2.3958,-2.3988,-2.3978,-2.3955,-2.3771,-2.3444,-2.2948,-2.2453,-2.2104,-2.1606,-2.1143,-2.0751,-2.0694,-2.0644,-2.0601,-2.1199,-2.1723,-2.2007,-2.2423,-2.2742,-2.2917,-2.2944,-2.285,-2.2764,-2.2681,-2.2689,-2.2708,-2.2799,-2.2906,-2.302,-2.3144,-2.3271,-2.3354,-2.3459,-2.3539,-2.3614,-2.3663,-2.3332,-2.2247,-2.1312,-2.0337,-1.9306,-1.9001,-1.8949,-1.8923,-1.8887,-1.8807,-1.8742,-1.8687,-1.863,-1.8516,-1.8506,-1.8516,-1.8526,-1.8545,-1.8574,-1.8601,-1.8584,-1.8604,-1.8642,-1.8659,-1.8678,-1.8724,-1.8715,-1.8715,-1.8715,-1.8715,-1.8732,-1.8724,-1.8724,-1.8715,-3.3186,-3.3322,-3.3367,-3.3426,-3.3452,-3.3437,-3.3411,-3.3352,-3.3307,-3.3186,-3.3028,-3.2948,-3.2789,-3.2524,-3.2301,-3.2161,-3.2161,-3.2126,-3.1725,-3.0991,-3.0288,-2.9616,-2.8908,-2.8144,-2.7818,-2.7815,-2.7847,-2.7621,-2.7144,-2.6233,-2.4935,-2.3701,-2.3607,-2.3674,-2.3696,-2.3775,-2.3831,-2.3865,-2.3907,-2.3966,-2.4006,-2.3986,-2.3986,-2.4016,-2.4036,-2.4064,-2.4064,-2.4054,-2.4026,-2.4008,-2.3393,-2.3062,-2.3022,-2.2448,-2.1983,-2.1717,-2.164,-2.16,-2.1596,-2.2221,-2.2574,-2.256,-2.3023,-2.3259,-2.3144,-2.3089,-2.3028,-2.294,-2.2855,-2.2803,-2.2812,-2.2881,-2.2957,-2.307,-2.3187,-2.333,-2.3372,-2.3505,-2.3596,-2.3629,-2.3729,-2.3389,-2.2359,-2.1151,-2.0037,-1.9267,-1.9087,-1.9043,-1.9035,-1.8983,-1.8922,-1.887,-1.8852,-1.877,-1.8623,-1.8576,-1.8595,-1.8604,-1.8604,-1.8641,-1.8659,-1.8659,-1.8678,-1.877,-1.8761,-1.8752,-1.8752,-1.8788,-1.8806,-1.8797,-1.8797,-1.8788,-1.8788,-1.8788,-1.8788,-3.3322,-3.3408,-3.352,-3.3577,-3.3591,-3.352,-3.3477,-3.3462,-3.3367,-3.3277,-3.3247,-3.3075,-3.2948,-3.2834,-3.2541,-3.2353,-3.2283,-3.2249,-3.1933,-3.1293,-3.055,-2.9885,-2.9254,-2.8472,-2.8126,-2.8146,-2.816,-2.7411,-2.6073,-2.5892,-2.5141,-2.375,-2.3772,-2.3828,-2.3873,-2.3904,-2.3935,-2.3986,-2.3996,-2.4044,-2.4084,-2.4094,-2.4094,-2.4094,-2.4161,-2.418,-2.417,-2.4123,-2.4094,-2.4075,-2.3953,-2.3905,-2.3923,-2.384,-2.3437,-2.2733,-2.264,-2.2608,-2.2638,-2.3181,-2.353,-2.3506,-2.3468,-2.3441,-2.3372,-2.3313,-2.3229,-2.3107,-2.3033,-2.2957,-2.2932,-2.2919,-2.2957,-2.3033,-2.3193,-2.3307,-2.333,-2.3487,-2.3618,-2.3678,-2.3754,-2.3193,-2.1812,-2.0835,-2.0062,-1.9398,-1.916,-1.9168,-1.9109,-1.9094,-1.9043,-1.8992,-1.8931,-1.8825,-1.8651,-1.8642,-1.8632,-1.8642,-1.8698,-1.8715,-1.877,-1.8824,-1.8852,-1.887,-1.8852,-1.8833,-1.8806,-1.8797,-1.8797,-1.8797,-1.8797,-1.8797,-1.8797,-1.8797,-1.8797,-3.3466,-3.352,-3.3577,-3.3605,-3.3605,-3.3559,-3.3563,-3.353,-3.3481,-3.3411,-3.3334,-3.3229,-3.3137,-3.3008,-3.2852,-3.2673,-3.2522,-3.2557,-3.2465,-3.2122,-3.1011,-3.0353,-3.0055,-2.8885,-2.8318,-2.8327,-2.8362,-2.7574,-2.6207,-2.6122,-2.5355,-2.4085,-2.3884,-2.3935,-2.3976,-2.4006,-2.4036,-2.4074,-2.4094,-2.4123,-2.4161,-2.417,-2.417,-2.4152,-2.4198,-2.4199,-2.4199,-2.418,-2.417,-2.4189,-2.4151,-2.4122,-2.4074,-2.4016,-2.3868,-2.3575,-2.3519,-2.3509,-2.3515,-2.371,-2.3831,-2.3789,-2.3732,-2.3663,-2.3607,-2.3505,-2.3401,-2.3289,-2.3156,-2.3082,-2.3082,-2.3033,-2.3003,-2.3119,-2.3229,-2.333,-2.3401,-2.3533,-2.3667,-2.3693,-2.3761,-2.3238,-2.1942,-2.1271,-2.0615,-1.9449,-1.9184,-1.9192,-1.9176,-1.9178,-1.9135,-1.9084,-1.9041,-1.9007,-1.8967,-1.8843,-1.8798,-1.8789,-1.8807,-1.8825,-1.8869,-1.8887,-1.8905,-1.8896,-1.8896,-1.8878,-1.8824,-1.8797,-1.8797,-1.8797,-1.8797,-1.8797,-1.8797,-1.8797,-1.8797,-3.3591,-3.3633,-3.3661,-3.3671,-3.3675,-3.3647,-3.3629,-3.3615,-3.3563,-3.3491,-3.3466,-3.3408,-3.3349,-3.3223,-3.318,-3.3057,-3.2884,-3.2886,-3.2886,-3.2807,-3.1392,-3.0729,-3.0502,-2.9192,-2.851,-2.8536,-2.8587,-2.7918,-2.6751,-2.6422,-2.5637,-2.4431,-2.418,-2.4054,-2.4074,-2.4122,-2.4141,-2.4151,-2.417,-2.419,-2.4199,-2.4199,-2.4199,-2.4199,-2.4199,-2.4199,-2.4199,-2.4199,-2.4199,-2.4199,-2.4199,-2.417,-2.4123,-2.4085,-2.4075,-2.4075,-2.4085,-2.4085,-2.4066,-2.4008,-2.3996,-2.3947,-2.3894,-2.3839,-2.3736,-2.3649,-2.3538,-2.343,-2.3324,-2.3241,-2.3193,-2.3119,-2.3095,-2.318,-2.3253,-2.3313,-2.3354,-2.3585,-2.3729,-2.3768,-2.3852,-2.317,-2.1934,-2.1662,-2.084,-1.9451,-1.9256,-1.9298,-1.929,-1.9282,-1.9266,-1.9188,-1.9174,-1.9168,-1.9137,-1.9052,-1.8948,-1.894,-1.8869,-1.8886,-1.8922,-1.894,-1.8922,-1.8932,-1.8905,-1.887,-1.8833,-1.8806,-1.8797,-1.8797,-1.8797,-1.8797,-1.8797,-1.8797,-1.8797,-3.3698,-3.3712,-3.3762,-3.3793,-3.378,-3.3726,-3.3698,-3.3684,-3.3615,-3.3605,-3.3591,-3.3591,-3.3534,-3.3509,-3.3448,-3.3452,-3.3331,-3.306,-3.2978,-3.2991,-3.1596,-3.0925,-3.0853,-2.9383,-2.8724,-2.8779,-2.8804,-2.8378,-2.7527,-2.6772,-2.5983,-2.5256,-2.4443,-2.4133,-2.4208,-2.4218,-2.4199,-2.4199,-2.4218,-2.4209,-2.4199,-2.4199,-2.4199,-2.4199,-2.4199,-2.4199,-2.4199,-2.4199,-2.4199,-2.4199,-2.4199,-2.4199,-2.4181,-2.4182,-2.4192,-2.421,-2.4257,-2.4257,-2.4201,-2.419,-2.4142,-2.4103,-2.4036,-2.3955,-2.3873,-2.3803,-2.3725,-2.3567,-2.3505,-2.3418,-2.3265,-2.3205,-2.318,-2.3114,-2.3229,-2.3318,-2.336,-2.3544,-2.3765,-2.3873,-2.3907,-2.3254,-2.2136,-2.167,-2.1063,-1.9929,-1.9449,-1.9468,-1.9453,-1.942,-1.9398,-1.9383,-1.9344,-1.9298,-1.9274,-1.9235,-1.9137,-1.9062,-1.8983,-1.8948,-1.8991,-1.8991,-1.8984,-1.8976,-1.8923,-1.8896,-1.8824,-1.8797,-1.8797,-1.8797,-1.8797,-1.8797,-1.8797,-1.8797,-1.8797,-3.378,-3.378,-3.3775,-3.3807,-3.3788,-3.3762,-3.3766,-3.3748,-3.3684,-3.3657,-3.3657,-3.3633,-3.3591,-3.3577,-3.3563,-3.3591,-3.355,-3.2974,-3.2631,-3.2422,-3.1538,-3.0828,-3.023,-2.9283,-2.881,-2.8839,-2.887,-2.8496,-2.7794,-2.7016,-2.6221,-2.5425,-2.4652,-2.4275,-2.4247,-2.4266,-2.4275,-2.4257,-2.4266,-2.4257,-2.421,-2.4201,-2.42,-2.4199,-2.4199,-2.4199,-2.4199,-2.4199,-2.4199,-2.4199,-2.4199,-2.4209,-2.4201,-2.4192,-2.4238,-2.4248,-2.4284,-2.4294,-2.4275,-2.4275,-2.4266,-2.4228,-2.4171,-2.4113,-2.4064,-2.3937,-2.3834,-2.3725,-2.366,-2.3567,-2.3448,-2.336,-2.3289,-2.3193,-2.3253,-2.3348,-2.3441,-2.3638,-2.3792,-2.3904,-2.3986,-2.3571,-2.2758,-2.2216,-2.142,-2.0398,-1.9845,-1.9578,-1.9548,-1.9515,-1.9475,-1.9468,-1.9442,-1.9442,-1.9401,-1.936,-1.9272,-1.9194,-1.9101,-1.9016,-1.9042,-1.906,-1.9035,-1.8984,-1.894,-1.8905,-1.8833,-1.8797,-1.8797,-1.8797,-1.8797,-1.8797,-1.8797,-1.8797,-1.8797,-3.3807,-3.3807,-3.3807,-3.3807,-3.3807,-3.3807,-3.3807,-3.3793,-3.3734,-3.3739,-3.3726,-3.3698,-3.3684,-3.3639,-3.3419,-3.3313,-3.3293,-3.254,-3.1975,-3.1592,-3.113,-3.0582,-3.007,-2.9337,-2.8964,-2.901,-2.9021,-2.8798,-2.8349,-2.7575,-2.6774,-2.5955,-2.5143,-2.4589,-2.4331,-2.4294,-2.4294,-2.4294,-2.4294,-2.4275,-2.4247,-2.421,-2.421,-2.42,-2.4199,-2.4199,-2.4199,-2.4199,-2.4199,-2.4199,-2.4199,-2.4191,-2.4201,-2.4229,-2.4284,-2.433,-2.4358,-2.4375,-2.4375,-2.4339,-2.4339,-2.4321,-2.4266,-2.4228,-2.419,-2.4074,-2.3986,-2.3855,-2.3789,-2.3682,-2.3578,-2.3499,-2.343,-2.3378,-2.3378,-2.3441,-2.3607,-2.3725,-2.3827,-2.3927,-2.4036,-2.373,-2.3088,-2.2689,-2.1861,-2.0982,-2.0333,-1.9815,-1.9755,-1.9587,-1.9574,-1.956,-1.955,-1.9541,-1.9519,-1.9483,-1.9409,-1.9326,-1.924,-1.915,-1.9117,-1.9092,-1.9086,-1.9009,-1.8949,-1.8905,-1.8861,-1.8815,-1.8797,-1.8797,-1.8797,-1.8797,-1.8797,-1.8797,-1.8797,-3.3807,-3.3807,-3.3807,-3.3807,-3.3807,-3.3807,-3.3807,-3.3807,-3.3807,-3.3793,-3.3807,-3.3647,-3.3687,-3.3592,-3.2954,-3.2624,-3.2582,-3.1899,-3.1228,-3.0706,-3.0369,-3.0192,-3.0056,-2.9459,-2.9175,-2.9186,-2.9178,-2.9163,-2.9007,-2.8268,-2.7555,-2.6651,-2.5819,-2.5088,-2.4487,-2.4321,-2.4348,-2.433,-2.4321,-2.4312,-2.4303,-2.4238,-2.4201,-2.4201,-2.42,-2.4199,-2.4199,-2.4199,-2.4199,-2.4199,-2.4201,-2.4201,-2.4247,-2.433,-2.4394,-2.4412,-2.4465,-2.4482,-2.4482,-2.4447,-2.4403,-2.4393,-2.4339,-2.4275,-2.4246,-2.4199,-2.4113,-2.3947,-2.3876,-2.3792,-2.3714,-2.3656,-2.3629,-2.3618,-2.3573,-2.3618,-2.3765,-2.381,-2.3886,-2.4006,-2.4077,-2.3943,-2.3252,-2.3171,-2.2367,-2.1421,-2.0877,-2.0438,-1.9911,-1.9686,-1.9712,-1.9673,-1.9621,-1.9613,-1.9597,-1.9543,-1.9489,-1.945,-1.9367,-1.9264,-1.9158,-1.9117,-1.9076,-1.9,-1.8948,-1.8914,-1.8887,-1.8833,-1.8806,-1.8797,-1.8797,-1.8797,-1.8797,-1.8797,-1.8797,-3.3807,-3.3807,-3.3807,-3.3807,-3.3807,-3.3807,-3.3807,-3.3807,-3.3807,-3.3788,-3.3678,-3.317,-3.2983,-3.2924,-3.2201,-3.1906,-3.1828,-3.1214,-3.0835,-3.0565,-2.9951,-2.9641,-2.9525,-2.9318,-2.92,-2.9211,-2.9272,-2.9265,-2.9206,-2.855,-2.7781,-2.6982,-2.619,-2.5343,-2.4644,-2.4515,-2.4488,-2.4444,-2.4444,-2.44,-2.4375,-2.4358,-2.4312,-2.4201,-2.421,-2.42,-2.4199,-2.4199,-2.4209,-2.4201,-2.4192,-2.4257,-2.4339,-2.4385,-2.4421,-2.4465,-2.4482,-2.45,-2.4509,-2.4482,-2.4474,-2.4474,-2.4412,-2.4358,-2.4349,-2.4247,-2.419,-2.4113,-2.4064,-2.3966,-2.3884,-2.3813,-2.3803,-2.3821,-2.3754,-2.3743,-2.381,-2.3904,-2.4006,-2.4141,-2.4163,-2.41,-2.3977,-2.3545,-2.2914,-2.2032,-2.1358,-2.0787,-2.0207,-1.9745,-1.9738,-1.9725,-1.9681,-1.968,-1.9653,-1.962,-1.9567,-1.9543,-1.9475,-1.9344,-1.9224,-1.9127,-1.9077,-1.9009,-1.8957,-1.8931,-1.8887,-1.8851,-1.8833,-1.8806,-1.8797,-1.8797,-1.8797,-1.8797,-1.8797,-3.3881,-3.3881,-3.3873,-3.3842,-3.3829,-3.382,-3.3807,-3.3807,-3.3807,-3.3568,-3.3256,-3.286,-3.2488,-3.2183,-3.1475,-3.1198,-3.1218,-3.0517,-3.0188,-3.0166,-2.9784,-2.9528,-2.937,-2.932,-2.9339,-2.932,-2.9359,-2.9372,-2.9338,-2.8949,-2.8372,-2.7643,-2.68,-2.5957,-2.5192,-2.4781,-2.4615,-2.4547,-2.452,-2.4469,-2.4455,-2.4421,-2.4358,-2.4275,-2.4247,-2.4201,-2.4199,-2.4209,-2.4209,-2.4219,-2.4238,-2.4294,-2.4394,-2.443,-2.4456,-2.45,-2.45,-2.45,-2.45,-2.45,-2.45,-2.4491,-2.4475,-2.443,-2.4403,-2.433,-2.4275,-2.4182,-2.4152,-2.4094,-2.4006,-2.3947,-2.3955,-2.3927,-2.3904,-2.3891,-2.3886,-2.4006,-2.4103,-2.4199,-2.4275,-2.4348,-2.4491,-2.4066,-2.3523,-2.2817,-2.2105,-2.1354,-2.0578,-2.012,-1.9745,-1.9757,-1.9738,-1.9732,-1.9712,-1.9668,-1.9594,-1.9571,-1.9483,-1.9386,-1.9266,-1.9145,-1.9095,-1.9026,-1.8992,-1.8949,-1.8914,-1.8887,-1.8851,-1.8842,-1.8806,-1.8797,-1.8797,-1.8797,-1.8797,-3.3998,-3.3998,-3.3934,-3.3908,-3.3881,-3.3847,-3.382,-3.3788,-3.3642,-3.3256,-3.2706,-3.2494,-3.1931,-3.1431,-3.0746,-3.0493,-3.0541,-2.9949,-2.9728,-2.9711,-2.9673,-2.9645,-2.956,-2.9502,-2.9521,-2.9521,-2.9512,-2.9522,-2.9504,-2.9532,-2.912,-2.836,-2.7626,-2.681,-2.5901,-2.5228,-2.4813,-2.4604,-2.4561,-2.4528,-2.4497,-2.4436,-2.4402,-2.4358,-2.4275,-2.4219,-2.4219,-2.4228,-2.4238,-2.4238,-2.4294,-2.4339,-2.4412,-2.4474,-2.4491,-2.45,-2.45,-2.45,-2.45,-2.45,-2.45,-2.4518,-2.45,-2.4482,-2.443,-2.4384,-2.4339,-2.4247,-2.4209,-2.4171,-2.4113,-2.4046,-2.4044,-2.4026,-2.4016,-2.4034,-2.4036,-2.4123,-2.4199,-2.4218,-2.4385,-2.4482,-2.4559,-2.4567,-2.4362,-2.3265,-2.2573,-2.1739,-2.0897,-2.0245,-1.995,-1.9812,-1.9788,-1.9763,-1.9745,-1.9713,-1.9641,-1.9585,-1.9442,-1.9329,-1.9243,-1.9153,-1.912,-1.9078,-1.9027,-1.8975,-1.8949,-1.8923,-1.8878,-1.886,-1.8833,-1.8815,-1.8797,-1.8797,-1.8797,-3.3998,-3.3998,-3.4004,-3.3947,-3.3895,-3.3868,-3.3842,-3.377,-3.3133,-3.2766,-3.237,-3.1372,-3.0819,-3.0618,-2.9983,-2.9642,-2.9837,-2.971,-2.9701,-2.9755,-2.9764,-2.9773,-2.9728,-2.9701,-2.9664,-2.9673,-2.9664,-2.9663,-2.9672,-2.9643,-2.9349,-2.8651,-2.832,-2.7557,-2.6305,-2.5996,-2.5393,-2.4842,-2.4687,-2.465,-2.452,-2.4486,-2.4445,-2.4393,-2.4321,-2.4294,-2.4284,-2.4294,-2.4294,-2.4339,-2.4441,-2.4579,-2.4502,-2.4491,-2.45,-2.45,-2.45,-2.45,-2.45,-2.45,-2.45,-2.45,-2.45,-2.45,-2.4482,-2.443,-2.4403,-2.4339,-2.4312,-2.4257,-2.4191,-2.4162,-2.4161,-2.4161,-2.4161,-2.4152,-2.4153,-2.4181,-2.4228,-2.4294,-2.4402,-2.4534,-2.4634,-2.4671,-2.4317,-2.3641,-2.2877,-2.2073,-2.1249,-2.04,-2.0067,-1.9854,-1.9818,-1.9788,-1.9776,-1.9726,-1.9661,-1.9567,-1.945,-1.9329,-1.9243,-1.9144,-1.912,-1.9078,-1.9036,-1.901,-1.8975,-1.8931,-1.8905,-1.8887,-1.8861,-1.8843,-1.8824,-1.8815,-1.8797,-3.4099,-3.408,-3.4061,-3.4023,-3.3985,-3.3921,-3.3887,-3.3695,-3.2963,-3.2375,-3.1868,-3.0801,-3.016,-2.9828,-2.9545,-2.9463,-2.9569,-2.9729,-2.9808,-2.9841,-2.9885,-2.9918,-2.9953,-2.9904,-2.987,-2.9818,-2.9798,-2.9796,-2.9813,-2.982,-2.9683,-2.9236,-2.8911,-2.829,-2.735,-2.6927,-2.6257,-2.5566,-2.5305,-2.5107,-2.4677,-2.4528,-2.4471,-2.4402,-2.4394,-2.4469,-2.4829,-2.4912,-2.5153,-2.5421,-2.5532,-2.5189,-2.4602,-2.4518,-2.4518,-2.45,-2.45,-2.45,-2.45,-2.45,-2.45,-2.45,-2.45,-2.45,-2.45,-2.4465,-2.4438,-2.4412,-2.4358,-2.4303,-2.4257,-2.4238,-2.4238,-2.4256,-2.4238,-2.4229,-2.422,-2.4229,-2.4284,-2.4384,-2.4481,-2.4582,-2.4671,-2.4734,-2.4362,-2.3716,-2.2949,-2.2149,-2.1286,-2.0511,-2.0096,-1.9871,-1.9836,-1.9788,-1.9775,-1.9732,-1.9674,-1.9574,-1.9479,-1.9367,-1.9274,-1.9184,-1.9111,-1.9095,-1.9053,-1.9036,-1.8992,-1.8948,-1.8931,-1.8896,-1.8869,-1.8861,-1.8861,-1.8852,-1.8824,-3.4252,-3.4221,-3.4161,-3.4124,-3.4099,-3.3985,-3.3921,-3.3771,-3.2836,-3.2034,-3.1317,-3.0597,-2.9769,-2.9391,-2.944,-2.954,-2.9655,-2.979,-2.9883,-2.9916,-2.9983,-3.0033,-3.0065,-3.0046,-3.0014,-2.9934,-2.9924,-2.9932,-2.9948,-2.998,-2.9923,-2.9851,-2.9368,-2.8833,-2.8541,-2.8044,-2.7229,-2.6424,-2.5996,-2.5651,-2.4992,-2.4735,-2.4551,-2.4752,-2.504,-2.5282,-2.569,-2.5866,-2.6107,-2.6793,-2.6907,-2.6182,-2.5289,-2.4704,-2.4574,-2.4555,-2.45,-2.45,-2.45,-2.45,-2.45,-2.45,-2.45,-2.45,-2.45,-2.4509,-2.4474,-2.4438,-2.4403,-2.4376,-2.4312,-2.4063,-2.4045,-2.4008,-2.4008,-2.3943,-2.3952,-2.3952,-2.3922,-2.4455,-2.4568,-2.4658,-2.4726,-2.4757,-2.4287,-2.3757,-2.2969,-2.2154,-2.127,-2.0596,-2.0144,-1.99,-1.9871,-1.9811,-1.9794,-1.9745,-1.9681,-1.9601,-1.9489,-1.9394,-1.9295,-1.9208,-1.9144,-1.9112,-1.9078,-1.9062,-1.9045,-1.9036,-1.8992,-1.8922,-1.8904,-1.8905,-1.8896,-1.8896,-1.887,-3.4363,-3.437,-3.4293,-3.4233,-3.4173,-3.4099,-3.3998,-3.365,-3.2366,-3.1612,-3.1256,-3.0019,-2.9403,-2.9272,-2.9402,-2.9589,-2.9746,-2.9876,-2.9951,-2.998,-3.0038,-3.0095,-3.011,-3.0113,-3.0098,-3.0072,-3.0068,-3.0053,-3.0053,-3.008,-3.0068,-3.0038,-2.9912,-2.9536,-2.9007,-2.8578,-2.8142,-2.7275,-2.6685,-2.617,-2.5753,-2.5266,-2.5117,-2.5546,-2.604,-2.6496,-2.672,-2.6832,-2.6915,-2.7027,-2.7074,-2.6906,-2.6497,-2.5921,-2.5308,-2.476,-2.463,-2.4648,-2.4518,-2.45,-2.45,-2.45,-2.45,-2.45,-2.45,-2.45,-2.4491,-2.4474,-2.443,-2.4403,-2.4357,-2.3849,-2.3389,-2.3204,-2.2854,-2.2493,-2.249,-2.2634,-2.3102,-2.3948,-2.4337,-2.4687,-2.4727,-2.4586,-2.4077,-2.3474,-2.2672,-2.1875,-2.1055,-2.0499,-2.0072,-1.9947,-1.9911,-1.9866,-1.9806,-1.9751,-1.97,-1.9628,-1.9532,-1.9446,-1.9331,-1.9248,-1.9176,-1.9145,-1.9112,-1.9087,-1.9078,-1.9088,-1.9043,-1.8982,-1.8956,-1.8957,-1.8958,-1.894,-1.8905,-3.4427,-3.445,-3.4374,-3.4305,-3.4264,-3.4185,-3.4099,-3.3771,-3.2293,-3.1537,-3.1077,-3.0002,-2.9269,-2.9304,-2.9412,-2.9608,-2.9799,-2.9907,-2.9999,-3.0046,-3.0083,-3.0121,-3.0147,-3.015,-3.0157,-3.015,-3.0142,-3.0154,-3.0154,-3.0154,-3.0154,-3.0135,-3.0154,-2.9899,-2.9572,-2.9474,-2.8954,-2.8188,-2.7642,-2.7153,-2.6747,-2.6183,-2.6262,-2.6501,-2.6877,-2.7269,-2.768,-2.7718,-2.7942,-2.825,-2.8344,-2.8091,-2.7681,-2.7205,-2.6451,-2.5428,-2.5113,-2.4871,-2.4592,-2.45,-2.45,-2.45,-2.45,-2.45,-2.45,-2.45,-2.45,-2.4491,-2.4482,-2.4456,-2.4437,-2.3615,-2.3236,-2.3006,-2.2395,-2.194,-2.1927,-2.1975,-2.2534,-2.3271,-2.3626,-2.4046,-2.4689,-2.4396,-2.3864,-2.3171,-2.2368,-2.1578,-2.0787,-2.0383,-1.998,-1.9963,-1.9941,-1.9883,-1.9817,-1.9782,-1.9726,-1.9655,-1.9574,-1.9489,-1.9383,-1.9285,-1.9224,-1.9186,-1.9145,-1.912,-1.9104,-1.9086,-1.9059,-1.9059,-1.9067,-1.9077,-1.9017,-1.8991,-1.8974,-3.4517,-3.455,-3.4473,-3.4416,-3.434,-3.4257,-3.4185,-3.379,-3.2347,-3.1597,-3.1376,-3.0065,-2.9302,-2.9355,-2.9471,-2.9636,-2.9808,-2.9951,-3.0038,-3.0095,-3.0121,-3.0157,-3.0197,-3.0204,-3.0204,-3.0197,-3.0197,-3.0204,-3.0197,-3.0197,-3.0204,-3.0197,-3.0204,-3.0197,-3.0066,-2.9968,-2.9569,-2.9247,-2.8757,-2.8275,-2.7611,-2.7466,-2.7457,-2.7471,-2.7537,-2.8052,-2.8567,-2.8624,-2.8877,-2.9252,-2.9392,-2.9214,-2.8718,-2.8587,-2.7848,-2.6534,-2.5958,-2.5298,-2.4731,-2.45,-2.45,-2.45,-2.45,-2.45,-2.45,-2.4508,-2.4517,-2.4517,-2.4498,-2.4481,-2.4361,-2.3527,-2.3027,-2.2675,-2.2044,-2.1465,-2.1351,-2.1369,-2.1484,-2.2121,-2.2698,-2.3232,-2.3747,-2.3769,-2.3152,-2.2569,-2.1783,-2.1233,-2.0516,-2.0259,-1.9982,-1.9974,-1.9928,-1.9889,-1.9848,-1.9806,-1.9757,-1.9694,-1.9621,-1.9539,-1.9453,-1.9372,-1.9295,-1.9243,-1.9202,-1.9178,-1.9135,-1.9127,-1.9127,-1.9144,-1.9176,-1.916,-1.9119,-1.9094,-1.9086,-3.4758,-3.4758,-3.4634,-3.4561,-3.4528,-3.4363,-3.4257,-3.3962,-3.2418,-3.1663,-3.1528,-3.0058,-2.9312,-2.9357,-2.9569,-2.9701,-2.9834,-3.0002,-3.0087,-3.011,-3.015,-3.0178,-3.0185,-3.0204,-3.0204,-3.0204,-3.0204,-3.0204,-3.0204,-3.0204,-3.0204,-3.0204,-3.0204,-3.0204,-3.019,-3.0123,-3.0063,-2.9786,-2.9182,-2.8412,-2.7804,-2.8153,-2.8393,-2.8584,-2.8952,-2.9312,-2.9425,-2.9435,-2.9613,-2.967,-2.9764,-2.968,-2.954,-2.9512,-2.9035,-2.7941,-2.6738,-2.5426,-2.4793,-2.4544,-2.4517,-2.4517,-2.4508,-2.45,-2.4517,-2.4515,-2.4513,-2.4513,-2.4513,-2.4505,-2.4265,-2.3134,-2.245,-2.18,-2.1213,-2.0429,-2.0115,-2.0656,-2.0804,-2.1002,-2.1594,-2.2092,-2.259,-2.2526,-2.2372,-2.1812,-2.1276,-2.0738,-2.0333,-2.0114,-1.9979,-1.9977,-1.9955,-1.9911,-1.9871,-1.983,-1.9838,-1.977,-1.9705,-1.9631,-1.9529,-1.945,-1.9353,-1.9311,-1.9282,-1.9277,-1.9251,-1.9243,-1.9219,-1.9227,-1.9266,-1.9243,-1.9184,-1.9176,-1.9194,-3.4936,-3.4859,-3.4761,-3.4678,-3.4602,-3.4525,-3.4386,-3.3934,-3.2541,-3.1771,-3.141,-3.0049,-2.9386,-2.9451,-2.9636,-2.9745,-2.9876,-3.0033,-3.0083,-3.0113,-3.0164,-3.0204,-3.0204,-3.0204,-3.0204,-3.0204,-3.0204,-3.0204,-3.0204,-3.0211,-3.0204,-3.0211,-3.0204,-3.0204,-3.0211,-3.0171,-3.013,-2.998,-2.9695,-2.9338,-2.9075,-2.9166,-2.9369,-2.9326,-2.9677,-2.982,-2.9857,-2.9839,-2.9857,-2.9857,-2.9857,-2.9859,-2.9815,-2.9741,-2.9394,-2.8551,-2.7833,-2.6732,-2.5487,-2.4883,-2.4623,-2.4549,-2.4549,-2.4557,-2.4539,-2.4547,-2.4555,-2.4574,-2.4555,-2.4574,-2.44,-2.3452,-2.2691,-2.1883,-2.102,-2.0346,-1.9896,-1.9769,-2.007,-2.027,-2.0594,-2.1359,-2.1962,-2.2034,-2.2018,-2.1592,-2.1074,-2.0535,-2.0245,-2.0077,-2.0,-1.9998,-1.9972,-1.9945,-1.9919,-1.9879,-1.9963,-1.9932,-1.9845,-1.9767,-1.9622,-1.9526,-1.9686,-1.9582,-1.9479,-1.9448,-1.9433,-1.9337,-1.9303,-1.9329,-1.9337,-1.9329,-1.9295,-1.9253,-1.9256,-3.5075,-3.4974,-3.487,-3.4762,-3.4687,-3.4655,-3.4528,-3.4188,-3.2646,-3.1912,-3.144,-3.0211,-2.9461,-2.956,-2.9664,-2.978,-2.9901,-3.003,-3.0091,-3.0109,-3.0164,-3.0204,-3.0204,-3.0204,-3.0204,-3.0204,-3.0204,-3.0211,-3.0218,-3.0218,-3.0225,-3.0218,-3.0218,-3.0218,-3.0218,-3.0192,-3.0159,-3.0082,-3.0041,-2.9954,-2.9916,-2.9927,-2.9942,-2.9926,-2.9937,-2.9948,-2.9956,-2.9956,-2.9967,-2.9975,-2.9948,-2.9959,-2.9943,-2.9924,-2.9691,-2.9063,-2.8569,-2.788,-2.666,-2.5768,-2.4968,-2.4663,-2.4623,-2.4631,-2.4655,-2.4666,-2.4647,-2.4655,-2.4629,-2.4639,-2.4447,-2.3825,-2.3167,-2.2432,-2.1704,-2.0966,-2.0445,-2.0557,-2.0753,-2.1148,-2.1416,-2.136,-2.1766,-2.1779,-2.1642,-2.1323,-2.0866,-2.0413,-2.0255,-2.0246,-2.0154,-2.0211,-2.0473,-2.0465,-2.0445,-2.0361,-2.0294,-2.0308,-2.0239,-2.0319,-2.0443,-2.048,-2.0604,-2.0352,-2.0015,-2.0311,-2.07,-2.0044,-1.9409,-1.9409,-1.9416,-1.9442,-1.9416,-1.9416,-1.9389,-3.5191,-3.5174,-3.4983,-3.4898,-3.4851,-3.4749,-3.4655,-3.443,-3.2801,-3.1971,-3.1507,-3.0333,-2.956,-2.9655,-2.9709,-2.9787,-2.9916,-3.0038,-3.0079,-3.0116,-3.0164,-3.0204,-3.0204,-3.0204,-3.0204,-3.0204,-3.0211,-3.0225,-3.0219,-3.0219,-3.0207,-3.0207,-3.0233,-3.0226,-3.0226,-3.0226,-3.018,-3.0111,-3.0109,-3.0113,-3.011,-3.0095,-3.0095,-3.0095,-3.0087,-3.0087,-3.0087,-3.0095,-3.0102,-3.0102,-3.0083,-3.0068,-3.0068,-3.008,-2.9878,-2.9649,-2.9181,-2.8615,-2.7832,-2.6524,-2.5431,-2.4901,-2.4655,-2.4737,-2.4776,-2.4791,-2.4791,-2.4764,-2.473,-2.4718,-2.4454,-2.3995,-2.3565,-2.3004,-2.2458,-2.1985,-2.162,-2.1686,-2.1897,-2.2224,-2.2246,-2.2095,-2.234,-2.25,-2.2133,-2.1851,-2.1689,-2.1235,-2.0848,-2.0743,-2.0532,-2.058,-2.1018,-2.117,-2.1244,-2.126,-2.1362,-2.14,-2.1386,-2.1546,-2.1754,-2.1729,-2.1373,-2.1414,-2.1213,-2.1582,-2.1682,-2.0912,-2.0218,-1.9714,-1.9622,-2.0055,-2.0137,-2.0129,-1.9928,-3.5185,-3.5176,-3.511,-3.5048,-3.4936,-3.486,-3.479,-3.4425,-3.2866,-3.1405,-3.0474,-2.986,-2.9655,-2.9719,-2.9798,-2.9883,-2.9972,-3.0049,-3.0101,-3.0138,-3.0178,-3.0204,-3.0204,-3.0204,-3.0204,-3.0204,-3.0211,-3.0206,-3.0207,-3.0316,-3.0254,-3.0241,-3.0343,-3.0273,-3.0266,-3.0266,-3.0214,-3.0168,-3.0166,-3.0178,-3.0157,-3.015,-3.0157,-3.0152,-3.0171,-3.0185,-3.0225,-3.0232,-3.0232,-3.0206,-3.0225,-3.0192,-3.0171,-3.0176,-3.0128,-3.0091,-2.9635,-2.93,-2.8544,-2.7123,-2.5656,-2.4979,-2.4776,-2.4832,-2.4887,-2.4863,-2.487,-2.4844,-2.4823,-2.4824,-2.4723,-2.4482,-2.4144,-2.3637,-2.322,-2.2865,-2.2705,-2.2745,-2.2767,-2.2962,-2.2844,-2.2686,-2.304,-2.3451,-2.2925,-2.2436,-2.2278,-2.2091,-2.1684,-2.144,-2.1302,-2.1325,-2.1765,-2.1977,-2.2057,-2.2236,-2.2451,-2.2494,-2.2511,-2.259,-2.2661,-2.2191,-2.1961,-2.2122,-2.2253,-2.229,-2.2103,-2.1603,-2.1145,-2.0825,-2.0885,-2.1202,-2.1139,-2.0856,-2.0665,-3.5223,-3.5223,-3.5229,-3.5162,-3.5066,-3.4973,-3.4766,-3.4234,-3.2864,-3.1205,-2.9626,-2.9701,-2.9728,-2.9782,-2.9849,-2.9945,-3.0019,-3.0079,-3.0123,-3.0171,-3.0204,-3.0204,-3.0204,-3.0204,-3.0204,-3.0211,-3.0237,-3.0258,-3.0719,-3.0643,-3.0733,-3.079,-3.0694,-3.0663,-3.0305,-3.0299,-3.0279,-3.0253,-3.0227,-3.024,-3.0219,-3.0219,-3.0226,-3.0227,-3.0221,-3.0234,-3.0266,-3.0292,-3.0292,-3.0299,-3.0299,-3.0273,-3.0253,-3.0226,-3.0187,-3.0178,-3.0066,-2.9789,-2.8927,-2.7323,-2.5947,-2.5456,-2.4986,-2.4995,-2.4965,-2.496,-2.496,-2.4966,-2.4946,-2.4945,-2.4919,-2.475,-2.4601,-2.4148,-2.4091,-2.381,-2.3667,-2.365,-2.3607,-2.363,-2.3601,-2.376,-2.3934,-2.4302,-2.3837,-2.3208,-2.268,-2.255,-2.2387,-2.2235,-2.2288,-2.2407,-2.268,-2.2821,-2.2903,-2.3278,-2.36,-2.3649,-2.3615,-2.3436,-2.3319,-2.2912,-2.2909,-2.3311,-2.3322,-2.2981,-2.2925,-2.297,-2.2573,-2.2069,-2.2066,-2.1973,-2.176,-2.1487,-2.1573,-3.53,-3.5308,-3.53,-3.525,-3.5181,-3.5129,-3.4602,-3.378,-3.2701,-3.1322,-2.9885,-2.9808,-2.9832,-2.9891,-2.9924,-3.0003,-3.006,-3.0109,-3.0138,-3.0185,-3.0218,-3.0211,-3.0261,-3.028,-3.0472,-3.0256,-3.0545,-3.1057,-3.1539,-3.1546,-3.1597,-3.1588,-3.1492,-3.1095,-3.0387,-3.0311,-3.0312,-3.0305,-3.0273,-3.0286,-3.0279,-3.0273,-3.0279,-3.0286,-3.0292,-3.0292,-3.0305,-3.0331,-3.0331,-3.0331,-3.0331,-3.0324,-3.0312,-3.0286,-3.0279,-3.0273,-3.0221,-3.0162,-2.9964,-2.7606,-2.655,-2.6094,-2.5564,-2.5234,-2.5133,-2.5101,-2.5076,-2.5063,-2.5051,-2.5025,-2.4986,-2.4929,-2.4833,-2.4762,-2.468,-2.4611,-2.4429,-2.4379,-2.4333,-2.4287,-2.4748,-2.5118,-2.5146,-2.5115,-2.4702,-2.4096,-2.3293,-2.3024,-2.3087,-2.3242,-2.3386,-2.349,-2.3711,-2.3744,-2.392,-2.4423,-2.4739,-2.4774,-2.4582,-2.4264,-2.4205,-2.4094,-2.4218,-2.4508,-2.4286,-2.3881,-2.4234,-2.4644,-2.3885,-2.3094,-2.263,-2.2443,-2.2249,-2.2277,-2.2492,-3.5308,-3.5308,-3.5308,-3.5285,-3.5258,-3.5193,-3.4649,-3.3665,-3.2275,-3.0936,-3.0042,-2.9918,-2.9932,-2.9972,-3.0007,-3.0079,-3.0157,-3.0173,-3.0194,-3.0194,-3.0258,-3.0206,-3.0352,-3.0791,-3.1033,-3.1231,-3.1527,-3.1895,-3.2382,-3.2429,-3.25,-3.2466,-3.1956,-3.1256,-3.0625,-3.0365,-3.0359,-3.0317,-3.0305,-3.0299,-3.0299,-3.0312,-3.0305,-3.0305,-3.0305,-3.033,-3.0343,-3.0343,-3.0362,-3.0362,-3.0362,-3.0362,-3.0362,-3.0336,-3.0305,-3.0299,-3.0273,-3.0273,-3.0017,-2.874,-2.7523,-2.6785,-2.6123,-2.5683,-2.5319,-2.5184,-2.517,-2.5164,-2.513,-2.5112,-2.5106,-2.5063,-2.5,-2.4993,-2.4949,-2.4949,-2.4879,-2.4948,-2.4952,-2.4937,-2.5195,-2.5234,-2.5262,-2.5293,-2.5019,-2.4952,-2.4259,-2.4235,-2.4341,-2.4495,-2.4648,-2.4642,-2.4725,-2.4738,-2.4864,-2.4968,-2.5,-2.4897,-2.485,-2.4733,-2.4788,-2.4849,-2.479,-2.4669,-2.4737,-2.4813,-2.4813,-2.4787,-2.4599,-2.4103,-2.36,-2.3397,-2.3451,-2.3563,-2.3785,-3.5372,-3.5364,-3.5372,-3.5364,-3.5258,-3.494,-3.4132,-3.2912,-3.1477,-3.0489,-3.0056,-3.0014,-3.0046,-3.0083,-3.0121,-3.0159,-3.0245,-3.024,-3.0234,-3.0291,-3.0617,-3.0725,-3.1024,-3.147,-3.1886,-3.2154,-3.2481,-3.2888,-3.3254,-3.3307,-3.3353,-3.3127,-3.2334,-3.157,-3.0956,-3.0675,-3.0389,-3.0354,-3.0336,-3.0349,-3.0336,-3.033,-3.0336,-3.0329,-3.0342,-3.0367,-3.0379,-3.0404,-3.0404,-3.0404,-3.0404,-3.0404,-3.0379,-3.0348,-3.0342,-3.0329,-3.0343,-3.0343,-3.0113,-2.9921,-2.8707,-2.7654,-2.6945,-2.6268,-2.5669,-2.5425,-2.5253,-2.5195,-2.5234,-2.5242,-2.5233,-2.5199,-2.5244,-2.5239,-2.522,-2.522,-2.5194,-2.5241,-2.5201,-2.5217,-2.5234,-2.5271,-2.5278,-2.5293,-2.5212,-2.5255,-2.526,-2.5317,-2.5313,-2.5298,-2.5302,-2.5262,-2.5217,-2.5102,-2.5038,-2.5068,-2.5082,-2.5038,-2.4992,-2.4945,-2.4919,-2.4912,-2.4884,-2.4863,-2.487,-2.4889,-2.4849,-2.4771,-2.4673,-2.4644,-2.4505,-2.447,-2.4639,-2.4582,-2.4524,-3.5481,-3.55,-3.5462,-3.5383,-3.5187,-3.4266,-3.2947,-3.1428,-3.0544,-3.0129,-3.011,-3.0117,-3.0147,-3.0204,-3.0199,-3.0233,-3.0279,-3.0286,-3.0388,-3.0599,-3.1085,-3.1366,-3.1845,-3.2414,-3.2752,-3.2888,-3.3196,-3.3779,-3.4107,-3.4205,-3.4238,-3.382,-3.2829,-3.2052,-3.1501,-3.0989,-3.0587,-3.0448,-3.0379,-3.0373,-3.0361,-3.0392,-3.0373,-3.0373,-3.0379,-3.0379,-3.0404,-3.0404,-3.0404,-3.0404,-3.0404,-3.0404,-3.0404,-3.0404,-3.0404,-3.041,-3.041,-3.041,-3.039,-3.0237,-2.9929,-2.8821,-2.7627,-2.6913,-2.6436,-2.6077,-2.5847,-2.5617,-2.5554,-2.5433,-2.536,-2.5431,-2.5502,-2.5477,-2.5458,-2.542,-2.5368,-2.5346,-2.528,-2.5271,-2.5276,-2.5302,-2.5303,-2.5317,-2.5423,-2.5337,-2.5365,-2.5341,-2.5341,-2.5313,-2.5317,-2.5312,-2.5287,-2.5255,-2.5236,-2.5185,-2.515,-2.5095,-2.5063,-2.5018,-2.4992,-2.4985,-2.4972,-2.4959,-2.4984,-2.4977,-2.4912,-2.4884,-2.4844,-2.4846,-2.4802,-2.4742,-2.4679,-2.4639,-2.459,-3.493,-3.5404,-3.4834,-3.4558,-3.4333,-3.2928,-3.1979,-3.1453,-3.0635,-3.0233,-3.0233,-3.0233,-3.0252,-3.026,-3.0279,-3.0273,-3.0299,-3.0388,-3.0772,-3.1143,-3.1546,-3.1955,-3.2575,-3.3278,-3.3616,-3.3937,-3.4278,-3.4606,-3.4927,-3.5052,-3.4655,-3.409,-3.3613,-3.2837,-3.2079,-3.1457,-3.0972,-3.0569,-3.0481,-3.0404,-3.0404,-3.0404,-3.0404,-3.0404,-3.0404,-3.0404,-3.0404,-3.0404,-3.0404,-3.0404,-3.0404,-3.0404,-3.0404,-3.0408,-3.0406,-3.0453,-3.0477,-3.0477,-3.0458,-3.0458,-3.0298,-2.9932,-2.8934,-2.8181,-2.7659,-2.7182,-2.6734,-2.6369,-2.6177,-2.6177,-2.6167,-2.62,-2.6362,-2.6491,-2.637,-2.6159,-2.6082,-2.5896,-2.583,-2.5768,-2.5754,-2.5678,-2.564,-2.5534,-2.5601,-2.5461,-2.5393,-2.5373,-2.5364,-2.536,-2.5351,-2.5346,-2.5327,-2.5302,-2.528,-2.5231,-2.5197,-2.5162,-2.512,-2.5082,-2.507,-2.5063,-2.5057,-2.5044,-2.5031,-2.4999,-2.4992,-2.4946,-2.4905,-2.4877,-2.4853,-2.4768,-2.4707,-2.4695,-2.4663,-3.4007,-3.4372,-3.391,-3.3506,-3.3064,-3.2103,-3.1482,-3.1066,-3.0548,-3.0312,-3.0312,-3.0305,-3.0299,-3.0292,-3.0292,-3.0311,-3.0322,-3.0399,-3.0764,-3.1462,-3.1943,-3.2667,-3.3396,-3.4157,-3.456,-3.4894,-3.5074,-3.5261,-3.5441,-3.5442,-3.513,-3.4802,-3.4539,-3.3685,-3.2845,-3.2088,-3.1409,-3.0968,-3.0654,-3.0462,-3.0404,-3.0404,-3.0404,-3.0404,-3.0404,-3.0404,-3.0404,-3.0404,-3.0404,-3.039,-3.039,-3.0402,-3.0408,-3.0417,-3.0439,-3.0479,-3.0479,-3.0479,-3.0479,-3.0479,-3.0485,-3.0369,-3.0002,-2.9538,-2.8809,-2.8235,-2.7676,-2.7195,-2.7132,-2.7094,-2.7103,-2.715,-2.7462,-2.7728,-2.7402,-2.7075,-2.6844,-2.6608,-2.6509,-2.6447,-2.6366,-2.627,-2.615,-2.5981,-2.574,-2.5522,-2.5423,-2.5455,-2.5423,-2.5387,-2.5378,-2.5364,-2.537,-2.5351,-2.5307,-2.5285,-2.5258,-2.5212,-2.5172,-2.5137,-2.5132,-2.5107,-2.5095,-2.5082,-2.5063,-2.5038,-2.5038,-2.498,-2.494,-2.4912,-2.4891,-2.4842,-2.4798,-2.4761,-2.473,-3.2872,-3.2949,-3.2833,-3.2352,-3.166,-3.1545,-3.1115,-3.0436,-3.0343,-3.0299,-3.0324,-3.0305,-3.0324,-3.0323,-3.0329,-3.0361,-3.0373,-3.0417,-3.1013,-3.1788,-3.2404,-3.3205,-3.4263,-3.5038,-3.5172,-3.5378,-3.5481,-3.5474,-3.5481,-3.5468,-3.5456,-3.5442,-3.4802,-3.4154,-3.3712,-3.2807,-3.2166,-3.1775,-3.125,-3.0885,-3.05,-3.0404,-3.0404,-3.039,-3.039,-3.039,-3.0416,-3.0416,-3.039,-3.0402,-3.04,-3.0417,-3.0458,-3.0493,-3.0509,-3.0505,-3.052,-3.052,-3.052,-3.052,-3.051,-3.0505,-3.0495,-3.0283,-2.9699,-2.9177,-2.8632,-2.813,-2.7991,-2.7991,-2.8005,-2.8038,-2.8259,-2.8461,-2.8345,-2.809,-2.7873,-2.7565,-2.7243,-2.7195,-2.7166,-2.7051,-2.6911,-2.6785,-2.6749,-2.6073,-2.592,-2.6018,-2.5762,-2.5723,-2.5618,-2.5567,-2.5415,-2.5397,-2.5346,-2.5332,-2.5307,-2.5257,-2.5239,-2.5212,-2.5214,-2.5174,-2.5113,-2.5113,-2.5113,-2.5107,-2.5095,-2.5038,-2.5005,-2.4966,-2.494,-2.4912,-2.4877,-2.4861,-2.4798,-3.2352,-3.2833,-3.2237,-3.1506,-3.0769,-3.0712,-3.0635,-3.0404,-3.0392,-3.038,-3.0361,-3.0361,-3.0361,-3.0373,-3.0373,-3.0379,-3.0379,-3.0635,-3.1365,-3.2173,-3.2891,-3.3814,-3.4891,-3.5308,-3.55,-3.55,-3.55,-3.55,-3.55,-3.55,-3.55,-3.5481,-3.5103,-3.4872,-3.4334,-3.3487,-3.3147,-3.2641,-3.2218,-3.1442,-3.075,-3.0487,-3.039,-3.0466,-3.0496,-3.0552,-3.0538,-3.0477,-3.0477,-3.0463,-3.0463,-3.049,-3.055,-3.0574,-3.0578,-3.0567,-3.0563,-3.0558,-3.0577,-3.0568,-3.0564,-3.0578,-3.0574,-3.0583,-3.0376,-3.0037,-2.9636,-2.9134,-2.8888,-2.8888,-2.8907,-2.8965,-2.9043,-2.9173,-2.9278,-2.908,-2.8877,-2.8492,-2.8073,-2.802,-2.8005,-2.7909,-2.7773,-2.7656,-2.7611,-2.7554,-2.752,-2.7381,-2.6761,-2.6521,-2.6223,-2.6057,-2.5561,-2.5464,-2.5415,-2.5373,-2.5351,-2.5418,-2.5427,-2.5364,-2.5343,-2.5228,-2.5176,-2.5195,-2.5189,-2.516,-2.5144,-2.5101,-2.5076,-2.5031,-2.5005,-2.4979,-2.4965,-2.4957,-2.4889,-3.1385,-3.1731,-3.1308,-3.0846,-3.0442,-3.0404,-3.0404,-3.0404,-3.0404,-3.0404,-3.0404,-3.0404,-3.0404,-3.0404,-3.0404,-3.0442,-3.0519,-3.0846,-3.1712,-3.2602,-3.343,-3.4314,-3.5019,-3.55,-3.55,-3.55,-3.55,-3.55,-3.55,-3.55,-3.55,-3.55,-3.5462,-3.525,-3.4699,-3.4449,-3.4013,-3.3474,-3.3179,-3.2429,-3.15,-3.1468,-3.1524,-3.1523,-3.1251,-3.1133,-3.0879,-3.0793,-3.0504,-3.0514,-3.0525,-3.0554,-3.0588,-3.0606,-3.06,-3.0613,-3.0597,-3.0602,-3.0602,-3.0621,-3.0617,-3.0608,-3.06,-3.0586,-3.0586,-3.0293,-3.0269,-2.9843,-2.9839,-2.9839,-2.9843,-2.9887,-2.9926,-3.0008,-2.9989,-2.9853,-2.9766,-2.9587,-2.9385,-2.9356,-2.9274,-2.909,-2.8915,-2.8608,-2.8469,-2.79,-2.8058,-2.8138,-2.7634,-2.7365,-2.7032,-2.6634,-2.6206,-2.5669,-2.5464,-2.5425,-2.5432,-2.5502,-2.5764,-2.5919,-2.6015,-2.5513,-2.5238,-2.5444,-2.5461,-2.5217,-2.5203,-2.5219,-2.512,-2.5057,-2.5051,-2.505,-2.5037,-2.5037,-2.4991,-3.0442,-3.0404,-3.0423,-3.0404,-3.0404,-3.0404,-3.0404,-3.0404,-3.0404,-3.0404,-3.0404,-3.0404,-3.0404,-3.0404,-3.0404,-3.0481,-3.0712,-3.1212,-3.2102,-3.3103,-3.3821,-3.4584,-3.5115,-3.55,-3.55,-3.55,-3.55,-3.55,-3.55,-3.55,-3.55,-3.55,-3.55,-3.5462,-3.5269,-3.4891,-3.4353,-3.4237,-3.3949,-3.3468,-3.3179,-3.2993,-3.2807,-3.2574,-3.2355,-3.1973,-3.17,-3.1402,-3.092,-3.0636,-3.0685,-3.0586,-3.0613,-3.0633,-3.0626,-3.0634,-3.0622,-3.0638,-3.0634,-3.063,-3.0622,-3.0618,-3.0614,-3.0606,-3.0606,-3.0602,-3.0578,-3.0559,-3.0554,-3.0527,-3.0535,-3.0531,-3.0567,-3.0573,-3.0506,-3.0448,-3.0419,-3.0409,-3.0385,-3.0376,-3.0226,-3.0021,-2.9849,-2.9559,-2.9187,-2.8597,-2.8359,-2.8337,-2.8294,-2.822,-2.8045,-2.7533,-2.7016,-2.6443,-2.6017,-2.6002,-2.6165,-2.6362,-2.6685,-2.676,-2.6737,-2.6497,-2.6222,-2.5947,-2.5889,-2.5718,-2.5469,-2.5386,-2.5275,-2.5113,-2.5088,-2.5063,-2.507,-2.5057,-2.507,-3.0404,-3.0404,-3.0404,-3.0404,-3.0404,-3.0404,-3.0404,-3.0404,-3.0404,-3.0404,-3.0404,-3.0404,-3.0404,-3.0404,-3.0404,-3.0654,-3.1288,-3.1775,-3.2776,-3.3878,-3.4225,-3.4795,-3.525,-3.55,-3.55,-3.55,-3.55,-3.55,-3.5494,-3.5488,-3.5507,-3.5507,-3.5488,-3.5488,-3.5468,-3.518,-3.509,-3.4956,-3.4968,-3.4699,-3.4379,-3.3955,-3.3068,-3.2899,-3.2894,-3.2838,-3.2777,-3.2705,-3.2237,-3.1681,-3.1103,-3.0905,-3.0793,-3.0812,-3.0784,-3.0662,-3.0665,-3.0669,-3.0662,-3.0671,-3.0664,-3.0656,-3.0649,-3.0603,-3.0626,-3.0653,-3.0638,-3.0649,-3.0642,-3.0599,-3.0599,-3.0595,-3.0597,-3.0593,-3.0557,-3.0557,-3.0548,-3.0528,-3.0533,-3.0518,-3.0488,-3.0416,-3.0436,-3.0261,-3.024,-2.9842,-2.982,-2.9735,-2.9252,-2.9141,-2.9013,-2.8541,-2.7968,-2.7805,-2.7614,-2.7329,-2.7392,-2.7516,-2.7563,-2.7582,-2.7615,-2.7709,-2.7435,-2.6925,-2.6617,-2.6423,-2.6137,-2.5718,-2.5356,-2.52,-2.5113,-2.5088,-2.5095,-2.5095,-2.5107]},{"header":{"parameterUnit":"m.s-1","parameterCategory":1,"la1":31.0,"la2":29.5877,"lo1":-88.7671,"lo2":-86.6584,"dy":0.0162,"dx":0.0185,"nx":115,"ny":88,"refTime":"2023-05-08T06:00:00:Z","depth":0,"parameterNumber":3,"parameterNumberName":"V-component_of_WINDS"},"data":[0.0,0.0,0.0,0.0,0.0,0.0,0.0,0.0,0.0,0.0,0.0,0.0,0.0,0.0,0.0,0.0,0.0,0.0,0.0,0.0,0.0,0.0,0.0,0.0,0.0,0.0,0.0,0.0,0.0,0.0,0.0,0.0,0.0,0.0,0.0,0.0,0.0,0.0,0.0,0.0,0.0,0.0,0.0,0.0,0.0,0.0,0.0,0.0,0.0,0.0,0.0,0.0,0.0,0.0,0.0,0.0,0.0,0.0,0.0,0.0,0.0,0.0,0.0,0.0,0.0,0.0,0.0,0.0,0.0,0.0,0.0,0.0,0.0,0.0,0.0,0.0,0.0,0.0,0.0,0.0,0.0,0.0,0.0,0.0,0.0,0.0,0.0,0.0,0.0,0.0,0.0,0.0,0.0,0.0,0.0,0.0,0.0,0.0,0.0,0.0,0.0,0.0,0.0,0.0,0.0,0.0,0.0,0.0,0.0,0.0,0.0,0.0,0.0,0.0,0.0,0.0,0.0,0.0,0.0,0.0,0.0,0.0,0.0,0.0,0.0,0.0,0.0,0.0,0.0,0.0,0.0,0.0,0.0,0.0,0.0,0.0,0.0,0.0,0.0,0.0,0.0,0.0,0.0,0.0,0.0,0.0,0.0,0.0,0.0,0.0,0.0,0.0,0.0,0.0,0.0,0.0,0.0,0.0,0.0,0.0,0.0,0.0,0.0,0.0,0.0,0.0,0.0,0.0,0.0,0.0,0.0,0.0,0.0,0.0,0.0,0.0,0.0,0.0,0.0,0.0,0.0,0.0,0.0,0.0,0.0,0.0,0.0,0.0,0.0,0.0,0.0,0.0,0.0,0.0,0.0,0.0,0.0,0.0,0.0,0.0,0.0,0.0,0.0,0.0,0.0,0.0,0.0,0.0,0.0,0.0,0.0,0.0,0.0,0.0,0.0,0.0,0.0,0.0,0.0,0.0,0.0,0.0,0.0,0.0,0.0,0.0,0.0,0.0,0.0,0.0,0.0,0.0,0.0,0.0,0.0,0.0,0.0,0.0,0.0,0.0,0.0,0.0,0.0,0.0,0.0,0.0,0.0,0.0,0.0,0.0,0.0,0.0,0.0,0.0,0.0,0.0,0.0,0.0,0.0,0.0,0.0,0.0,0.0,0.0,0.0,0.0,0.0,0.0,0.0,0.0,0.0,0.0,0.0,0.0,0.0,0.0,0.0,0.0,0.0,0.0,0.0,0.0,0.0,0.0,0.0,0.0,0.0,0.0,0.0,0.0,0.0,0.0,0.0,0.0,0.0,0.0,0.0,0.0,0.0,0.0,0.0,0.0,0.0,0.0,0.0,0.0,0.0,0.0,0.0,0.0,0.0,0.0,0.0,0.0,0.0,0.0,0.0,0.0,0.0,0.0,0.0,0.0,0.0,0.0,0.0,0.0,0.0,0.0,0.0,0.0,0.0,0.0,0.0,0.0,0.0,0.0,0.0,0.0,0.0,0.0,0.0,0.0,0.0,0.0,0.0,0.0,0.0,0.0,0.0,0.0,0.0,0.0,0.0,0.0,0.0,0.0,0.0,0.0,0.0,0.0,0.0,0.0,0.0,0.0,0.0,0.0,0.0,0.0,0.0,0.0,0.0,0.0,0.0,0.0,0.0,0.0,0.0,0.0,0.0,0.0,0.0,0.0,0.0,0.0,0.0,0.0,0.0,0.0,0.0,0.0,0.0,0.0,0.0,0.0,0.0,0.0,0.0,0.0,0.0,0.0,0.0,0.0,0.0,0.0,0.0,0.0,0.0,0.0,0.0,0.0,0.0,0.0,0.0,0.0,0.0,0.0,0.0,0.0,0.0,0.0,0.0,0.0,0.0,0.0,0.0,0.0,0.0,0.0,0.0,0.0,0.0,0.0,0.0,0.0,0.0,0.0,0.0,0.0,0.0,0.0,0.0,0.0,0.0,0.0,0.0,0.0,0.0,0.0,0.0,0.0,0.0,0.0,0.0,0.0,0.0,0.0,0.0,0.0,0.0,0.0,0.0,0.0,0.0,0.0,0.0,0.0,0.0,0.0,0.0,0.0,0.0,0.0,0.0,0.0,0.0,0.0,0.0,0.0,0.0,0.0,0.0,0.0,0.0,0.0,0.0,0.0,0.0,0.0,0.0,0.0,0.0,0.0,0.0,0.0,0.0,0.0,0.0,0.0,0.0,0.0,0.0,0.0,0.0,0.0,0.0,0.0,0.0,0.0,0.0,0.0,0.0,0.0,0.0,0.0,0.0,0.0,0.0,0.0,0.0,0.0,0.0,0.0,0.0,0.0,0.0,0.0,0.0,0.0,0.0,0.0,0.0,0.0,0.0,0.0,0.0,0.0,0.0,0.0,0.0,0.0,0.0,0.0,0.0,0.0,0.0,0.0,0.0,0.0,0.0,0.0,0.0,0.0,0.0,0.0,0.0,0.0,0.0,0.0,0.0,0.0,0.0,0.0,0.0,0.0,0.0,0.0,0.0,0.0,0.0,0.0,0.0,0.0,0.0,0.0,0.0,0.0,0.0,0.0,0.0,0.0,0.0,0.0,0.0,0.0,0.0,0.0,0.0,0.0,0.0,0.0,0.0,0.0,0.0,0.0,0.0,0.0,0.0,0.0,0.0,0.0,0.0,0.0,0.0,0.0,0.0,0.0,0.0,0.0,0.0,0.0,0.0,0.0,0.0,0.0,0.0,0.0,0.0,0.0,0.0,0.0,0.0,0.0,0.0,0.0,0.0,0.0,0.0,0.0,0.0,0.0,0.0,0.0,0.0,0.0,0.0,0.0,0.0,0.0,0.0,0.0,0.0,0.0,0.0,0.0,0.0,0.0,0.0,0.0,0.0,0.0,0.0,0.0,0.0,0.0,0.0,0.0,0.0,0.0,0.0,0.0,0.0,0.0,0.0,0.0,0.0,0.0,0.0,0.0,0.0,0.0,0.0,0.0,0.0,0.0,0.0,0.0,0.0,0.0,0.0,0.0,0.0,0.0,0.0,0.0,0.0,0.0,0.0,0.0,0.0,0.0,0.0,0.0,0.0,0.0,0.0,0.0,0.0,0.0,0.0,0.0,0.0,0.0,0.0,0.0,0.0,0.0,0.0,0.0,0.0,0.0,0.0,0.0,0.0,0.0,0.0,0.0,0.0,0.0,0.0,0.0,0.0,0.0,0.0,0.0,0.0,0.0,0.0,0.0,0.0,0.0,0.0,0.0,0.0,0.0,0.0,0.0,0.0,0.0,0.0,0.0,0.0,0.0,0.0,0.0,0.0,0.0,0.0,0.0,0.0,0.0,0.0,0.0,0.0,0.0,0.0,0.0,0.0,0.0,0.0,0.0,0.0,0.0,0.0,0.0,0.0,0.0,0.0,0.0,0.0,0.0,0.0,0.0,0.0,0.0,0.0,0.0,0.0,0.0,0.0,0.0,0.0,0.0,0.0,0.0,0.0,0.0,0.0,0.0,0.0,0.0,0.0,0.0,0.0,0.0,0.0,0.0,0.0,0.0,0.0,0.0,0.0,0.0,0.0,0.0,0.0,0.0,0.0,0.0,0.0,0.0,0.0,0.0,0.0,0.0,0.0,0.0,0.0,0.0,0.0,0.0,0.0,0.0,0.0,0.0,0.0,0.0,0.0,0.0,0.0,0.0,0.0,0.0,0.0,0.0,0.0,0.0,0.0,0.0,0.0,0.0,0.0,0.0,0.0,0.0,0.0,0.0,0.0,0.0,0.0,0.0,0.0,0.0,0.0,0.0,0.0,0.0,0.0,0.0,0.0,0.0,0.0,0.0,0.0,0.0,0.0,0.0,0.0,0.0,0.0,0.0,0.0,0.0,0.0,0.0,0.0,0.0,0.0,0.0,0.0,0.0,0.0,0.0,0.0,0.0,0.0,0.0,0.0,0.0,0.0,0.0,0.0,0.0,0.0,0.0,0.0,0.0,0.0,0.0,0.0,0.0,0.0,0.0,0.0,0.0,0.0,0.0,0.0,0.0,0.0,0.0,0.0,0.0,0.0,0.0,0.0,0.0,0.0,0.0,0.0,0.0,0.0,0.0,0.0,0.0,0.0,0.0,0.0,0.0,0.0,0.0,0.0,0.0,0.0,0.0,0.0,0.0,0.0,0.0,0.0,0.0,0.0,0.0,0.0,0.0,0.0,0.0,0.0,0.0,0.0,0.0,0.0,0.0,0.0,0.0,0.0,0.0,0.0,0.0,0.0,0.0,0.0,0.0,0.0,0.0,0.0,0.0,-0.8689,0.0,0.0,0.0,0.0,0.0,0.0,0.0,0.0,0.0,0.0,0.0,0.0,0.0,0.0,0.0,0.0,0.0,0.0,0.0,0.0,0.0,0.0,0.0,0.0,0.0,0.0,0.0,0.0,0.0,0.0,0.0,0.0,0.0,0.0,0.0,0.0,0.0,0.0,0.0,0.0,0.0,0.0,0.0,0.0,0.0,0.0,0.0,0.0,0.0,0.0,0.0,0.0,0.0,0.0,0.0,0.0,0.0,0.0,0.0,0.0,0.0,0.0,0.0,0.0,0.0,0.0,0.0,0.0,0.0,0.0,0.0,0.0,0.0,0.0,0.0,0.0,0.0,0.0,0.0,0.0,0.0,0.0,0.0,0.0,0.0,0.0,0.0,0.0,0.0,0.0,0.0,0.0,0.0,0.0,0.0,0.0,0.0,0.0,0.0,0.0,0.0,0.0,0.0,0.0,0.0,0.0,0.0,0.0,0.0,0.0,-0.9825,-0.9725,-0.9615,-0.9381,-0.9035,0.0,0.0,0.0,0.0,0.0,0.0,0.0,0.0,0.0,0.0,0.0,0.0,0.0,0.0,0.0,0.0,0.0,0.0,0.0,0.0,0.0,0.0,0.0,0.0,0.0,0.0,0.0,0.0,0.0,0.0,0.0,0.0,0.0,0.0,0.0,0.0,0.0,0.0,0.0,0.0,0.0,0.0,0.0,0.0,0.0,0.0,0.0,0.0,0.0,0.0,0.0,0.0,0.0,0.0,0.0,0.0,0.0,0.0,0.0,0.0,0.0,0.0,0.0,0.0,0.0,0.0,0.0,0.0,0.0,0.0,0.0,0.0,0.0,0.0,0.0,0.0,0.0,0.0,0.0,0.0,0.0,0.0,0.0,0.0,0.0,0.0,0.0,0.0,0.0,0.0,0.0,0.0,0.0,0.0,0.0,0.0,0.0,0.0,0.0,0.0,0.0,0.0,0.0,0.0,0.0,0.0,0.0,0.0,0.0,0.0,0.0,0.0,-1.0019,-0.9667,-0.9122,0.0,0.0,0.0,0.0,0.0,0.0,0.0,0.0,0.0,0.0,0.0,0.0,0.0,0.0,0.0,0.0,0.0,0.0,0.0,0.0,0.0,0.0,0.0,0.0,0.0,0.0,0.0,0.0,0.0,0.0,0.0,0.0,0.0,0.0,0.0,0.0,0.0,0.0,0.0,0.0,0.0,0.0,0.0,0.0,0.0,0.0,0.0,0.0,0.0,0.0,0.0,0.0,0.0,0.0,0.0,0.0,0.0,0.0,0.0,0.0,0.0,0.0,0.0,0.0,0.0,0.0,0.0,0.0,0.0,0.0,0.0,0.0,0.0,0.0,0.0,0.0,0.0,0.0,0.0,0.0,0.0,0.0,0.0,0.0,0.0,0.0,0.0,0.0,0.0,0.0,0.0,0.0,0.0,0.0,0.0,0.0,0.0,0.0,0.0,0.0,0.0,0.0,0.0,0.0,0.0,0.0,0.0,0.0,0.0,0.0,-1.0147,-0.9862,-0.9773,0.0,-0.8555,0.0,0.0,0.0,0.0,0.0,0.0,0.0,0.0,0.0,0.0,0.0,0.0,0.0,0.0,0.0,0.0,0.0,0.0,0.0,0.0,0.0,0.0,0.0,0.0,0.0,0.0,0.0,0.0,0.0,0.0,0.0,0.0,0.0,0.0,0.0,0.0,0.0,0.0,0.0,0.0,0.0,0.0,0.0,0.0,0.0,0.0,0.0,0.0,0.0,0.0,0.0,0.0,0.0,0.0,0.0,0.0,0.0,0.0,0.0,0.0,0.0,0.0,0.0,0.0,0.0,0.0,0.0,0.0,0.0,0.0,0.0,0.0,0.0,0.0,0.0,0.0,0.0,0.0,0.0,0.0,0.0,0.0,0.0,0.0,0.0,0.0,0.0,0.0,0.0,0.0,0.0,0.0,0.0,0.0,0.0,0.0,0.0,0.0,0.0,0.0,0.0,0.0,0.0,0.0,0.0,0.0,0.0,0.0,0.0,0.0,-1.0059,-0.9941,-0.9773,-0.9298,0.0,0.0,0.0,0.0,0.0,0.0,0.0,0.0,0.0,0.0,0.0,0.0,0.0,0.0,0.0,0.0,0.0,0.0,0.0,0.0,0.0,0.0,0.0,0.0,0.0,0.0,0.0,0.0,0.0,0.0,0.0,0.0,0.0,0.0,0.0,0.0,0.0,0.0,0.0,0.0,0.0,0.0,0.0,0.0,0.0,0.0,0.0,0.0,0.0,0.0,0.0,0.0,0.0,0.0,0.0,0.0,0.0,0.0,0.0,0.0,0.0,0.0,0.0,0.0,0.0,0.0,0.0,0.0,0.0,0.0,0.0,0.0,0.0,0.0,0.0,0.0,0.0,0.0,0.0,0.0,0.0,0.0,0.0,0.0,0.0,0.0,0.0,0.0,0.0,0.0,0.0,0.0,0.0,0.0,0.0,0.0,0.0,0.0,0.0,0.0,0.0,0.0,0.0,0.0,0.0,0.0,0.0,0.0,0.0,0.0,-1.0235,-1.0019,-0.9902,-0.9773,-0.9298,-0.8385,0.0,0.0,0.0,0.0,0.0,0.0,0.0,0.0,0.0,0.0,0.0,0.0,0.0,0.0,0.0,0.0,0.0,0.0,0.0,0.0,0.0,0.0,0.0,0.0,0.0,0.0,0.0,0.0,0.0,0.0,0.0,0.0,0.0,0.0,0.0,0.0,0.0,0.0,0.0,0.0,0.0,0.0,0.0,0.0,0.0,0.0,0.0,0.0,0.0,0.0,0.0,0.0,0.0,0.0,0.0,0.0,0.0,0.0,0.0,0.0,0.0,0.0,0.0,0.0,0.0,0.0,0.0,0.0,0.0,0.0,0.0,0.0,0.0,0.0,0.0,0.0,0.0,0.0,0.0,0.0,0.0,0.0,0.0,0.0,0.0,0.0,0.0,0.0,0.0,0.0,0.0,0.0,0.0,0.0,0.0,0.0,0.0,0.0,0.0,0.0,0.0,0.0,0.0,0.0,0.0,0.0,0.0,0.0,-1.0341,-1.0303,-1.0098,-0.9742,-0.9703,-0.926,0.0,0.0,0.0,0.0,0.0,0.0,0.0,0.0,0.0,0.0,0.0,0.0,0.0,0.0,0.0,0.0,0.0,0.0,0.0,0.0,0.0,0.0,0.0,0.0,0.0,0.0,0.0,0.0,0.0,0.0,0.0,0.0,0.0,0.0,0.0,0.0,0.0,0.0,0.0,0.0,0.0,0.0,0.0,0.0,0.0,0.0,0.0,0.0,0.0,0.0,0.0,0.0,0.0,0.0,0.0,0.0,0.0,0.0,0.0,0.0,0.0,0.0,0.0,0.0,0.0,0.0,0.0,0.0,0.0,0.0,0.0,0.0,0.0,0.0,0.0,0.0,0.0,0.0,0.0,0.0,0.0,0.0,0.0,0.0,0.0,0.0,0.0,0.0,0.0,0.0,0.0,0.0,0.0,0.0,0.0,0.0,0.0,0.0,0.0,0.0,0.0,0.0,0.0,0.0,0.0,0.0,0.0,0.0,0.0,-1.0697,-1.0428,-1.0176,-0.9911,-0.9891,-0.946,0.0,0.0,0.0,0.0,0.0,0.0,0.0,0.0,0.0,0.0,0.0,0.0,0.0,0.0,0.0,0.0,0.0,0.0,0.0,0.0,0.0,0.0,0.0,0.0,0.0,0.0,0.0,0.0,0.0,0.0,0.0,0.0,0.0,0.0,0.0,0.0,0.0,0.0,0.0,0.0,0.0,0.0,0.0,0.0,0.0,0.0,0.0,0.0,0.0,0.0,0.0,0.0,0.0,0.0,0.0,0.0,0.0,0.0,0.0,0.0,0.0,0.0,0.0,0.0,0.0,0.0,0.0,0.0,0.0,0.0,0.0,0.0,0.0,0.0,0.0,0.0,0.0,0.0,0.0,0.0,0.0,0.0,0.0,0.0,0.0,0.0,0.0,0.0,0.0,0.0,0.0,0.0,0.0,0.0,0.0,0.0,0.0,0.0,0.0,0.0,0.0,0.0,0.0,0.0,0.0,0.0,0.0,0.0,0.0,-1.0992,0.0,-1.0341,0.0,-1.0127,-0.9744,0.0,0.0,0.0,0.0,0.0,0.0,0.0,0.0,0.0,0.0,0.0,0.0,0.0,0.0,0.0,0.0,0.0,0.0,0.0,0.0,0.0,0.0,0.0,0.0,0.0,0.0,0.0,0.0,0.0,0.0,0.0,0.0,0.0,0.0,0.0,0.0,0.0,0.0,0.0,0.0,0.0,0.0,0.0,0.0,0.0,0.0,0.0,0.0,0.0,0.0,0.0,0.0,0.0,0.0,0.0,0.0,0.0,0.0,0.0,0.0,0.0,0.0,0.0,0.0,0.0,0.0,0.0,0.0,0.0,0.0,0.0,0.0,0.0,0.0,0.0,0.0,0.0,0.0,0.0,0.0,0.0,0.0,0.0,0.0,0.0,0.0,0.0,0.0,0.0,0.0,0.0,0.0,0.0,0.0,0.0,0.0,0.0,0.0,0.0,0.0,0.0,0.0,0.0,0.0,0.0,0.0,0.0,0.0,-1.1608,-1.1217,-1.0802,-1.0621,-1.0602,-1.0419,-1.0116,0.0,0.0,0.0,0.0,0.0,0.0,0.0,0.0,0.0,0.0,0.0,0.0,0.0,0.0,0.0,0.0,0.0,0.0,0.0,0.0,0.0,0.0,0.0,0.0,0.0,0.0,0.0,0.0,0.0,0.0,0.0,0.0,0.0,0.0,0.0,0.0,0.0,0.0,0.0,0.0,0.0,0.0,0.0,0.0,0.0,0.0,0.0,0.0,0.0,0.0,0.0,0.0,0.0,0.0,0.0,0.0,0.0,0.0,0.0,0.0,0.0,0.0,0.0,0.0,0.0,0.0,0.0,0.0,0.0,0.0,0.0,0.0,0.0,0.0,0.0,0.0,0.0,0.0,0.0,0.0,0.0,0.0,0.0,0.0,0.0,0.0,0.0,0.0,0.0,0.0,0.0,0.0,0.0,0.0,0.0,0.0,0.0,0.0,0.0,0.0,0.0,0.0,0.0,0.0,0.0,0.0,0.0,0.0,0.0,-1.1486,-1.118,-1.0992,-1.0945,-1.0793,-1.0532,0.0,0.0,0.0,0.0,0.0,0.0,0.0,0.0,0.0,0.0,0.0,0.0,0.0,0.0,0.0,0.0,0.0,0.0,0.0,0.0,0.0,0.0,0.0,0.0,0.0,0.0,0.0,0.0,0.0,0.0,0.0,0.0,0.0,0.0,0.0,0.0,0.0,0.0,0.0,0.0,0.0,0.0,0.0,0.0,0.0,0.0,0.0,0.0,0.0,0.0,0.0,0.0,0.0,0.0,0.0,0.0,0.0,0.0,0.0,0.0,0.0,0.0,0.0,0.0,0.0,0.0,0.0,0.0,0.0,0.0,0.0,0.0,0.0,0.0,0.0,0.0,0.0,0.0,0.0,0.0,0.0,0.0,0.0,0.0,0.0,0.0,0.0,0.0,0.0,0.0,0.0,0.0,0.0,0.0,0.0,0.0,0.0,0.0,0.0,0.0,0.0,0.0,0.0,0.0,0.0,0.0,0.0,0.0,0.0,-1.1909,-1.159,-1.1397,-1.1314,-1.1191,-1.1005,-1.0791,0.0,0.0,0.0,0.0,0.0,0.0,0.0,0.0,0.0,0.0,0.0,0.0,0.0,0.0,0.0,0.0,0.0,0.0,0.0,0.0,0.0,0.0,0.0,0.0,0.0,0.0,0.0,0.0,0.0,0.0,0.0,0.0,0.0,0.0,0.0,0.0,0.0,0.0,0.0,0.0,0.0,0.0,0.0,0.0,0.0,0.0,0.0,0.0,0.0,0.0,0.0,0.0,0.0,0.0,0.0,0.0,0.0,0.0,0.0,0.0,0.0,0.0,0.0,0.0,0.0,0.0,0.0,0.0,0.0,0.0,0.0,0.0,0.0,0.0,0.0,0.0,0.0,0.0,0.0,0.0,0.0,0.0,0.0,0.0,0.0,0.0,0.0,0.0,0.0,0.0,0.0,0.0,0.0,0.0,0.0,0.0,0.0,0.0,0.0,0.0,0.0,0.0,0.0,0.0,0.0,0.0,0.0,0.0,-1.2431,-1.2041,-1.1796,-1.1712,-1.1575,-1.1553,0.0,0.0,0.0,0.0,0.0,0.0,0.0,0.0,0.0,0.0,0.0,0.0,0.0,0.0,0.0,0.0,0.0,0.0,0.0,0.0,0.0,0.0,0.0,0.0,0.0,0.0,0.0,0.0,0.0,0.0,0.0,0.0,0.0,0.0,0.0,0.0,0.0,0.0,0.0,0.0,0.0,0.0,0.0,0.0,0.0,0.0,0.0,0.0,0.0,0.0,0.0,0.0,0.0,0.0,0.0,0.0,0.0,0.0,0.0,0.0,0.0,0.0,0.0,0.0,0.0,0.0,0.0,0.0,0.0,0.0,0.0,0.0,0.0,0.0,0.0,0.0,0.0,0.0,0.0,0.0,0.0,0.0,0.0,0.0,0.0,0.0,0.0,0.0,0.0,0.0,0.0,0.0,0.0,0.0,0.0,0.0,0.0,0.0,0.0,0.0,0.0,0.0,0.0,0.0,0.0,0.0,0.0,0.0,0.0,-1.2697,-1.2401,-1.2089,-1.1782,-1.1785,-1.1818,0.0,0.0,0.0,0.0,0.0,0.0,0.0,0.0,0.0,0.0,0.0,0.0,0.0,0.0,0.0,0.0,0.0,0.0,0.0,0.0,0.0,0.0,0.0,0.0,0.0,0.0,0.0,0.0,0.0,0.0,0.0,0.0,0.0,0.0,0.0,0.0,0.0,0.0,0.0,0.0,0.0,0.0,0.0,0.0,0.0,0.0,0.0,0.0,0.0,0.0,0.0,0.0,0.0,0.0,0.0,0.0,0.0,0.0,0.0,0.0,0.0,0.0,0.0,0.0,0.0,0.0,0.0,0.0,0.0,0.0,0.0,0.0,0.0,0.0,0.0,0.0,0.0,0.0,0.0,0.0,0.0,0.0,0.0,0.0,0.0,0.0,0.0,0.0,0.0,0.0,0.0,0.0,0.0,0.0,0.0,0.0,0.0,0.0,0.0,0.0,0.0,0.0,0.0,0.0,0.0,0.0,0.0,0.0,-1.299,-1.2785,-1.2561,-1.2276,-1.1979,-1.2011,-1.2066,0.0,0.0,0.0,0.0,0.0,0.0,0.0,0.0,0.0,0.0,0.0,0.0,0.0,0.0,0.0,0.0,0.0,0.0,0.0,0.0,0.0,0.0,0.0,0.0,0.0,0.0,0.0,0.0,0.0,0.0,0.0,0.0,0.0,0.0,0.0,0.0,0.0,0.0,0.0,0.0,0.0,0.0,0.0,0.0,0.0,0.0,0.0,0.0,0.0,0.0,0.0,0.0,0.0,0.0,0.0,0.0,0.0,0.0,0.0,0.0,0.0,0.0,0.0,0.0,0.0,0.0,0.0,0.0,0.0,0.0,0.0,0.0,0.0,0.0,0.0,0.0,0.0,0.0,0.0,0.0,0.0,0.0,0.0,0.0,0.0,0.0,0.0,0.0,0.0,0.0,0.0,0.0,0.0,0.0,0.0,0.0,0.0,0.0,0.0,0.0,0.0,0.0,0.0,0.0,0.0,0.0,0.0,0.0,-1.3007,-1.2803,-1.2597,-1.2407,-1.2246,-1.2228,-1.2294,0.0,0.0,0.0,0.0,0.0,0.0,0.0,0.0,0.0,0.0,0.0,0.0,0.0,0.0,0.0,0.0,0.0,0.0,0.0,0.0,0.0,0.0,0.0,0.0,0.0,0.0,0.0,0.0,0.0,0.0,0.0,0.0,0.0,0.0,0.0,0.0,0.0,0.0,0.0,0.0,0.0,0.0,0.0,0.0,0.0,0.0,0.0,0.0,0.0,0.0,0.0,0.0,0.0,0.0,0.0,0.0,0.0,0.0,0.0,0.0,0.0,0.0,0.0,0.0,0.0,0.0,0.0,0.0,0.0,0.0,0.0,0.0,0.0,0.0,0.0,0.0,0.0,0.0,0.0,0.0,0.0,0.0,0.0,0.0,0.0,0.0,0.0,0.0,0.0,0.0,0.0,0.0,0.0,0.0,0.0,0.0,0.0,0.0,0.0,0.0,0.0,0.0,0.0,0.0,0.0,0.0,0.0,0.0,-1.3042,-1.2878,-1.2579,-1.2401,-1.2347,-1.2419,-1.2419,0.0,0.0,0.0,0.0,0.0,0.0,0.0,0.0,0.0,0.0,0.0,0.0,0.0,0.0,0.0,0.0,0.0,0.0,0.0,0.0,0.0,0.0,0.0,0.0,0.0,0.0,0.0,0.0,0.0,0.0,0.0,0.0,0.0,0.0,0.0,0.0,0.0,0.0,0.0,0.0,0.0,0.0,0.0,0.0,0.0,0.0,0.0,0.0,-0.9821,0.0,0.0,0.0,0.0,0.0,0.0,0.0,0.0,0.0,0.0,0.0,0.0,0.0,0.0,0.0,0.0,0.0,0.0,0.0,0.0,0.0,0.0,0.0,0.0,0.0,0.0,0.0,0.0,0.0,0.0,0.0,0.0,0.0,0.0,0.0,0.0,0.0,0.0,0.0,0.0,0.0,0.0,0.0,0.0,0.0,0.0,0.0,0.0,0.0,0.0,0.0,0.0,0.0,0.0,0.0,0.0,0.0,0.0,0.0,-1.2978,-1.2878,-1.2597,-1.2437,-1.2383,-1.2437,-1.2437,0.0,0.0,0.0,0.0,0.0,0.0,0.0,0.0,0.0,0.0,0.0,0.0,0.0,0.0,0.0,0.0,0.0,0.0,0.0,0.0,0.0,0.0,0.0,0.0,0.0,0.0,0.0,0.0,0.0,0.0,0.0,0.0,0.0,0.0,0.0,0.0,0.0,0.0,0.0,0.0,0.0,0.0,0.0,0.0,0.0,0.0,0.0,0.0,0.0,0.0,0.0,0.0,0.0,0.0,0.0,0.0,0.0,0.0,0.0,0.0,0.0,0.0,0.0,0.0,0.0,0.0,0.0,0.0,0.0,0.0,0.0,0.0,0.0,0.0,0.0,0.0,0.0,0.0,0.0,0.0,0.0,0.0,0.0,0.0,0.0,0.0,0.0,0.0,0.0,0.0,0.0,0.0,0.0,0.0,0.0,0.0,0.0,0.0,0.0,0.0,0.0,0.0,0.0,0.0,0.0,0.0,0.0,-1.3087,-1.2913,-1.2896,-1.2632,-1.2455,-1.2401,-1.2377,-1.243,-1.2519,0.0,0.0,0.0,0.0,0.0,0.0,0.0,0.0,0.0,0.0,0.0,0.0,0.0,0.0,0.0,0.0,0.0,0.0,0.0,0.0,0.0,0.0,0.0,0.0,0.0,0.0,0.0,0.0,0.0,0.0,0.0,0.0,0.0,0.0,0.0,0.0,0.0,0.0,-1.1067,-1.1381,0.0,0.0,0.0,0.0,0.0,0.0,0.0,0.0,-1.0452,0.0,0.0,0.0,0.0,0.0,0.0,0.0,0.0,0.0,0.0,0.0,0.0,0.0,0.0,0.0,0.0,0.0,0.0,0.0,0.0,0.0,0.0,0.0,0.0,0.0,0.0,0.0,0.0,0.0,0.0,0.0,0.0,0.0,0.0,0.0,0.0,0.0,0.0,0.0,0.0,0.0,0.0,0.0,0.0,0.0,0.0,0.0,0.0,0.0,0.0,0.0,0.0,0.0,0.0,0.0,0.0,-1.3497,-1.3104,-1.2913,-1.2896,-1.2579,-1.2413,-1.2383,-1.2294,-1.2481,-1.3033,0.0,0.0,0.0,0.0,0.0,0.0,0.0,0.0,0.0,0.0,0.0,0.0,0.0,0.0,0.0,0.0,0.0,0.0,0.0,0.0,0.0,0.0,0.0,0.0,0.0,0.0,0.0,0.0,0.0,0.0,0.0,0.0,0.0,0.0,0.0,0.0,0.0,0.0,0.0,-1.0977,-1.1306,0.0,0.0,0.0,0.0,0.0,0.0,0.0,0.0,-1.016,0.0,0.0,0.0,0.0,0.0,0.0,0.0,0.0,0.0,0.0,0.0,0.0,0.0,0.0,0.0,0.0,0.0,0.0,0.0,0.0,0.0,0.0,0.0,0.0,0.0,0.0,0.0,0.0,0.0,0.0,0.0,0.0,0.0,0.0,0.0,0.0,0.0,0.0,0.0,0.0,0.0,0.0,0.0,0.0,0.0,0.0,0.0,0.0,0.0,0.0,0.0,0.0,0.0,0.0,0.0,-1.3497,-1.3104,-1.2913,-1.2896,-1.2573,-1.2383,-1.2383,-1.224,-1.2436,0.0,0.0,0.0,0.0,0.0,0.0,0.0,0.0,0.0,0.0,0.0,0.0,0.0,0.0,0.0,0.0,0.0,0.0,0.0,0.0,0.0,0.0,0.0,0.0,0.0,0.0,0.0,0.0,0.0,0.0,0.0,0.0,0.0,0.0,0.0,0.0,0.0,0.0,0.0,0.0,-1.138,-1.1564,-1.1953,0.0,0.0,0.0,0.0,0.0,0.0,-1.0591,-1.0311,0.0,0.0,0.0,0.0,0.0,0.0,0.0,0.0,0.0,0.0,0.0,0.0,0.0,0.0,0.0,0.0,0.0,0.0,0.0,0.0,0.0,0.0,0.0,0.0,0.0,0.0,0.0,0.0,0.0,0.0,0.0,0.0,0.0,0.0,0.0,0.0,0.0,0.0,0.0,0.0,0.0,0.0,0.0,0.0,0.0,0.0,0.0,0.0,0.0,0.0,0.0,0.0,0.0,0.0,0.0,-1.3476,-1.3121,-1.2943,-1.2896,-1.2591,-1.2401,-1.2347,-1.215,-1.2394,0.0,0.0,0.0,0.0,0.0,0.0,0.0,0.0,0.0,0.0,0.0,0.0,0.0,0.0,0.0,0.0,0.0,0.0,0.0,0.0,0.0,0.0,0.0,0.0,0.0,0.0,0.0,0.0,0.0,0.0,0.0,0.0,0.0,0.0,0.0,0.0,0.0,0.0,0.0,0.0,0.0,-1.1898,-1.223,-1.2177,0.0,0.0,0.0,0.0,-1.0842,-1.0711,0.0,0.0,0.0,0.0,0.0,0.0,0.0,0.0,0.0,0.0,0.0,0.0,0.0,0.0,0.0,0.0,0.0,0.0,0.0,0.0,0.0,0.0,0.0,0.0,0.0,0.0,0.0,0.0,0.0,0.0,0.0,0.0,0.0,0.0,0.0,0.0,0.0,0.0,0.0,0.0,0.0,0.0,0.0,0.0,0.0,0.0,0.0,0.0,0.0,0.0,0.0,0.0,0.0,0.0,0.0,0.0,-1.3425,-1.3198,-1.3042,-1.2878,-1.2632,-1.2419,-1.2228,-1.2023,-1.2423,0.0,0.0,0.0,0.0,0.0,0.0,0.0,0.0,0.0,0.0,0.0,0.0,0.0,0.0,0.0,0.0,0.0,0.0,0.0,0.0,0.0,0.0,0.0,0.0,0.0,0.0,0.0,0.0,0.0,0.0,0.0,0.0,0.0,0.0,0.0,0.0,0.0,0.0,0.0,0.0,0.0,-1.217,-1.2499,-1.2447,-1.2479,0.0,0.0,0.0,-1.1293,-1.0829,0.0,0.0,0.0,0.0,0.0,0.0,0.0,0.0,0.0,0.0,0.0,0.0,0.0,0.0,0.0,0.0,0.0,0.0,0.0,0.0,0.0,0.0,0.0,0.0,0.0,0.0,0.0,0.0,0.0,0.0,0.0,0.0,0.0,0.0,0.0,0.0,0.0,0.0,0.0,0.0,0.0,0.0,0.0,0.0,0.0,0.0,0.0,0.0,0.0,0.0,0.0,0.0,0.0,0.0,0.0,-1.3531,-1.3391,-1.3134,-1.296,-1.2896,-1.2597,-1.2365,-1.221,-1.1998,-1.2381,0.0,0.0,0.0,0.0,0.0,0.0,0.0,0.0,0.0,0.0,0.0,0.0,0.0,0.0,0.0,0.0,0.0,0.0,0.0,0.0,0.0,0.0,0.0,0.0,0.0,0.0,0.0,0.0,0.0,0.0,0.0,0.0,0.0,0.0,0.0,0.0,0.0,0.0,0.0,0.0,0.0,0.0,-1.2876,-1.2864,0.0,0.0,0.0,-1.2154,-1.1266,0.0,0.0,0.0,0.0,0.0,0.0,0.0,0.0,0.0,0.0,0.0,0.0,0.0,0.0,0.0,0.0,0.0,0.0,0.0,0.0,0.0,0.0,0.0,0.0,0.0,0.0,0.0,0.0,0.0,0.0,0.0,0.0,0.0,0.0,0.0,0.0,0.0,0.0,0.0,0.0,0.0,0.0,0.0,0.0,0.0,0.0,0.0,0.0,0.0,0.0,0.0,0.0,0.0,0.0,0.0,0.0,0.0,-1.3306,-1.3082,-1.2925,-1.2861,-1.2591,-1.2336,-1.2174,-1.1979,0.0,0.0,0.0,0.0,0.0,0.0,0.0,0.0,0.0,0.0,0.0,0.0,0.0,0.0,0.0,0.0,0.0,0.0,0.0,0.0,0.0,0.0,0.0,0.0,0.0,0.0,0.0,-1.1618,0.0,0.0,0.0,0.0,0.0,0.0,0.0,0.0,0.0,0.0,0.0,0.0,0.0,0.0,-1.2805,-1.3067,-1.3055,-1.2938,0.0,0.0,-1.228,-1.1291,-1.1046,-1.0707,0.0,0.0,0.0,0.0,0.0,0.0,0.0,0.0,0.0,0.0,0.0,0.0,0.0,0.0,0.0,0.0,0.0,0.0,0.0,0.0,0.0,0.0,0.0,0.0,0.0,0.0,0.0,0.0,0.0,0.0,0.0,0.0,0.0,0.0,0.0,0.0,0.0,0.0,0.0,0.0,0.0,0.0,0.0,0.0,0.0,0.0,0.0,0.0,0.0,0.0,0.0,0.0,0.0,0.0,0.0,-1.3112,-1.3089,-1.299,-1.2803,-1.2597,-1.2365,-1.2102,-1.1918,-1.2009,0.0,0.0,0.0,0.0,0.0,0.0,0.0,0.0,0.0,0.0,0.0,0.0,0.0,0.0,0.0,0.0,0.0,0.0,0.0,0.0,0.0,0.0,0.0,0.0,0.0,0.0,0.0,0.0,0.0,0.0,0.0,0.0,0.0,0.0,0.0,0.0,0.0,0.0,0.0,0.0,0.0,-1.3005,-1.2855,-1.278,-1.2692,0.0,0.0,-1.2213,-1.1653,-1.1143,-1.0802,-1.0809,0.0,0.0,0.0,0.0,0.0,0.0,0.0,0.0,0.0,0.0,0.0,0.0,0.0,0.0,0.0,0.0,0.0,0.0,0.0,0.0,0.0,0.0,0.0,0.0,0.0,0.0,0.0,0.0,0.0,0.0,0.0,0.0,0.0,0.0,0.0,0.0,0.0,0.0,0.0,0.0,0.0,0.0,0.0,0.0,0.0,0.0,0.0,0.0,0.0,0.0,0.0,0.0,0.0,-1.3198,-1.299,-1.2943,-1.2855,-1.2745,-1.2556,-1.2294,-1.1982,-1.1863,-1.1949,0.0,0.0,0.0,0.0,0.0,0.0,0.0,0.0,0.0,0.0,0.0,0.0,0.0,0.0,0.0,0.0,0.0,0.0,0.0,0.0,0.0,0.0,0.0,0.0,0.0,0.0,0.0,0.0,-1.1885,-1.1831,-1.1978,0.0,0.0,0.0,0.0,0.0,0.0,0.0,0.0,0.0,0.0,-1.2785,-1.2632,-1.2556,0.0,0.0,-1.2336,-1.2118,-1.1616,-1.1337,-1.1076,-1.0821,-1.1224,0.0,0.0,0.0,0.0,0.0,0.0,0.0,0.0,0.0,0.0,0.0,0.0,0.0,0.0,0.0,0.0,0.0,0.0,0.0,0.0,0.0,0.0,0.0,0.0,0.0,0.0,0.0,0.0,0.0,0.0,0.0,0.0,0.0,0.0,0.0,0.0,0.0,0.0,0.0,0.0,0.0,0.0,0.0,0.0,0.0,0.0,0.0,0.0,0.0,0.0,0.0,0.0,-1.3025,-1.2855,-1.2785,-1.2697,-1.2556,-1.2413,-1.2186,-1.1902,-1.1771,-1.1788,0.0,0.0,0.0,0.0,0.0,0.0,0.0,0.0,0.0,0.0,0.0,0.0,0.0,0.0,0.0,0.0,0.0,0.0,0.0,0.0,0.0,0.0,0.0,0.0,0.0,0.0,0.0,0.0,-1.224,-1.2253,-1.2193,0.0,0.0,0.0,0.0,0.0,0.0,0.0,0.0,0.0,0.0,-1.2585,-1.2473,-1.2401,-1.2318,-1.2336,-1.2192,-1.1987,-1.167,-1.1457,-1.1301,-1.115,0.0,0.0,0.0,0.0,0.0,0.0,0.0,0.0,0.0,0.0,0.0,0.0,0.0,0.0,0.0,0.0,0.0,0.0,0.0,0.0,0.0,0.0,0.0,0.0,0.0,0.0,0.0,0.0,0.0,0.0,-1.2496,0.0,0.0,0.0,0.0,0.0,0.0,0.0,0.0,0.0,0.0,0.0,0.0,0.0,0.0,0.0,0.0,0.0,0.0,0.0,0.0,0.0,0.0,0.0,-1.2704,-1.2733,-1.255,-1.2228,-1.215,-1.1993,-1.1804,-1.1604,-1.1488,-1.1456,0.0,0.0,0.0,0.0,0.0,0.0,0.0,0.0,0.0,0.0,0.0,0.0,0.0,0.0,0.0,0.0,0.0,0.0,0.0,0.0,0.0,0.0,0.0,0.0,0.0,0.0,-1.2221,-1.2314,-1.2391,0.0,0.0,0.0,0.0,0.0,0.0,0.0,0.0,0.0,0.0,-1.252,-1.2413,-1.2413,-1.2282,-1.2192,-1.2198,-1.2023,-1.1899,-1.1895,-1.1506,-1.1417,0.0,0.0,0.0,0.0,0.0,0.0,0.0,0.0,0.0,0.0,0.0,0.0,0.0,0.0,0.0,0.0,0.0,0.0,0.0,0.0,0.0,0.0,0.0,0.0,0.0,0.0,0.0,-1.3408,-1.324,0.0,0.0,0.0,0.0,0.0,0.0,0.0,0.0,0.0,0.0,0.0,-1.3296,-1.3285,0.0,0.0,0.0,0.0,0.0,0.0,0.0,0.0,0.0,0.0,0.0,0.0,-1.3407,-1.2993,-1.2925,-1.2656,-1.2143,-1.2029,-1.1847,-1.1604,-1.1825,-1.2036,-1.2198,0.0,0.0,0.0,0.0,0.0,0.0,0.0,0.0,0.0,0.0,0.0,0.0,0.0,0.0,0.0,0.0,0.0,0.0,0.0,0.0,0.0,0.0,0.0,0.0,0.0,-1.2501,0.0,0.0,0.0,0.0,0.0,0.0,0.0,0.0,0.0,0.0,0.0,-1.2526,-1.2323,-1.224,-1.2161,-1.2027,-1.1954,-1.1925,0.0,0.0,0.0,0.0,0.0,0.0,0.0,0.0,0.0,0.0,0.0,0.0,0.0,0.0,-1.2431,-1.2624,-1.2689,-1.2746,-1.2782,0.0,0.0,0.0,0.0,0.0,0.0,0.0,0.0,0.0,0.0,0.0,0.0,0.0,0.0,0.0,0.0,-1.332,0.0,0.0,0.0,0.0,0.0,0.0,0.0,0.0,-1.3531,-1.3477,-1.3488,-1.3488,-1.3553,0.0,-1.3737,-1.3962,0.0,0.0,0.0,0.0,0.0,0.0,0.0,0.0,-1.3681,-1.3298,-1.313,-1.2852,-1.2388,-1.2251,-1.2078,-1.1908,-1.2089,-1.2307,-1.2542,-1.2235,-1.2113,0.0,0.0,0.0,0.0,0.0,0.0,0.0,0.0,0.0,0.0,0.0,0.0,0.0,0.0,0.0,0.0,0.0,0.0,0.0,0.0,0.0,0.0,0.0,-1.2419,0.0,0.0,0.0,0.0,0.0,0.0,0.0,0.0,0.0,-1.2372,-1.2336,-1.2216,-1.2048,-1.2023,-1.1943,-1.1819,0.0,0.0,0.0,0.0,0.0,0.0,0.0,-1.1756,-1.1756,-1.1815,-1.1877,-1.1877,-1.1943,-1.2004,-1.2023,0.0,0.0,-1.2573,-1.2685,-1.2803,-1.3005,-1.3173,-1.331,-1.3484,-1.3689,-1.3888,0.0,0.0,0.0,0.0,0.0,0.0,0.0,0.0,-1.4154,-1.3837,0.0,-1.3385,0.0,0.0,0.0,0.0,0.0,0.0,0.0,0.0,-1.4106,-1.3997,-1.401,-1.3999,-1.408,-1.4199,-1.4305,-1.4432,-1.4559,-1.4516,0.0,0.0,0.0,0.0,0.0,0.0,-1.3709,-1.3584,-1.3348,-1.312,-1.2889,-1.2731,-1.2647,-1.2595,-1.2328,-1.2285,-1.2403,-1.2306,-1.2163,-1.2025,-1.2101,0.0,0.0,0.0,0.0,0.0,0.0,0.0,0.0,0.0,0.0,0.0,0.0,0.0,0.0,0.0,0.0,0.0,0.0,0.0,0.0,-1.1859,0.0,0.0,0.0,0.0,0.0,0.0,0.0,0.0,0.0,0.0,-1.212,-1.2,-1.1891,-1.1891,0.0,0.0,0.0,0.0,-1.1782,-1.1782,-1.1719,-1.1675,-1.1693,-1.1664,-1.1675,-1.1675,0.0,0.0,-1.1793,-1.1782,-1.1775,-1.1701,-1.1682,-1.183,-1.2269,-1.2347,-1.2455,-1.2715,-1.2785,-1.2878,-1.3096,-1.3216,-1.3336,-1.433,0.0,0.0,0.0,0.0,-1.4104,-1.408,-1.4044,-1.3858,-1.369,-1.3518,-1.3541,0.0,0.0,0.0,0.0,0.0,0.0,-1.3986,-1.4104,-1.4044,-1.3997,-1.3997,-1.3997,-1.402,-1.4046,-1.4104,-1.4138,-1.4174,-1.4357,-1.453,-1.4778,0.0,0.0,0.0,0.0,-1.4248,-1.3759,-1.3607,-1.3292,-1.2764,-1.2584,-1.2539,-1.2662,-1.2548,-1.2645,-1.2942,-1.2759,-1.2478,-1.2162,-1.1941,0.0,0.0,0.0,0.0,0.0,0.0,0.0,0.0,0.0,0.0,0.0,0.0,0.0,0.0,0.0,0.0,0.0,0.0,0.0,-1.1812,-1.1782,-1.1752,0.0,0.0,0.0,0.0,0.0,0.0,0.0,0.0,0.0,-1.1604,-1.1619,-1.159,0.0,0.0,-1.1477,-1.1373,-1.1373,-1.1373,-1.1373,0.0,0.0,0.0,-1.1354,-1.1346,-1.1346,-1.1354,-1.1392,-1.1496,-1.1429,-1.1392,-1.1459,-1.1373,-1.1333,-1.1516,-1.1774,-1.2029,-1.224,-1.2347,-1.2389,-1.2478,-1.262,-1.2726,-1.478,-1.4183,-1.4254,-1.4328,-1.4377,-1.4342,-1.4317,-1.4303,-1.407,-1.396,-1.396,-1.3936,-1.3918,-1.3796,-1.3894,0.0,0.0,0.0,-1.3892,-1.3834,-1.3763,-1.3726,-1.3681,-1.3739,-1.3763,-1.3773,-1.3868,-1.3915,-1.3915,-1.4127,-1.4361,-1.4547,0.0,0.0,-1.4766,-1.4639,-1.4346,-1.3981,-1.3766,-1.3468,-1.3059,-1.2848,-1.2789,-1.2895,-1.2832,-1.2939,-1.3174,-1.3,-1.2769,-1.2445,-1.2089,-1.1765,0.0,0.0,0.0,0.0,0.0,0.0,0.0,0.0,0.0,0.0,0.0,-1.1775,0.0,0.0,0.0,0.0,-1.1682,-1.1645,-1.1645,-1.1571,0.0,0.0,0.0,0.0,0.0,0.0,0.0,-1.1506,-1.128,-1.1118,-1.1136,-1.1115,-1.1191,-1.1298,-1.1309,-1.129,-1.1214,0.0,-1.1204,-1.1204,-1.1204,-1.1204,-1.1204,-1.1185,-1.1136,-1.1088,-1.1099,-1.1099,-1.1174,-1.1136,-1.1099,-1.1088,-1.1021,-1.0954,-1.101,-1.1207,-1.1449,-1.1719,-1.1818,-1.1872,-1.1927,-1.2054,-1.2156,-1.5229,-1.4889,-1.5021,-1.5043,-1.4945,-1.4829,-1.4767,-1.4777,-1.4566,-1.4506,-1.4486,-1.4496,-1.4371,-1.4134,-1.3945,0.0,-1.4042,-1.3936,-1.3782,-1.3676,-1.3522,-1.3425,-1.3294,-1.3425,-1.3484,-1.3498,-1.3693,-1.3802,-1.3826,-1.3913,-1.3949,-1.3962,-1.4325,-1.45,-1.4534,-1.428,-1.4152,-1.4142,-1.3766,-1.3573,-1.3539,-1.3324,-1.318,-1.316,-1.3089,-1.3113,-1.317,-1.3138,-1.2986,-1.2777,-1.2423,-1.2025,-1.1602,0.0,0.0,0.0,0.0,0.0,0.0,0.0,0.0,0.0,0.0,0.0,0.0,0.0,0.0,0.0,-1.1526,0.0,-1.1413,-1.1271,0.0,0.0,0.0,-1.1982,-1.2319,-1.1965,-1.1643,-1.1491,0.0,0.0,-1.0658,0.0,-1.0708,-1.109,-1.1158,-1.1147,-1.1136,-1.1147,-1.1136,-1.1128,-1.1147,-1.1147,-1.1109,-1.1061,-1.0983,-1.0907,-1.0878,-1.0878,-1.0888,-1.0859,-1.0821,-1.0715,-1.0658,-1.0639,-1.0639,-1.0658,-1.0753,-1.1121,-1.1244,-1.1338,-1.1494,-1.1542,-1.1597,-1.5711,-1.5649,-1.5659,-1.5292,-1.4629,-1.4566,-1.4576,-1.4549,-1.4407,-1.4327,-1.4364,-1.4354,-1.4384,-1.4405,-1.4356,-1.4368,-1.4383,-1.4332,-1.4316,-1.428,-1.4254,-1.4228,-1.4202,-1.4228,-1.4228,-1.4234,-1.3998,-1.3896,-1.3876,-1.3641,-1.3549,-1.3539,-1.3634,-1.3834,-1.4138,-1.3986,-1.3823,-1.3739,-1.3539,-1.3334,-1.3089,-1.2983,-1.291,-1.2837,-1.2798,-1.2847,-1.2958,-1.3061,-1.2924,-1.251,-1.2504,-1.2135,-1.1348,-1.1206,0.0,0.0,0.0,0.0,0.0,0.0,0.0,0.0,0.0,-1.1488,-1.1496,0.0,-1.1533,0.0,-1.1459,-1.1413,-1.1413,-1.1233,0.0,0.0,-1.1551,-1.1655,-1.1976,-1.184,-1.1565,-1.1215,-1.0983,-1.0725,-1.0429,-1.037,-1.0419,-1.0496,-1.065,-1.0746,-1.0746,-1.0736,-1.0746,-1.0765,-1.0755,-1.0746,-1.0746,-1.0736,-1.0687,-1.0678,-1.0678,-1.0678,-1.0678,-1.0572,-1.0515,-1.0476,-1.0341,-1.0244,-1.0254,-1.0205,-1.0225,-1.039,-1.0706,-1.101,-1.1048,-1.1067,-1.1086,-1.5759,-1.5672,-1.5624,-1.5252,-1.4727,-1.4856,-1.4966,-1.5032,-1.48,-1.4745,-1.478,-1.4676,-1.4651,-1.4713,-1.4587,-1.4486,-1.4486,-1.4486,-1.447,-1.4417,-1.4417,-1.438,-1.4337,-1.438,-1.4417,-1.4407,-1.4246,-1.4062,-1.3897,-1.371,-1.3527,-1.329,-1.3314,-1.342,-1.361,-1.3563,-1.3491,-1.3409,-1.3262,-1.3031,-1.2725,-1.2725,-1.2676,-1.2603,-1.2612,-1.2676,-1.2808,-1.2881,-1.287,-1.2705,-1.2599,-1.2293,-1.1762,-1.1312,-1.1053,0.0,0.0,0.0,0.0,0.0,0.0,0.0,0.0,0.0,0.0,0.0,-1.1466,0.0,-1.1365,-1.129,-1.1282,-1.1241,-1.1386,-1.1737,-1.1803,-1.1975,-1.2302,-1.2037,-1.171,-1.1349,-1.0941,-1.0574,-1.0284,-1.0124,-1.0039,-1.0039,-1.0117,-1.0283,-1.0428,-1.0476,-1.0515,-1.0515,-1.0563,-1.0582,-1.0534,-1.0486,-1.0458,-1.039,-1.0361,-1.0341,-1.0322,-1.0283,-1.0235,-1.0225,-1.0127,-1.0049,-1.0049,-1.0019,-1.0029,-1.0078,-1.0273,-1.0505,-1.0621,-1.064,-1.064,-1.5517,-1.5332,-1.5205,-1.5068,-1.497,-1.5186,-1.5391,-1.5595,-1.5303,-1.5235,-1.5371,-1.5114,-1.5051,-1.5022,-1.4745,-1.464,-1.4613,-1.463,-1.4549,-1.4432,-1.4432,-1.4388,-1.427,-1.4388,-1.4442,-1.4459,-1.4526,-1.435,-1.4026,-1.3896,-1.3646,-1.3236,-1.3176,-1.3122,-1.3146,-1.3122,-1.3122,-1.3098,-1.2944,-1.271,-1.2455,-1.2421,-1.2431,-1.2421,-1.2421,-1.248,-1.2627,-1.2652,-1.2759,-1.2992,-1.2638,-1.2371,-1.2246,-1.1418,-1.1029,0.0,-1.0897,0.0,0.0,0.0,0.0,0.0,0.0,0.0,0.0,-1.1421,-1.1429,-1.1365,-1.1295,-1.1242,-1.1157,-1.1346,-1.1653,-1.2069,-1.2263,-1.2496,-1.2754,-1.2339,-1.1902,-1.1588,-1.0868,-1.0337,-1.0128,-0.984,-0.9603,-0.9594,-0.9634,-0.9763,-1.0069,-1.0215,-1.0293,-1.037,-1.0448,-1.0428,-1.0351,-1.0293,-1.0225,-1.0108,-1.0069,-1.0009,-1.0029,-1.0,-0.998,-0.998,-0.9961,-0.9961,-0.997,-0.995,-0.9921,-0.9921,-0.9921,-0.999,-1.0205,-1.0293,-1.0273,-1.5215,-1.5049,-1.4872,-1.4775,-1.4715,-1.4508,-1.4695,-1.5117,-1.5059,-1.5117,-1.5235,-1.5187,-1.5226,-1.5312,-1.5272,-1.5223,-1.5223,-1.5233,-1.5233,-1.5176,-1.5204,-1.5166,-1.5176,-1.5195,-1.5176,-1.5175,-1.488,-1.4712,-1.4614,-1.39,-1.3543,-1.342,-1.3012,-1.2798,-1.2788,0.0,0.0,0.0,-1.2505,-1.2323,-1.2175,-1.2085,-1.2002,-1.2002,-1.2026,0.0,-1.2382,-1.2372,-1.2455,-1.2603,-1.2526,0.0,0.0,0.0,0.0,0.0,0.0,0.0,0.0,0.0,0.0,0.0,-1.0755,-1.1012,-1.1139,-1.1214,-1.1252,-1.1252,-1.1445,-1.1567,-1.1458,-1.1768,-1.2036,-1.2155,-1.2201,-1.2285,-1.2389,-1.2199,-1.1895,-1.1389,-1.0722,-1.018,-0.986,-0.94,-0.9154,-0.9165,-0.9217,-0.9317,-0.9397,-0.9715,-0.9961,-1.0049,-1.0137,-1.0108,-1.0078,-1.0059,-1.0059,-1.0019,-1.0029,-1.0,-0.999,-0.9882,-0.9842,-0.9823,-0.9793,-0.9762,-0.9762,-0.9654,-0.9594,-0.9603,-0.9516,-0.9547,-0.998,-1.0059,-1.0059,-1.4872,0.0,-1.4478,-1.433,0.0,-1.3971,-1.4001,-1.427,-1.4517,-1.4725,-1.4961,-1.5059,-1.5147,-1.5186,-1.5196,-1.5186,-1.5225,-1.5196,-1.5186,-1.5225,-1.5196,-1.5196,-1.5186,-1.5225,-1.5225,-1.5177,-1.4984,-1.4773,-1.4504,-1.3907,-1.3494,-1.3301,-1.2828,-1.2603,-1.2603,-1.2406,-1.2298,-1.2298,-1.2224,-1.2067,-1.1803,-1.1753,-1.1678,-1.1594,0.0,0.0,0.0,0.0,0.0,0.0,0.0,0.0,0.0,0.0,0.0,-1.0459,-1.0324,-1.0243,-1.0254,-1.0455,-1.0547,-1.0371,-1.0784,-1.118,-1.1455,-1.1466,-1.1502,-1.1671,-1.1799,-1.1809,-1.1714,-1.1969,-1.2163,-1.2207,-1.2177,-1.2147,-1.2163,-1.1977,-1.1681,-1.1321,-1.0787,-1.0237,-0.9795,-0.9359,-0.9056,-0.8879,-0.8906,-0.8987,-0.9116,-0.9486,-0.9803,-0.9961,-1.0009,-1.0009,-1.0009,-0.9941,-0.9902,-0.9902,-0.9872,-0.9832,-0.9773,-0.9693,-0.9625,-0.9576,-0.9536,-0.9506,-0.9506,-0.9446,-0.9406,-0.9406,-0.9357,-0.9359,-0.9607,-0.9695,-0.9773,-1.4588,-1.4429,-1.4107,-1.3909,-1.3808,-1.3686,-1.3585,-1.3607,0.0,0.0,0.0,-1.4843,-1.497,-1.5009,-1.5009,-1.5009,-1.5009,-1.5009,-1.5009,-1.5009,-1.5009,-1.5009,-1.5009,-1.5009,-1.5009,-1.5009,-1.5009,-1.48,-1.4412,-1.3938,-1.3522,-1.3181,-1.2692,-1.2397,-1.2357,-1.2101,-1.1977,-1.1952,-1.1952,-1.1803,-1.1477,-1.1402,-1.1293,-1.12,-1.1167,-1.1226,-1.1352,-1.1469,-1.1434,-1.1196,-1.1279,-1.1163,-1.073,-1.0401,-1.0328,-1.0578,-1.0428,-1.0284,-1.0275,-1.0544,-1.0612,-1.039,-1.0824,-1.1328,-1.1868,-1.1798,-1.184,-1.2128,-1.2099,-1.2051,-1.1951,-1.2158,-1.225,-1.219,-1.2127,-1.2076,-1.1952,-1.1669,-1.1418,-1.1217,-1.0729,-1.0274,-0.98,-0.9346,-0.8981,-0.8692,-0.8651,-0.8753,-0.8996,-0.9366,-0.9664,-0.9842,-0.9872,-0.9902,-0.9921,-0.9823,-0.9763,-0.9724,-0.9674,-0.9585,-0.9495,-0.9455,-0.9406,-0.9348,-0.9308,-0.9319,-0.9308,-0.9299,-0.9288,-0.9279,-0.9259,-0.9239,-0.9239,-0.9346,-0.9455,-1.4498,-1.4289,-1.3976,-1.3901,-1.3991,-1.3999,-1.3999,-1.4014,-1.3894,-1.4121,-1.4538,-1.4558,-1.4715,-1.5009,-1.5009,-1.5009,-1.5009,-1.5009,-1.5009,0.0,-1.5009,-1.5009,-1.5009,-1.5009,-1.5009,-1.5009,-1.5009,-1.4971,-1.4829,-1.4108,-1.3664,-1.3495,-1.2647,-1.2051,-1.1828,-1.1644,-1.1528,-1.1427,-1.1402,-1.1377,-1.1326,-1.0998,-1.082,-1.0769,-1.0667,-1.0675,-1.0794,-1.0947,-1.0897,-1.0639,-1.0733,-1.0554,-1.0003,-0.9888,-0.9768,-0.9555,-0.9495,-0.9558,-0.9785,-0.9865,-1.0098,-1.0597,-1.0725,-1.1085,-1.1821,-1.1893,-1.1892,-1.195,-1.2181,-1.2299,-1.2191,-1.2425,-1.2464,-1.2156,-1.2113,-1.1918,-1.1502,-1.1377,-1.1217,-1.0989,-1.0491,-1.0027,-0.96,-0.9134,-0.8684,-0.8377,-0.8386,-0.8578,-0.8923,-0.9208,-0.9417,-0.9545,-0.9574,-0.9614,-0.9693,-0.9643,-0.9554,-0.9534,-0.9437,-0.9388,-0.9348,-0.9337,-0.9308,-0.9279,-0.9288,-0.9268,-0.9288,-0.9248,-0.9188,-0.9197,-0.9108,-0.9027,-0.9056,-0.9145,-0.9246,-1.4425,-1.4135,-1.3819,-1.368,-1.3592,-1.3534,-1.3634,-1.3817,-1.3728,-1.4018,-1.4577,-1.4858,-1.5086,-1.5219,-1.5334,-1.5396,-1.5386,-1.5386,-1.5275,-1.5079,-1.5039,-1.4928,-1.4753,-1.4714,-1.4714,-1.4743,-1.4714,-1.4714,-1.463,-1.3821,-1.3377,-1.3304,-1.2317,-1.1669,-1.1494,-1.1352,-1.1175,-1.0964,-1.1049,-1.1032,-1.0871,-1.0624,-1.0437,-1.0334,-1.0265,-1.0257,-1.0334,-1.0496,-1.0396,-1.0084,-1.0081,-0.9873,-0.9413,-0.9329,-0.9245,-0.9093,-0.9197,-0.9297,-0.9426,-0.9742,-1.0211,-1.0846,-1.1092,-1.147,-1.2177,-1.2061,-1.2054,-1.2312,-1.2424,-1.2411,-1.2364,-1.2366,-1.2298,-1.2135,-1.1843,-1.1578,-1.1326,-1.1099,-1.093,-1.0786,-1.0446,-1.001,-0.9462,-0.9081,-0.8652,-0.8221,-0.8262,-0.8496,-0.8659,-0.8846,-0.9088,-0.9317,-0.9406,-0.9417,-0.9466,-0.9437,-0.9397,-0.9386,-0.9328,-0.9288,-0.9268,-0.9257,-0.9197,-0.9096,-0.9096,-0.9056,-0.9007,-0.8947,-0.8926,-0.8926,-0.8886,-0.8854,-0.8854,-0.8886,-0.9007,-1.4313,-1.4005,-1.3727,-1.3538,-1.3465,-1.326,-1.3396,-1.3711,-1.382,-1.4117,-1.4631,-1.504,-1.5278,-1.5416,-1.556,-1.5657,-1.5689,-1.5689,-1.5478,-1.5089,-1.504,-1.4799,-1.4414,-1.4387,-1.4387,-1.4387,-1.4387,-1.4387,-1.4296,-1.3484,-1.2914,-1.2627,-1.1842,-1.1318,-1.1175,-1.1049,-1.0845,-1.0624,-1.0616,-1.059,-1.047,-1.0265,-1.0084,-0.9921,-0.9836,-0.9818,-0.9836,-1.0025,-0.9967,-0.9611,-0.9565,-0.9397,-0.9091,-0.899,-0.8956,-0.8952,-0.9062,-0.9176,-0.9264,-0.9791,-1.0398,-1.0998,-1.1334,-1.1731,-1.2214,-1.2114,-1.2177,-1.2545,-1.2501,-1.2437,-1.2412,-1.2224,-1.2051,-1.2002,-1.1594,-1.1301,-1.12,-1.0922,-1.0675,-1.0598,-1.0411,-1.0025,-0.9384,-0.9067,-0.8693,-0.8167,-0.8172,-0.8324,-0.8394,-0.8541,-0.8756,-0.9039,-0.9179,-0.9268,-0.9288,-0.9299,-0.9288,-0.9259,-0.9228,-0.9177,-0.9145,-0.9096,-0.9036,-0.8903,-0.8862,-0.8834,-0.8736,-0.8716,-0.8716,-0.8736,-0.8736,-0.8716,-0.8716,-0.8716,-0.8777,-1.4138,-1.4034,-1.3662,-1.3734,-1.3971,-1.3786,-1.3814,-1.405,-1.4359,-1.4554,-1.4592,-1.4664,-1.4946,-1.5352,-1.5443,-1.555,-1.5693,-1.5698,-1.5433,-1.497,-1.4916,-1.4606,-1.4114,-1.4049,-1.4049,-1.404,-1.404,-1.404,-1.3995,-1.3221,-1.2378,-1.1533,-1.1226,-1.0998,-1.0769,-1.0624,-1.0496,-1.0342,-1.0058,-1.0025,-1.0265,-0.9906,-0.964,-0.9621,-0.9394,-0.929,-0.9316,-0.9517,-0.95,-0.9214,-0.9394,-0.9413,-0.9213,-0.9158,-0.9115,-0.8996,-0.9015,-0.9114,-0.9397,-0.9938,-1.0463,-1.0877,-1.1084,-1.1351,-1.1758,-1.1857,-1.207,-1.2372,-1.2372,-1.2323,-1.2298,-1.2076,-1.1868,-1.1728,-1.1469,-1.1226,-1.0972,-1.0794,-1.0624,-1.0342,-1.0298,-0.9957,-0.9194,-0.8934,-0.8603,-0.801,-0.7987,-0.8131,-0.8311,-0.8365,-0.8508,-0.8724,-0.8886,-0.9088,-0.9199,-0.9228,-0.9177,-0.9185,-0.9065,-0.8964,-0.8923,-0.8854,-0.8716,-0.8744,-0.8724,-0.8724,-0.8695,-0.8695,-0.8675,-0.8655,-0.8655,-0.8704,-0.8695,-0.8675,-0.8724,-1.4143,-1.391,-1.3731,-1.3691,-1.3739,-1.3645,-1.3754,-1.3928,-1.4072,-1.4289,-1.4581,-1.4576,-1.4982,-1.5642,-1.5838,-1.5974,-1.6066,-1.6033,-1.5784,-1.5367,-1.5047,-1.4633,-1.418,-1.3826,-1.37,-1.37,-1.3692,-1.37,-1.354,-1.2777,-1.1878,-1.1014,-1.0744,-1.0573,-1.0445,-1.0213,-1.0025,-0.988,-0.9681,-0.9577,-0.9636,-0.9543,-0.9439,-0.9361,-0.9256,-0.9178,-0.9204,-0.9316,-0.9304,-0.9176,-0.9155,-0.9129,-0.9156,-0.9032,-0.8975,-0.8996,-0.9079,-0.9191,-0.9334,-0.9857,-1.0303,-1.0526,-1.0876,-1.1246,-1.1551,-1.1628,-1.1769,-1.1977,-1.2092,-1.216,-1.2042,-1.1868,-1.1703,-1.1477,-1.1226,-1.1006,-1.0828,-1.0598,-1.0419,-1.0298,-1.0136,-0.9814,-0.9272,-0.8773,-0.832,-0.7898,-0.787,-0.7995,-0.8106,-0.8139,-0.8275,-0.8467,-0.859,-0.8712,-0.8906,-0.8926,-0.8906,-0.8886,-0.8846,-0.8785,-0.8773,-0.8765,-0.8675,-0.8594,-0.8602,-0.8561,-0.8508,-0.8529,-0.8529,-0.8529,-0.8529,-0.8537,-0.8508,-0.8508,-0.8529,-1.4044,-1.3717,-1.3608,-1.3463,-1.3346,-1.3382,-1.3499,-1.3645,-1.3754,-1.4044,-1.4361,-1.4497,-1.49,-1.547,-1.5929,-1.6167,-1.6167,-1.6237,-1.5947,-1.5451,-1.4978,-1.4485,-1.4021,-1.3537,-1.3268,-1.323,-1.3208,-1.3137,-1.2911,-1.2233,-1.1364,-1.0584,-1.0265,-1.011,-1.0058,-0.9818,-0.9629,-0.9491,-0.9387,-0.929,-0.9185,-0.9237,-0.9237,-0.9159,-0.9106,-0.9087,-0.9087,-0.9113,-0.9133,-0.9126,-0.9038,-0.9026,-0.9127,-0.8984,-0.8938,-0.8968,-0.9102,-0.9197,-0.9306,-0.9778,-1.0139,-1.0311,-1.0705,-1.1032,-1.1226,-1.1293,-1.1418,-1.1594,-1.1803,-1.1902,-1.1843,-1.1753,-1.1603,-1.1377,-1.1091,-1.0879,-1.0744,-1.0496,-1.029,-1.0213,-0.9981,-0.9628,-0.9204,-0.8599,-0.8019,-0.7735,-0.7712,-0.7767,-0.7787,-0.7863,-0.8008,-0.8229,-0.827,-0.8406,-0.8635,-0.8736,-0.8695,-0.8675,-0.8675,-0.8643,-0.8602,-0.8602,-0.8561,-0.8406,-0.8427,-0.8447,-0.8447,-0.8414,-0.8422,-0.8394,-0.8394,-0.8414,-0.8414,-0.8414,-0.8414,-1.3717,-1.3455,-1.3119,-1.2973,-1.2936,-1.3119,-1.3229,-1.3266,-1.3608,-1.3826,-1.3899,-1.4253,-1.4497,-1.4705,-1.5434,-1.5823,-1.5833,-1.5991,-1.5661,-1.501,-1.4572,-1.4015,-1.3332,-1.2975,-1.2744,-1.2605,-1.2574,-1.224,-1.1643,-1.1426,-1.0899,-1.0081,-0.9877,-0.9688,-0.9524,-0.9446,-0.9368,-0.9237,-0.9211,-0.914,-0.9035,-0.9008,-0.9008,-0.9008,-0.8883,-0.8831,-0.8857,-0.8929,-0.9008,-0.9001,-0.9105,-0.9176,-0.9183,-0.9181,-0.9085,-0.8955,-0.9032,-0.9163,-0.9348,-0.9721,-1.0049,-1.0251,-1.0387,-1.059,-1.0744,-1.0871,-1.1049,-1.1301,-1.1452,-1.1603,-1.1653,-1.1678,-1.1603,-1.1452,-1.1124,-1.093,-1.0879,-1.0488,-1.0239,-1.0051,-0.987,-0.9488,-0.884,-0.8339,-0.7903,-0.7617,-0.7475,-0.7454,-0.7551,-0.7642,-0.7767,-0.7891,-0.7987,-0.8185,-0.8574,-0.8594,-0.8614,-0.8594,-0.8472,-0.848,-0.8406,-0.8332,-0.827,-0.8229,-0.827,-0.8311,-0.8373,-0.8394,-0.8394,-0.8394,-0.8394,-0.8394,-0.8394,-0.8394,-0.8394,-1.3309,-1.3119,-1.2973,-1.29,-1.29,-1.2966,-1.301,-1.3039,-1.3273,-1.3499,-1.3637,-1.3891,-1.4109,-1.431,-1.4713,-1.5106,-1.5382,-1.5355,-1.5182,-1.4808,-1.4092,-1.3554,-1.3264,-1.2672,-1.2313,-1.2243,-1.2112,-1.1669,-1.099,-1.0787,-1.0341,-0.9731,-0.9498,-0.9368,-0.9263,-0.9185,-0.9106,-0.9061,-0.9008,-0.8929,-0.8883,-0.8857,-0.8857,-0.885,-0.8837,-0.8778,-0.8778,-0.8831,-0.8857,-0.8864,-0.891,-0.8989,-0.9061,-0.9159,-0.9162,-0.9109,-0.9146,-0.9172,-0.9263,-0.9459,-0.9629,-0.9732,-0.9921,-1.0136,-1.0265,-1.0496,-1.0726,-1.0922,-1.12,-1.1352,-1.1352,-1.1452,-1.1469,-1.1276,-1.1049,-1.0879,-1.0726,-1.0385,-1.0076,-0.9966,-0.9751,-0.9271,-0.8726,-0.8352,-0.7991,-0.7539,-0.7412,-0.7391,-0.7433,-0.7482,-0.7538,-0.7614,-0.7669,-0.7752,-0.8002,-0.8193,-0.8247,-0.8218,-0.8177,-0.8185,-0.8131,-0.8139,-0.8098,-0.8167,-0.8167,-0.8258,-0.8332,-0.8394,-0.8394,-0.8394,-0.8394,-0.8394,-0.8394,-0.8394,-0.8394,-1.2936,-1.2826,-1.2753,-1.2673,-1.2716,-1.279,-1.2783,-1.282,-1.301,-1.3193,-1.3309,-1.3455,-1.3601,-1.3804,-1.3956,-1.4245,-1.4641,-1.4685,-1.4685,-1.4478,-1.3568,-1.3083,-1.2869,-1.2204,-1.1809,-1.1747,-1.1622,-1.1244,-1.0639,-1.0408,-1.0002,-0.9439,-0.9221,-0.9113,-0.9061,-0.8989,-0.8936,-0.891,-0.8857,-0.8804,-0.8778,-0.8778,-0.8778,-0.8778,-0.8778,-0.8778,-0.8778,-0.8778,-0.8778,-0.8778,-0.8778,-0.8857,-0.8929,-0.8975,-0.9001,-0.9001,-0.8975,-0.8975,-0.9028,-0.9126,-0.9211,-0.9283,-0.9472,-0.9662,-0.9862,-1.0069,-1.0326,-1.0616,-1.0845,-1.1023,-1.1124,-1.1276,-1.1326,-1.115,-1.0998,-1.0871,-1.0735,-1.0316,-0.9981,-0.9784,-0.9577,-0.9127,-0.8585,-0.8315,-0.7895,-0.737,-0.7223,-0.7167,-0.7188,-0.7209,-0.7251,-0.7294,-0.7384,-0.7454,-0.7587,-0.7746,-0.7946,-0.7966,-0.8034,-0.7992,-0.7959,-0.7966,-0.8008,-0.8085,-0.8147,-0.8229,-0.8311,-0.8373,-0.8394,-0.8394,-0.8394,-0.8394,-0.8394,-0.8394,-0.8394,-1.2599,-1.2562,-1.2372,-1.2342,-1.2378,-1.2526,-1.2599,-1.2636,-1.282,-1.29,-1.2936,-1.2936,-1.3083,-1.32,-1.3302,-1.3346,-1.3593,-1.3991,-1.4083,-1.375,-1.3087,-1.2613,-1.227,-1.1685,-1.1279,-1.1192,-1.1129,-1.0929,-1.0532,-1.021,-0.9812,-0.9412,-0.9078,-0.8903,-0.8811,-0.8785,-0.8778,-0.8778,-0.8785,-0.8752,-0.8778,-0.8778,-0.8778,-0.8778,-0.8778,-0.8778,-0.8778,-0.8778,-0.8778,-0.8778,-0.8778,-0.8778,-0.8771,-0.8712,-0.8626,-0.8633,-0.8501,-0.8501,-0.86,-0.8745,-0.8877,-0.8982,-0.9106,-0.9316,-0.9524,-0.9647,-0.9888,-1.0308,-1.0496,-1.0641,-1.0972,-1.1099,-1.115,-1.1242,-1.1049,-1.0905,-1.0769,-1.036,-0.9844,-0.9524,-0.9387,-0.9072,-0.8497,-0.8129,-0.7744,-0.7204,-0.6864,-0.6751,-0.6793,-0.6829,-0.6893,-0.6935,-0.7041,-0.7167,-0.723,-0.7335,-0.7587,-0.7774,-0.7863,-0.7897,-0.7842,-0.7842,-0.7912,-0.7981,-0.8106,-0.8167,-0.8332,-0.8394,-0.8394,-0.8394,-0.8394,-0.8394,-0.8394,-0.8394,-0.8394,-1.2378,-1.2378,-1.2335,-1.2305,-1.2298,-1.2372,-1.2415,-1.2409,-1.2636,-1.2709,-1.2709,-1.2826,-1.2936,-1.2973,-1.301,-1.2936,-1.2879,-1.2906,-1.2977,-1.2976,-1.2503,-1.2066,-1.1718,-1.1351,-1.1059,-1.0926,-1.0902,-1.0619,-1.0151,-0.9833,-0.9447,-0.9004,-0.873,-0.8566,-0.8527,-0.8533,-0.8507,-0.8501,-0.8533,-0.856,-0.8633,-0.8659,-0.8718,-0.8778,-0.8778,-0.8778,-0.8778,-0.8778,-0.8778,-0.8778,-0.8778,-0.8752,-0.8659,-0.8626,-0.8553,-0.8468,-0.8421,-0.8395,-0.8448,-0.8507,-0.8533,-0.8639,-0.8798,-0.8956,-0.9087,-0.9309,-0.9569,-0.9888,-1.0043,-1.0308,-1.0624,-1.0769,-1.0922,-1.1124,-1.0998,-1.0794,-1.059,-1.0095,-0.9673,-0.9446,-0.9237,-0.8901,-0.8452,-0.8059,-0.7559,-0.7049,-0.6736,-0.6551,-0.6517,-0.6553,-0.6611,-0.6632,-0.6766,-0.6885,-0.6942,-0.6999,-0.7181,-0.744,-0.7572,-0.7731,-0.7718,-0.7725,-0.7787,-0.7912,-0.8015,-0.8147,-0.8311,-0.8394,-0.8394,-0.8394,-0.8394,-0.8394,-0.8394,-0.8394,-0.8394,-1.2305,-1.2305,-1.2305,-1.2305,-1.2305,-1.2305,-1.2305,-1.2342,-1.2445,-1.2489,-1.2526,-1.2599,-1.2636,-1.2535,-1.2453,-1.229,-1.2118,-1.1844,-1.1796,-1.193,-1.1716,-1.1396,-1.1093,-1.0823,-1.0649,-1.0523,-1.0491,-1.0304,-0.9935,-0.9663,-0.935,-0.8969,-0.8688,-0.8497,-0.8407,-0.8395,-0.8395,-0.8395,-0.8395,-0.8448,-0.8527,-0.8573,-0.8633,-0.8718,-0.8778,-0.8778,-0.8778,-0.8778,-0.8778,-0.8778,-0.8778,-0.8685,-0.86,-0.8521,-0.8421,-0.8348,-0.8268,-0.8215,-0.8215,-0.8262,-0.8321,-0.8374,-0.8533,-0.8699,-0.8804,-0.9061,-0.9237,-0.9517,-0.9732,-0.9991,-1.0283,-1.0462,-1.0616,-1.0777,-1.0777,-1.059,-1.0265,-0.9888,-0.9536,-0.9335,-0.9106,-0.8754,-0.8346,-0.7896,-0.7421,-0.697,-0.6631,-0.6391,-0.6324,-0.627,-0.6313,-0.6355,-0.6447,-0.6538,-0.6602,-0.6708,-0.6802,-0.7034,-0.7265,-0.7447,-0.753,-0.7593,-0.7663,-0.785,-0.7995,-0.8098,-0.825,-0.8353,-0.8394,-0.8394,-0.8394,-0.8394,-0.8394,-0.8394,-0.8394,-1.2305,-1.2305,-1.2305,-1.2305,-1.2305,-1.2305,-1.2305,-1.2305,-1.2305,-1.2342,-1.2305,-1.2288,-1.2178,-1.1978,-1.1791,-1.1553,-1.1259,-1.1023,-1.0753,-1.0648,-1.0605,-1.058,-1.0496,-1.0251,-1.0117,-1.0085,-1.0047,-0.997,-0.9882,-0.963,-0.9421,-0.9047,-0.8764,-0.8608,-0.8312,-0.8315,-0.8295,-0.8289,-0.8315,-0.8342,-0.8368,-0.8494,-0.86,-0.86,-0.8718,-0.8778,-0.8778,-0.8778,-0.8778,-0.8778,-0.8659,-0.86,-0.8527,-0.8348,-0.8221,-0.8168,-0.8008,-0.7955,-0.7955,-0.8062,-0.8195,-0.8162,-0.8321,-0.8507,-0.8705,-0.8778,-0.8956,-0.9283,-0.9465,-0.9673,-0.9914,-1.0102,-1.0213,-1.0239,-1.0342,-1.0239,-0.9844,-0.9681,-0.9439,-0.9185,-0.8942,-0.8626,-0.8177,-0.7753,-0.7322,-0.6883,-0.6532,-0.6297,-0.6087,-0.6019,-0.6003,-0.6062,-0.6163,-0.6255,-0.6367,-0.6468,-0.6568,-0.6745,-0.6977,-0.7202,-0.7426,-0.753,-0.7635,-0.7821,-0.7946,-0.8077,-0.8188,-0.8311,-0.8373,-0.8394,-0.8394,-0.8394,-0.8394,-0.8394,-0.8394,-1.2305,-1.2305,-1.2305,-1.2305,-1.2305,-1.2305,-1.2305,-1.2305,-1.2305,-1.2298,-1.2258,-1.2114,-1.1883,-1.17,-1.1403,-1.1064,-1.0688,-1.0368,-1.0019,-0.971,-0.9515,-0.9774,-1.0058,-1.0059,-0.9983,-0.9951,-0.983,-0.9792,-0.9595,-0.9277,-0.8926,-0.854,-0.8321,-0.8021,-0.777,-0.7788,-0.7809,-0.7883,-0.7883,-0.8017,-0.8215,-0.8268,-0.8401,-0.86,-0.8633,-0.8718,-0.8778,-0.8778,-0.8752,-0.8659,-0.8626,-0.8501,-0.8321,-0.8248,-0.8141,-0.8008,-0.7955,-0.7901,-0.7934,-0.7955,-0.7981,-0.7981,-0.8168,-0.8268,-0.8354,-0.8527,-0.8745,-0.8956,-0.9087,-0.929,-0.9498,-0.9621,-0.9647,-0.9655,-0.987,-0.9895,-0.9681,-0.9446,-0.9185,-0.8936,-0.8765,-0.8416,-0.8052,-0.7679,-0.728,-0.6762,-0.6428,-0.6157,-0.5914,-0.5825,-0.5847,-0.589,-0.597,-0.604,-0.6126,-0.6233,-0.6334,-0.6468,-0.673,-0.7041,-0.7307,-0.7558,-0.7683,-0.785,-0.7925,-0.8036,-0.8188,-0.8319,-0.836,-0.8373,-0.8394,-0.8394,-0.8394,-0.8394,-0.8394,-1.204,-1.204,-1.212,-1.215,-1.2187,-1.2268,-1.2305,-1.2305,-1.2305,-1.2218,-1.2104,-1.1879,-1.1585,-1.1278,-1.0876,-1.0477,-1.0106,-0.9732,-0.941,-0.9151,-0.8929,-0.9098,-0.9472,-0.9562,-0.9568,-0.9562,-0.9504,-0.9402,-0.925,-0.8989,-0.8674,-0.8385,-0.8002,-0.7751,-0.7582,-0.7458,-0.7467,-0.7622,-0.7643,-0.7803,-0.7975,-0.8141,-0.8268,-0.8448,-0.8527,-0.8659,-0.8778,-0.8752,-0.8692,-0.8606,-0.8553,-0.8395,-0.8221,-0.8115,-0.8035,-0.7901,-0.7901,-0.7901,-0.7901,-0.7901,-0.7901,-0.7928,-0.8041,-0.8115,-0.8195,-0.8348,-0.8507,-0.8712,-0.885,-0.9008,-0.9185,-0.9283,-0.9316,-0.9335,-0.9446,-0.9532,-0.9439,-0.9185,-0.8982,-0.8778,-0.8507,-0.8235,-0.7928,-0.7588,-0.7164,-0.6732,-0.6312,-0.6023,-0.5755,-0.5722,-0.5685,-0.5712,-0.5777,-0.5868,-0.5933,-0.6013,-0.6249,-0.6383,-0.6708,-0.6984,-0.7251,-0.7566,-0.7691,-0.7808,-0.7891,-0.7995,-0.8126,-0.8237,-0.8319,-0.834,-0.8373,-0.8394,-0.8394,-0.8394,-0.8394,-1.1706,-1.1706,-1.1892,-1.1966,-1.204,-1.2194,-1.2268,-1.2298,-1.2245,-1.2104,-1.1904,-1.1627,-1.1229,-1.0823,-1.0288,-0.9871,-0.9593,-0.9192,-0.8912,-0.8695,-0.8544,-0.8641,-0.8861,-0.8985,-0.899,-0.899,-0.8952,-0.892,-0.8844,-0.8748,-0.8557,-0.8233,-0.7889,-0.7688,-0.7458,-0.7323,-0.735,-0.7434,-0.7509,-0.7616,-0.7783,-0.7969,-0.8135,-0.8268,-0.8448,-0.8606,-0.8666,-0.8639,-0.8553,-0.8553,-0.8454,-0.8321,-0.8168,-0.7981,-0.7928,-0.7901,-0.7901,-0.7901,-0.7901,-0.7901,-0.7901,-0.7907,-0.7901,-0.7955,-0.8115,-0.8189,-0.8321,-0.8527,-0.8692,-0.8798,-0.8956,-0.908,-0.914,-0.9133,-0.9159,-0.9166,-0.9106,-0.8929,-0.8778,-0.8725,-0.8248,-0.7955,-0.7714,-0.7423,-0.7014,-0.6589,-0.6234,-0.5952,-0.5697,-0.5567,-0.5533,-0.5518,-0.5604,-0.569,-0.5755,-0.5793,-0.6099,-0.634,-0.6766,-0.7083,-0.7314,-0.7545,-0.7628,-0.7732,-0.7857,-0.7933,-0.7995,-0.8106,-0.8209,-0.8299,-0.8311,-0.8353,-0.8394,-0.8394,-0.8394,-1.1706,-1.1706,-1.175,-1.1855,-1.2003,-1.2077,-1.215,-1.2291,-1.21,-1.1966,-1.1742,-1.1225,-1.08,-1.0543,-0.9923,-0.9453,-0.9158,-0.8765,-0.8447,-0.8182,-0.8149,-0.8117,-0.8279,-0.8447,-0.8576,-0.8544,-0.8436,-0.8366,-0.8333,-0.8221,-0.8036,-0.7777,-0.7654,-0.7481,-0.7172,-0.7118,-0.7102,-0.7182,-0.7225,-0.7419,-0.7643,-0.775,-0.7943,-0.8162,-0.8374,-0.8454,-0.848,-0.8454,-0.8395,-0.8321,-0.8267,-0.8224,-0.802,-0.7928,-0.7901,-0.7901,-0.7901,-0.7901,-0.7901,-0.7901,-0.7901,-0.7901,-0.7901,-0.7901,-0.7955,-0.8115,-0.8195,-0.8321,-0.8401,-0.856,-0.8685,-0.8824,-0.8883,-0.8883,-0.8883,-0.885,-0.8791,-0.8771,-0.8699,-0.8454,-0.8135,-0.7794,-0.7473,-0.7279,-0.6887,-0.6473,-0.6157,-0.5914,-0.5669,-0.5442,-0.54,-0.5366,-0.5496,-0.5604,-0.5647,-0.575,-0.6034,-0.6334,-0.6745,-0.7083,-0.7314,-0.7517,-0.7628,-0.7732,-0.7836,-0.7899,-0.7933,-0.7987,-0.8098,-0.8188,-0.825,-0.8291,-0.8332,-0.8353,-0.8394,-1.1409,-1.1403,-1.1521,-1.1632,-1.1744,-1.1929,-1.2083,-1.2098,-1.1997,-1.1784,-1.152,-1.0907,-1.0495,-1.0198,-0.9564,-0.9113,-0.8829,-0.8349,-0.7987,-0.7787,-0.7694,-0.7563,-0.7503,-0.7699,-0.7829,-0.8025,-0.7949,-0.7879,-0.7814,-0.7712,-0.7538,-0.7391,-0.7242,-0.7152,-0.7041,-0.6964,-0.6974,-0.706,-0.7196,-0.7318,-0.7398,-0.7616,-0.7863,-0.8135,-0.8281,-0.8366,-0.858,-0.8517,-0.8538,-0.8537,-0.845,-0.8245,-0.7964,-0.7907,-0.7907,-0.7901,-0.7901,-0.7901,-0.7901,-0.7901,-0.7901,-0.7901,-0.7901,-0.7901,-0.7901,-0.8008,-0.8088,-0.8168,-0.8268,-0.8368,-0.8501,-0.8553,-0.8613,-0.8619,-0.8613,-0.858,-0.8547,-0.858,-0.848,-0.8189,-0.7895,-0.7574,-0.7279,-0.7063,-0.6727,-0.6272,-0.5962,-0.5702,-0.553,-0.5328,-0.5291,-0.5301,-0.5431,-0.5534,-0.5577,-0.5728,-0.5992,-0.6313,-0.666,-0.6977,-0.723,-0.7412,-0.76,-0.7691,-0.7795,-0.7836,-0.7891,-0.7946,-0.7987,-0.807,-0.8131,-0.8201,-0.825,-0.827,-0.8332,-1.1005,-1.1037,-1.1223,-1.1335,-1.1409,-1.1744,-1.1929,-1.2,-1.183,-1.158,-1.1321,-1.0723,-1.025,-0.9906,-0.9318,-0.8926,-0.8538,-0.8052,-0.7624,-0.7493,-0.7302,-0.7176,-0.7045,-0.704,-0.7171,-0.7498,-0.7461,-0.7428,-0.7363,-0.7232,-0.7218,-0.7098,-0.6848,-0.6822,-0.6951,-0.6927,-0.6884,-0.6957,-0.7118,-0.7265,-0.7225,-0.7474,-0.7741,-0.8072,-0.8197,-0.8337,-0.8533,-0.8561,-0.8577,-0.8868,-0.871,-0.8412,-0.8126,-0.7967,-0.7925,-0.7919,-0.7901,-0.7901,-0.7901,-0.7901,-0.7901,-0.7901,-0.7901,-0.7901,-0.7901,-0.7934,-0.7981,-0.8088,-0.8195,-0.8275,-0.8342,-0.8344,-0.8338,-0.8325,-0.8325,-0.8273,-0.8247,-0.8247,-0.8033,-0.7975,-0.7687,-0.7392,-0.709,-0.6837,-0.6479,-0.6116,-0.5807,-0.5524,-0.5353,-0.5231,-0.5186,-0.5193,-0.5301,-0.5448,-0.5512,-0.5685,-0.597,-0.6227,-0.6568,-0.6844,-0.7118,-0.7349,-0.7517,-0.7649,-0.7732,-0.7774,-0.7816,-0.7836,-0.7891,-0.7959,-0.8,-0.8049,-0.8118,-0.8167,-0.8229,-1.0588,-1.0631,-1.0812,-1.0999,-1.1186,-1.1409,-1.1706,-1.1875,-1.1462,-1.1311,-1.1261,-1.0483,-1.0053,-0.983,-0.9306,-0.8694,-0.8214,-0.7727,-0.7433,-0.7232,-0.7073,-0.6913,-0.6848,-0.6745,-0.6811,-0.6839,-0.6942,-0.7007,-0.7007,-0.6979,-0.6942,-0.69,-0.6837,-0.6819,-0.6763,-0.6795,-0.6854,-0.6864,-0.6963,-0.7074,-0.7263,-0.7334,-0.756,-0.7963,-0.8148,-0.8259,-0.8329,-0.8299,-0.8293,-0.8328,-0.831,-0.8322,-0.8323,-0.8266,-0.8132,-0.7985,-0.7943,-0.7949,-0.7907,-0.7901,-0.7901,-0.7901,-0.7901,-0.7901,-0.7901,-0.7901,-0.7928,-0.7981,-0.8115,-0.8195,-0.8209,-0.8125,-0.8082,-0.8018,-0.7897,-0.7745,-0.7634,-0.7573,-0.759,-0.7637,-0.7441,-0.7225,-0.6945,-0.6645,-0.6283,-0.5962,-0.5705,-0.5429,-0.525,-0.5135,-0.5074,-0.5089,-0.5149,-0.5323,-0.5469,-0.5663,-0.5906,-0.6142,-0.6441,-0.6696,-0.6964,-0.7245,-0.7433,-0.7566,-0.7649,-0.7712,-0.7732,-0.7761,-0.7767,-0.7814,-0.7876,-0.7925,-0.7974,-0.8015,-0.8049,-1.0443,-1.0368,-1.055,-1.0775,-1.0968,-1.1149,-1.1409,-1.1587,-1.1198,-1.1052,-1.089,-1.0294,-0.99,-0.9734,-0.9274,-0.863,-0.8019,-0.7526,-0.7237,-0.704,-0.6876,-0.6712,-0.6683,-0.6581,-0.6548,-0.6581,-0.6613,-0.6651,-0.6651,-0.6651,-0.6651,-0.6646,-0.6651,-0.6628,-0.6658,-0.6737,-0.6818,-0.6832,-0.6924,-0.7022,-0.7261,-0.7323,-0.7686,-0.7976,-0.8153,-0.8272,-0.8397,-0.8408,-0.8476,-0.8603,-0.8632,-0.8588,-0.8529,-0.848,-0.834,-0.814,-0.8099,-0.8021,-0.7931,-0.7901,-0.7901,-0.7901,-0.7901,-0.7901,-0.7901,-0.7901,-0.7901,-0.7928,-0.7955,-0.8035,-0.8029,-0.7902,-0.7803,-0.7754,-0.7548,-0.7368,-0.7284,-0.714,-0.7186,-0.7254,-0.7026,-0.6838,-0.6789,-0.6451,-0.6089,-0.5804,-0.5551,-0.533,-0.5111,-0.5035,-0.4958,-0.5024,-0.5111,-0.5258,-0.5426,-0.5626,-0.582,-0.6056,-0.6313,-0.6568,-0.6816,-0.7091,-0.7307,-0.7461,-0.7566,-0.7628,-0.767,-0.7663,-0.7676,-0.7676,-0.7655,-0.7683,-0.778,-0.7842,-0.7884,-1.0143,-1.003,-1.0293,-1.0481,-1.0663,-1.0925,-1.1149,-1.1224,-1.098,-1.088,-1.0803,-1.0169,-0.9804,-0.9644,-0.9151,-0.8533,-0.7987,-0.7433,-0.7073,-0.6913,-0.6712,-0.6548,-0.6453,-0.642,-0.642,-0.6453,-0.6453,-0.642,-0.6453,-0.6453,-0.642,-0.6453,-0.642,-0.6453,-0.6597,-0.6678,-0.6759,-0.6853,-0.697,-0.705,-0.7205,-0.752,-0.7841,-0.8072,-0.8124,-0.8243,-0.836,-0.8377,-0.8485,-0.8595,-0.8671,-0.8654,-0.8541,-0.8502,-0.8448,-0.8334,-0.8278,-0.8098,-0.7946,-0.7901,-0.7901,-0.7901,-0.7901,-0.7901,-0.7901,-0.7875,-0.7848,-0.7848,-0.7842,-0.7895,-0.7886,-0.7673,-0.7565,-0.745,-0.7242,-0.7,-0.6911,-0.6789,-0.662,-0.6605,-0.6509,-0.6416,-0.6307,-0.6147,-0.5719,-0.547,-0.523,-0.5097,-0.4902,-0.4887,-0.4867,-0.498,-0.5084,-0.5236,-0.5388,-0.5539,-0.5712,-0.5927,-0.6163,-0.6419,-0.6675,-0.6907,-0.7118,-0.7314,-0.7419,-0.7482,-0.7538,-0.7558,-0.7558,-0.7517,-0.7433,-0.7475,-0.7579,-0.7642,-0.7663,-0.9435,-0.9435,-0.9809,-0.9992,-1.0105,-1.0588,-1.0925,-1.1076,-1.0768,-1.0748,-1.0779,-1.013,-0.9772,-0.9574,-0.8899,-0.8376,-0.7889,-0.7307,-0.6946,-0.6848,-0.6581,-0.6449,-0.6416,-0.642,-0.642,-0.642,-0.642,-0.642,-0.642,-0.642,-0.642,-0.642,-0.642,-0.642,-0.6486,-0.6609,-0.6699,-0.6774,-0.6872,-0.6985,-0.7158,-0.7445,-0.7608,-0.7726,-0.7859,-0.8026,-0.8057,-0.8094,-0.8108,-0.8124,-0.8149,-0.8161,-0.8227,-0.8254,-0.8291,-0.8276,-0.8206,-0.8017,-0.7817,-0.7827,-0.7848,-0.7848,-0.7875,-0.7901,-0.7848,-0.7788,-0.7729,-0.7729,-0.7729,-0.7756,-0.7738,-0.7489,-0.7321,-0.7109,-0.6893,-0.6588,-0.6415,-0.6389,-0.6237,-0.6047,-0.5963,-0.5842,-0.5711,-0.5564,-0.5371,-0.5111,-0.4912,-0.4812,-0.4741,-0.4736,-0.4797,-0.4888,-0.4975,-0.5149,-0.5301,-0.5453,-0.5642,-0.5809,-0.6024,-0.626,-0.6511,-0.6745,-0.6901,-0.7076,-0.7209,-0.7279,-0.7293,-0.7314,-0.7377,-0.7356,-0.7251,-0.7314,-0.7412,-0.7433,-0.744,-0.8751,-0.8975,-0.9273,-0.9576,-0.9922,-1.0186,-1.0513,-1.0781,-1.0456,-1.0361,-1.0396,-0.9909,-0.9548,-0.9215,-0.8603,-0.8144,-0.7727,-0.7176,-0.6876,-0.6745,-0.6515,-0.642,-0.642,-0.642,-0.642,-0.642,-0.642,-0.642,-0.642,-0.6387,-0.642,-0.6387,-0.642,-0.642,-0.6387,-0.6482,-0.6576,-0.6715,-0.6822,-0.6976,-0.7148,-0.7272,-0.7425,-0.7516,-0.764,-0.7712,-0.7722,-0.7717,-0.7722,-0.7722,-0.7722,-0.7792,-0.7884,-0.7934,-0.7945,-0.7918,-0.7948,-0.7887,-0.7822,-0.7726,-0.7705,-0.7681,-0.7681,-0.7655,-0.7649,-0.7622,-0.7595,-0.7601,-0.7595,-0.7601,-0.7635,-0.7394,-0.7209,-0.6978,-0.6728,-0.6464,-0.6202,-0.595,-0.5826,-0.5621,-0.547,-0.54,-0.5323,-0.5188,-0.5083,-0.4935,-0.4744,-0.4647,-0.4604,-0.4635,-0.4709,-0.4801,-0.491,-0.5019,-0.5198,-0.535,-0.556,-0.5739,-0.5831,-0.609,-0.6352,-0.6581,-0.6778,-0.6838,-0.6898,-0.6983,-0.7025,-0.7062,-0.7097,-0.7083,-0.7062,-0.7083,-0.7118,-0.7175,-0.7223,-0.8178,-0.8518,-0.8775,-0.9193,-0.962,-0.9733,-1.0105,-1.0493,-1.0059,-0.9985,-0.9988,-0.9598,-0.9183,-0.8861,-0.8436,-0.8014,-0.7629,-0.7106,-0.6843,-0.6675,-0.6515,-0.642,-0.642,-0.642,-0.642,-0.642,-0.642,-0.6387,-0.6354,-0.6354,-0.6321,-0.6354,-0.6354,-0.6354,-0.6354,-0.6383,-0.6445,-0.6704,-0.6798,-0.6915,-0.7079,-0.7116,-0.7223,-0.7288,-0.7326,-0.7363,-0.733,-0.733,-0.7368,-0.7335,-0.7363,-0.74,-0.7466,-0.7461,-0.7506,-0.7516,-0.7555,-0.7634,-0.7645,-0.7633,-0.7514,-0.7511,-0.744,-0.7413,-0.7333,-0.7365,-0.7359,-0.7333,-0.7354,-0.7386,-0.7416,-0.7312,-0.7193,-0.6992,-0.6765,-0.651,-0.6275,-0.604,-0.578,-0.5592,-0.5414,-0.5153,-0.505,-0.4903,-0.4798,-0.4703,-0.4602,-0.4479,-0.4467,-0.4512,-0.456,-0.4666,-0.4915,-0.5031,-0.5192,-0.5361,-0.5533,-0.5704,-0.5803,-0.6019,-0.6348,-0.6556,-0.6744,-0.676,-0.6721,-0.6821,-0.6951,-0.6877,-0.6802,-0.6802,-0.6781,-0.6766,-0.6781,-0.6899,-0.7033,-0.7842,-0.7919,-0.8479,-0.8742,-0.8851,-0.9392,-0.9733,-0.9954,-0.9677,-0.966,-0.9708,-0.9274,-0.8861,-0.8538,-0.8274,-0.7912,-0.7493,-0.7073,-0.6806,-0.6642,-0.6515,-0.642,-0.642,-0.642,-0.642,-0.642,-0.6387,-0.6321,-0.6251,-0.6251,-0.6214,-0.6214,-0.6185,-0.6218,-0.6218,-0.6218,-0.6346,-0.6572,-0.6675,-0.6745,-0.6848,-0.6913,-0.6913,-0.6913,-0.6946,-0.6946,-0.6946,-0.6913,-0.6881,-0.6881,-0.6876,-0.6942,-0.6942,-0.6979,-0.707,-0.7187,-0.7208,-0.73,-0.736,-0.748,-0.7533,-0.7465,-0.7333,-0.7122,-0.6987,-0.6933,-0.6933,-0.6955,-0.7004,-0.7117,-0.7186,-0.7222,-0.7092,-0.6923,-0.6706,-0.6512,-0.6302,-0.6142,-0.5893,-0.5644,-0.5392,-0.5101,-0.4901,-0.4808,-0.4654,-0.457,-0.4487,-0.4369,-0.4313,-0.4338,-0.4388,-0.4539,-0.4901,-0.5107,-0.5297,-0.5473,-0.5699,-0.5859,-0.5981,-0.6204,-0.647,-0.6617,-0.6713,-0.6777,-0.6765,-0.6831,-0.6836,-0.6744,-0.6667,-0.6572,-0.6542,-0.6662,-0.6787,-0.6931,-0.7033,-0.7599,-0.7638,-0.8025,-0.8293,-0.8508,-0.8894,-0.9241,-0.9466,-0.9385,-0.9303,-0.928,-0.888,-0.8608,-0.8382,-0.7949,-0.7624,-0.7265,-0.6937,-0.6708,-0.6544,-0.6449,-0.642,-0.642,-0.642,-0.642,-0.642,-0.6387,-0.6317,-0.6214,-0.6168,-0.5984,-0.5947,-0.5933,-0.5987,-0.602,-0.602,-0.6181,-0.6309,-0.6412,-0.6449,-0.6548,-0.6581,-0.6548,-0.6478,-0.6482,-0.6416,-0.6321,-0.6288,-0.6288,-0.6317,-0.6321,-0.6383,-0.6482,-0.6552,-0.6679,-0.6843,-0.691,-0.6967,-0.7018,-0.7141,-0.7175,-0.6986,-0.6842,-0.6712,-0.6581,-0.6517,-0.649,-0.6512,-0.6593,-0.6739,-0.674,-0.6876,-0.6923,-0.6778,-0.6603,-0.6422,-0.627,-0.6121,-0.5888,-0.5592,-0.5327,-0.5055,-0.4897,-0.4744,-0.4586,-0.4437,-0.433,-0.4269,-0.4215,-0.424,-0.4334,-0.4509,-0.4875,-0.5175,-0.5346,-0.5596,-0.5859,-0.6001,-0.6164,-0.6318,-0.6498,-0.6573,-0.6662,-0.6737,-0.6777,-0.6788,-0.6731,-0.663,-0.6591,-0.6566,-0.6635,-0.6736,-0.6868,-0.6978,-0.7115,-0.7326,-0.7326,-0.7488,-0.7795,-0.8217,-0.8437,-0.8708,-0.8973,-0.8883,-0.8801,-0.8705,-0.8447,-0.8279,-0.8084,-0.7754,-0.7293,-0.7068,-0.6806,-0.6609,-0.6482,-0.642,-0.642,-0.642,-0.642,-0.642,-0.6387,-0.6358,-0.6259,-0.6145,-0.613,-0.587,-0.5672,-0.5654,-0.5718,-0.5822,-0.5855,-0.5954,-0.6086,-0.6115,-0.6152,-0.6251,-0.6251,-0.6218,-0.6115,-0.6148,-0.6083,-0.602,-0.5991,-0.5991,-0.5958,-0.5958,-0.5987,-0.6086,-0.6218,-0.6313,-0.6449,-0.6597,-0.6672,-0.6678,-0.6749,-0.6771,-0.6643,-0.6433,-0.6319,-0.6196,-0.6136,-0.6136,-0.6109,-0.6191,-0.6277,-0.63,-0.6487,-0.6592,-0.647,-0.6455,-0.6297,-0.6148,-0.5979,-0.5749,-0.5483,-0.5259,-0.5078,-0.4815,-0.4669,-0.4499,-0.4354,-0.4204,-0.4154,-0.4175,-0.4247,-0.4383,-0.4584,-0.4898,-0.5164,-0.5419,-0.5696,-0.5939,-0.6143,-0.6272,-0.6335,-0.6467,-0.6543,-0.6623,-0.6712,-0.6743,-0.6726,-0.6709,-0.6695,-0.666,-0.6642,-0.672,-0.6823,-0.6913,-0.7059,-0.7297,-0.6942,-0.6903,-0.6942,-0.7292,-0.7799,-0.803,-0.8227,-0.8383,-0.8191,-0.8064,-0.8077,-0.7987,-0.7819,-0.7591,-0.7461,-0.7134,-0.6802,-0.6675,-0.6544,-0.6416,-0.6354,-0.6387,-0.6432,-0.6436,-0.6477,-0.6362,-0.6319,-0.6248,-0.613,-0.5989,-0.5714,-0.5428,-0.5411,-0.5413,-0.5598,-0.5789,-0.5892,-0.5925,-0.5885,-0.5921,-0.5954,-0.5987,-0.5954,-0.5921,-0.5888,-0.5888,-0.5822,-0.5793,-0.5793,-0.5793,-0.5793,-0.5826,-0.5892,-0.5921,-0.5954,-0.5987,-0.6148,-0.6239,-0.6233,-0.6405,-0.6374,-0.6265,-0.6049,-0.5913,-0.5831,-0.5795,-0.5732,-0.57,-0.5841,-0.595,-0.6028,-0.61,-0.6163,-0.6203,-0.6211,-0.6165,-0.6006,-0.5797,-0.5562,-0.5412,-0.5317,-0.5167,-0.4831,-0.457,-0.4439,-0.4276,-0.4107,-0.406,-0.4149,-0.4281,-0.4466,-0.4646,-0.4932,-0.5155,-0.544,-0.5779,-0.6054,-0.6234,-0.6357,-0.6416,-0.6486,-0.6597,-0.6659,-0.671,-0.6707,-0.6707,-0.6749,-0.6805,-0.6764,-0.6759,-0.6811,-0.6888,-0.6988,-0.7158,-0.7444,-0.6903,-0.6903,-0.6903,-0.7019,-0.7253,-0.7561,-0.7761,-0.7772,-0.7711,-0.7678,-0.763,-0.7563,-0.7428,-0.7265,-0.7031,-0.6806,-0.6548,-0.6379,-0.628,-0.628,-0.6259,-0.6317,-0.6382,-0.6475,-0.6561,-0.6567,-0.6486,-0.6344,-0.6294,-0.6047,-0.5767,-0.5506,-0.524,-0.516,-0.5262,-0.5388,-0.5422,-0.5653,-0.5719,-0.5752,-0.5855,-0.5892,-0.5822,-0.5719,-0.5719,-0.569,-0.5624,-0.5624,-0.5627,-0.5627,-0.5627,-0.5627,-0.5627,-0.5657,-0.5719,-0.5752,-0.5885,-0.5987,-0.5971,-0.5978,-0.5882,-0.5785,-0.5702,-0.5518,-0.5353,-0.5238,-0.5207,-0.5234,-0.5399,-0.5481,-0.5508,-0.57,-0.58,-0.5914,-0.5932,-0.5932,-0.5801,-0.5588,-0.5389,-0.5272,-0.5183,-0.4991,-0.4739,-0.4574,-0.444,-0.4372,-0.425,-0.4273,-0.4347,-0.4485,-0.4624,-0.4762,-0.4946,-0.5174,-0.5427,-0.5678,-0.5887,-0.6064,-0.6253,-0.6396,-0.6497,-0.6571,-0.6642,-0.6639,-0.6686,-0.6707,-0.6707,-0.6729,-0.6822,-0.6855,-0.6907,-0.7042,-0.7198,-0.743,-0.7699,-0.6676,-0.6714,-0.6676,-0.6714,-0.6853,-0.7148,-0.7294,-0.7296,-0.7267,-0.7285,-0.725,-0.7171,-0.704,-0.6876,-0.6712,-0.6445,-0.6222,-0.6152,-0.6083,-0.6094,-0.616,-0.6216,-0.6312,-0.6474,-0.6487,-0.6542,-0.6498,-0.6355,-0.6313,-0.6135,-0.5881,-0.5581,-0.523,-0.5177,-0.518,-0.5202,-0.5256,-0.5455,-0.5554,-0.5591,-0.5657,-0.569,-0.5657,-0.5587,-0.5521,-0.5491,-0.5425,-0.5395,-0.5395,-0.5395,-0.5395,-0.5395,-0.5425,-0.5488,-0.5521,-0.5587,-0.5624,-0.5727,-0.5683,-0.5647,-0.5548,-0.5438,-0.5299,-0.5195,-0.5106,-0.5029,-0.4994,-0.4983,-0.4991,-0.505,-0.5191,-0.5356,-0.5423,-0.5538,-0.5534,-0.5534,-0.547,-0.525,-0.5156,-0.5073,-0.4991,-0.4798,-0.4656,-0.4574,-0.4474,-0.4453,-0.4426,-0.4436,-0.4463,-0.4546,-0.4632,-0.4739,-0.4873,-0.505,-0.5265,-0.55,-0.5704,-0.5896,-0.6087,-0.6277,-0.63,-0.6327,-0.6436,-0.6517,-0.649,-0.6495,-0.6571,-0.6637,-0.6698,-0.6805,-0.694,-0.7132,-0.7386,-0.7574,-0.7762,-0.6296,-0.63,-0.6293,-0.6398,-0.6601,-0.6738,-0.6853,-0.686,-0.6876,-0.6852,-0.6848,-0.6815,-0.6683,-0.642,-0.635,-0.6185,-0.5954,-0.5921,-0.5907,-0.5948,-0.6007,-0.6097,-0.619,-0.6337,-0.644,-0.6355,-0.6302,-0.6375,-0.6321,-0.6108,-0.5922,-0.5697,-0.5347,-0.5256,-0.5236,-0.5221,-0.5256,-0.5369,-0.5425,-0.5458,-0.5524,-0.5462,-0.5458,-0.5458,-0.5425,-0.5425,-0.5395,-0.5395,-0.5395,-0.5395,-0.5395,-0.5395,-0.5395,-0.5395,-0.5395,-0.5362,-0.5362,-0.5362,-0.5359,-0.5332,-0.5277,-0.5147,-0.5058,-0.5049,-0.5049,-0.4951,-0.4907,-0.4863,-0.488,-0.4886,-0.4958,-0.5001,-0.5044,-0.5068,-0.5064,-0.5056,-0.5017,-0.4927,-0.4857,-0.4798,-0.477,-0.4632,-0.4519,-0.4436,-0.4397,-0.4325,-0.4273,-0.4298,-0.4298,-0.4349,-0.4436,-0.4577,-0.4715,-0.4881,-0.5077,-0.5325,-0.5489,-0.565,-0.5873,-0.6064,-0.6087,-0.6114,-0.6168,-0.6223,-0.62,-0.6228,-0.6327,-0.6436,-0.6512,-0.6657,-0.682,-0.7036,-0.7252,-0.7386,-0.7547,-0.6159,-0.6282,-0.6142,-0.6132,-0.617,-0.614,-0.6216,-0.6363,-0.6268,-0.6185,-0.6185,-0.6185,-0.6189,-0.6053,-0.6057,-0.5885,-0.5752,-0.5701,-0.5773,-0.5807,-0.5882,-0.6031,-0.6221,-0.6393,-0.6496,-0.6482,-0.6469,-0.6414,-0.6395,-0.6141,-0.5916,-0.5743,-0.5512,-0.5421,-0.5332,-0.5264,-0.5322,-0.5356,-0.5409,-0.5395,-0.5395,-0.5395,-0.5395,-0.5395,-0.5395,-0.5395,-0.5395,-0.5395,-0.5395,-0.5395,-0.5395,-0.5395,-0.5395,-0.5259,-0.5156,-0.4994,-0.4964,-0.4964,-0.496,-0.496,-0.4968,-0.4908,-0.4842,-0.4842,-0.4877,-0.4885,-0.4834,-0.4768,-0.4734,-0.4734,-0.4791,-0.4826,-0.4916,-0.497,-0.4977,-0.4937,-0.4922,-0.4858,-0.4787,-0.4689,-0.4657,-0.4528,-0.4406,-0.433,-0.4284,-0.4175,-0.4107,-0.4104,-0.4159,-0.4187,-0.4242,-0.4384,-0.4494,-0.4632,-0.4857,-0.5105,-0.527,-0.5434,-0.5626,-0.5791,-0.5845,-0.5873,-0.59,-0.5955,-0.6009,-0.6059,-0.6087,-0.6191,-0.6354,-0.6463,-0.663,-0.6869,-0.7085,-0.7198,-0.7306,-0.5996,-0.6061,-0.5979,-0.5908,-0.583,-0.5769,-0.5799,-0.5898,-0.5903,-0.5892,-0.5892,-0.5925,-0.5855,-0.5785,-0.5785,-0.5686,-0.5517,-0.5531,-0.5598,-0.5689,-0.5776,-0.5944,-0.619,-0.6369,-0.6444,-0.6467,-0.6461,-0.6416,-0.6409,-0.6289,-0.6036,-0.598,-0.578,-0.5675,-0.5607,-0.5514,-0.5432,-0.546,-0.544,-0.5405,-0.5395,-0.5395,-0.5395,-0.5395,-0.5395,-0.5395,-0.5395,-0.5395,-0.5395,-0.5359,-0.5359,-0.5292,-0.5259,-0.509,-0.4957,-0.4827,-0.4827,-0.4827,-0.4827,-0.4827,-0.4794,-0.4776,-0.4718,-0.4777,-0.4756,-0.4757,-0.4662,-0.4581,-0.4601,-0.4595,-0.4657,-0.4726,-0.4873,-0.5045,-0.4986,-0.4926,-0.4884,-0.4872,-0.4764,-0.4663,-0.456,-0.4426,-0.4317,-0.426,-0.4163,-0.4042,-0.3913,-0.3833,-0.3913,-0.4021,-0.4076,-0.4159,-0.4245,-0.4356,-0.4605,-0.4829,-0.4967,-0.5101,-0.5293,-0.5458,-0.5572,-0.5681,-0.5736,-0.5791,-0.5873,-0.5896,-0.5896,-0.6055,-0.6218,-0.6327,-0.6408,-0.6598,-0.6761,-0.6896,-0.7004,-0.5796,-0.581,-0.5789,-0.5705,-0.5583,-0.5562,-0.5521,-0.5435,-0.5727,-0.5855,-0.5826,-0.5822,-0.5723,-0.562,-0.5587,-0.5524,-0.5458,-0.5432,-0.5538,-0.5641,-0.575,-0.593,-0.6119,-0.6218,-0.636,-0.6318,-0.6296,-0.6335,-0.6296,-0.6254,-0.6212,-0.6289,-0.6097,-0.5946,-0.5868,-0.5711,-0.5636,-0.5603,-0.5545,-0.5481,-0.5412,-0.5395,-0.5395,-0.5359,-0.5359,-0.5359,-0.5329,-0.5329,-0.5359,-0.5292,-0.519,-0.509,-0.496,-0.4864,-0.4764,-0.4661,-0.4561,-0.4561,-0.4561,-0.4561,-0.4628,-0.4661,-0.4728,-0.4695,-0.4637,-0.4686,-0.4631,-0.455,-0.4559,-0.4559,-0.4592,-0.4629,-0.4729,-0.4827,-0.4807,-0.4795,-0.4789,-0.4736,-0.4651,-0.4581,-0.4516,-0.4375,-0.4262,-0.4182,-0.4028,-0.3926,-0.3758,-0.3628,-0.3621,-0.3758,-0.38,-0.3878,-0.3968,-0.4079,-0.427,-0.4467,-0.4605,-0.4767,-0.4963,-0.5101,-0.5187,-0.538,-0.5567,-0.5567,-0.5567,-0.5681,-0.5736,-0.5896,-0.6032,-0.6109,-0.6218,-0.6327,-0.6463,-0.6603,-0.6761,-0.5705,-0.5789,-0.5684,-0.5555,-0.546,-0.545,-0.5436,-0.5395,-0.5462,-0.5528,-0.5524,-0.5524,-0.5524,-0.5458,-0.5458,-0.5425,-0.5425,-0.5436,-0.5566,-0.5709,-0.58,-0.5962,-0.6152,-0.6265,-0.63,-0.63,-0.63,-0.63,-0.63,-0.63,-0.63,-0.6296,-0.619,-0.6149,-0.6054,-0.5905,-0.5807,-0.5755,-0.5681,-0.5579,-0.5457,-0.5376,-0.5359,-0.5269,-0.5206,-0.5113,-0.5076,-0.4964,-0.4964,-0.4927,-0.4927,-0.4761,-0.4498,-0.4467,-0.4298,-0.4092,-0.4125,-0.4159,-0.4161,-0.4228,-0.4261,-0.4298,-0.4331,-0.44,-0.4472,-0.4623,-0.4661,-0.4582,-0.4511,-0.4511,-0.4514,-0.4523,-0.4535,-0.4588,-0.467,-0.4671,-0.4703,-0.464,-0.454,-0.4501,-0.4467,-0.4327,-0.4182,-0.4041,-0.3942,-0.3781,-0.3593,-0.3453,-0.3375,-0.3403,-0.3423,-0.3488,-0.3649,-0.3777,-0.3968,-0.4104,-0.4242,-0.4425,-0.4598,-0.4729,-0.484,-0.5018,-0.5179,-0.5183,-0.5211,-0.5348,-0.5517,-0.5709,-0.5818,-0.5923,-0.6032,-0.6141,-0.6196,-0.6309,-0.6495,-0.5569,-0.5631,-0.5556,-0.5474,-0.5402,-0.5395,-0.5395,-0.5395,-0.5395,-0.5395,-0.5395,-0.5395,-0.5395,-0.5395,-0.5395,-0.5402,-0.5416,-0.5474,-0.5627,-0.5749,-0.5895,-0.6051,-0.6214,-0.63,-0.63,-0.63,-0.63,-0.63,-0.63,-0.63,-0.63,-0.63,-0.6293,-0.6255,-0.6118,-0.6074,-0.5959,-0.5865,-0.585,-0.5718,-0.559,-0.5549,-0.5452,-0.5346,-0.5195,-0.507,-0.4925,-0.4843,-0.4797,-0.4731,-0.4664,-0.4464,-0.4231,-0.4097,-0.3995,-0.3894,-0.3859,-0.3825,-0.3825,-0.3828,-0.3861,-0.3928,-0.3995,-0.4095,-0.4095,-0.4224,-0.4254,-0.4194,-0.4227,-0.4227,-0.4194,-0.4167,-0.4306,-0.4418,-0.4549,-0.4662,-0.4714,-0.4719,-0.4621,-0.4551,-0.444,-0.4218,-0.4064,-0.3862,-0.3716,-0.3549,-0.3383,-0.3206,-0.3148,-0.3088,-0.308,-0.3123,-0.3247,-0.3436,-0.3635,-0.3771,-0.3858,-0.4039,-0.4254,-0.4395,-0.4529,-0.4671,-0.4763,-0.4831,-0.4949,-0.5073,-0.5242,-0.5447,-0.5626,-0.5727,-0.5841,-0.5927,-0.5982,-0.6069,-0.6173,-0.5402,-0.5395,-0.5399,-0.5395,-0.5395,-0.5395,-0.5395,-0.5395,-0.5395,-0.5395,-0.5395,-0.5395,-0.5395,-0.5395,-0.5395,-0.5409,-0.545,-0.5539,-0.5661,-0.5837,-0.5925,-0.6098,-0.6231,-0.63,-0.63,-0.63,-0.63,-0.63,-0.63,-0.63,-0.63,-0.63,-0.63,-0.6293,-0.6259,-0.6152,-0.6057,-0.6037,-0.5986,-0.5901,-0.585,-0.5781,-0.56,-0.5451,-0.5342,-0.5136,-0.4985,-0.4868,-0.4794,-0.4579,-0.4381,-0.4095,-0.3894,-0.3727,-0.3625,-0.3558,-0.3489,-0.3525,-0.3558,-0.3591,-0.3658,-0.3692,-0.3725,-0.3792,-0.3792,-0.3825,-0.3856,-0.3854,-0.3887,-0.3951,-0.3885,-0.3918,-0.4092,-0.4195,-0.4389,-0.4517,-0.458,-0.4646,-0.4541,-0.4472,-0.4282,-0.4052,-0.3863,-0.3662,-0.3487,-0.3321,-0.3168,-0.301,-0.2849,-0.281,-0.2793,-0.2803,-0.2869,-0.3071,-0.3339,-0.3452,-0.3561,-0.3705,-0.3929,-0.4089,-0.4235,-0.4375,-0.4476,-0.4575,-0.4681,-0.4854,-0.5008,-0.5223,-0.5372,-0.5567,-0.5677,-0.5786,-0.5845,-0.59,-0.5845,-0.5395,-0.5395,-0.5395,-0.5395,-0.5395,-0.5395,-0.5395,-0.5395,-0.5395,-0.5395,-0.5395,-0.5395,-0.5395,-0.5395,-0.5395,-0.544,-0.5552,-0.5603,-0.5779,-0.5936,-0.5996,-0.6135,-0.6255,-0.63,-0.63,-0.63,-0.63,-0.63,-0.6219,-0.6257,-0.6261,-0.6261,-0.6257,-0.6257,-0.6254,-0.6203,-0.6148,-0.6124,-0.6166,-0.6118,-0.6023,-0.5835,-0.546,-0.5284,-0.5063,-0.4908,-0.4789,-0.4742,-0.4566,-0.4312,-0.406,-0.376,-0.3542,-0.3374,-0.3269,-0.3121,-0.3088,-0.3054,-0.3121,-0.3224,-0.3291,-0.3357,-0.3424,-0.3656,-0.3625,-0.356,-0.3525,-0.3424,-0.3491,-0.3689,-0.3689,-0.3723,-0.3859,-0.3892,-0.4023,-0.4023,-0.409,-0.4087,-0.4054,-0.4018,-0.3946,-0.3735,-0.3569,-0.3381,-0.3212,-0.3071,-0.2904,-0.2765,-0.2688,-0.2614,-0.2506,-0.2528,-0.257,-0.2831,-0.3146,-0.3235,-0.3363,-0.347,-0.3568,-0.3723,-0.3912,-0.4079,-0.4192,-0.4295,-0.4484,-0.4689,-0.4844,-0.5057,-0.5274,-0.5443,-0.5567,-0.5677,-0.5736,-0.5736,-0.5681]}]]